[[{"header":{"parameterUnit":"m.s-1","parameterCategory":1,"la1":30.6,"la2":29.2853,"lo1":-89.7004,"lo2":-87.6739,"dy":0.0162,"dx":0.0183,"nx":112,"ny":82,"refTime":"2024-04-20T12:00:00:Z","depth":0,"parameterNumber":2,"parameterNumberName":"U-component_of_WINDS"},"data":[0.0,0.0,0.0,0.0,0.0,0.0,0.0,0.0,0.0,0.0,0.0,0.0,0.0,0.0,0.0,0.0,0.0,0.0,0.0,0.0,0.0,0.0,0.0,0.0,0.0,0.0,0.0,0.0,0.0,0.0,0.0,0.0,0.0,0.0,0.0,0.0,0.0,0.0,0.0,0.0,0.0,0.0,0.0,0.0,0.0,0.0,0.0,0.0,0.0,0.0,0.0,0.0,0.0,0.0,0.0,0.0,0.0,0.0,0.0,0.0,0.0,0.0,0.0,0.0,0.0,0.0,0.0,0.0,0.0,0.0,0.0,0.0,0.0,0.0,0.0,0.0,0.0,0.0,0.0,0.0,0.0,0.0,0.0,0.0,0.0,0.0,0.0,0.0,0.0,0.0,0.0,-3.0569,-3.3457,-3.512,-3.5084,-3.4992,-3.2083,-2.542,0.0,0.0,0.0,0.0,0.0,0.0,0.0,0.0,0.0,0.0,0.0,0.0,0.0,0.0,0.0,0.0,0.0,0.0,0.0,0.0,0.0,0.0,0.0,0.0,0.0,0.0,0.0,0.0,0.0,0.0,0.0,0.0,0.0,0.0,0.0,0.0,0.0,0.0,0.0,0.0,0.0,0.0,0.0,0.0,0.0,0.0,0.0,0.0,0.0,0.0,0.0,0.0,0.0,0.0,0.0,0.0,0.0,0.0,0.0,0.0,0.0,0.0,0.0,0.0,0.0,0.0,0.0,0.0,0.0,0.0,0.0,0.0,0.0,0.0,0.0,0.0,0.0,0.0,0.0,0.0,0.0,0.0,0.0,0.0,0.0,0.0,0.0,0.0,0.0,0.0,0.0,0.0,0.0,0.0,0.0,0.0,0.0,0.0,0.0,0.0,0.0,0.0,0.0,0.0,-2.7574,-3.3767,-3.4895,-3.5138,-3.502,-3.5057,-3.2197,-2.5427,0.0,0.0,0.0,0.0,0.0,0.0,0.0,0.0,0.0,0.0,0.0,0.0,0.0,0.0,0.0,0.0,0.0,0.0,0.0,0.0,0.0,0.0,0.0,0.0,0.0,0.0,0.0,0.0,0.0,0.0,0.0,0.0,0.0,0.0,0.0,0.0,0.0,0.0,0.0,0.0,0.0,0.0,0.0,0.0,0.0,0.0,0.0,0.0,0.0,0.0,0.0,0.0,0.0,0.0,0.0,0.0,0.0,0.0,0.0,0.0,0.0,0.0,0.0,0.0,0.0,0.0,0.0,0.0,0.0,0.0,0.0,0.0,0.0,0.0,0.0,0.0,0.0,0.0,0.0,0.0,0.0,0.0,0.0,0.0,0.0,0.0,0.0,0.0,0.0,0.0,0.0,0.0,0.0,0.0,0.0,0.0,0.0,0.0,0.0,0.0,0.0,0.0,0.0,-2.7485,-3.1741,-3.4823,-3.5101,-3.5066,-3.5011,-3.502,-3.2153,-2.5381,-2.3758,0.0,0.0,0.0,0.0,0.0,0.0,0.0,0.0,0.0,0.0,0.0,0.0,0.0,0.0,0.0,0.0,0.0,0.0,0.0,0.0,0.0,0.0,0.0,0.0,0.0,0.0,0.0,0.0,0.0,0.0,0.0,0.0,0.0,0.0,0.0,0.0,0.0,0.0,0.0,0.0,0.0,0.0,0.0,0.0,0.0,0.0,0.0,0.0,0.0,0.0,0.0,0.0,0.0,0.0,0.0,0.0,0.0,0.0,0.0,0.0,0.0,0.0,0.0,0.0,0.0,0.0,0.0,0.0,0.0,0.0,0.0,0.0,0.0,0.0,0.0,0.0,0.0,0.0,0.0,0.0,0.0,0.0,0.0,0.0,0.0,0.0,0.0,0.0,0.0,0.0,0.0,0.0,0.0,0.0,0.0,0.0,0.0,0.0,0.0,0.0,0.0,0.0,-3.1283,-3.448,-3.5035,-3.5038,-3.5011,-3.5001,-3.5011,-3.2125,-2.5348,-2.3581,0.0,0.0,0.0,0.0,0.0,0.0,0.0,0.0,0.0,0.0,0.0,0.0,0.0,0.0,0.0,0.0,0.0,0.0,0.0,0.0,0.0,0.0,0.0,0.0,0.0,0.0,0.0,0.0,0.0,0.0,0.0,0.0,0.0,0.0,0.0,0.0,0.0,0.0,0.0,0.0,0.0,0.0,0.0,0.0,0.0,0.0,0.0,0.0,0.0,0.0,0.0,0.0,0.0,0.0,0.0,0.0,0.0,0.0,0.0,0.0,0.0,0.0,0.0,0.0,0.0,0.0,0.0,0.0,0.0,0.0,0.0,0.0,0.0,0.0,0.0,0.0,0.0,0.0,0.0,0.0,0.0,0.0,0.0,0.0,0.0,0.0,0.0,0.0,0.0,0.0,0.0,0.0,0.0,0.0,0.0,0.0,0.0,0.0,0.0,0.0,0.0,0.0,-2.9116,-3.2615,-3.4854,-3.5111,-3.5075,-3.5011,-3.5066,-3.2205,-2.542,-2.4125,0.0,0.0,0.0,0.0,0.0,0.0,0.0,0.0,0.0,0.0,0.0,0.0,0.0,0.0,0.0,0.0,0.0,0.0,0.0,0.0,0.0,0.0,0.0,0.0,0.0,0.0,0.0,0.0,0.0,0.0,0.0,0.0,0.0,0.0,0.0,0.0,0.0,0.0,0.0,0.0,0.0,0.0,0.0,0.0,0.0,0.0,0.0,0.0,0.0,0.0,0.0,0.0,0.0,0.0,0.0,0.0,0.0,0.0,0.0,0.0,0.0,0.0,0.0,0.0,0.0,0.0,0.0,0.0,0.0,0.0,0.0,0.0,0.0,0.0,0.0,0.0,0.0,0.0,0.0,0.0,0.0,0.0,0.0,0.0,0.0,0.0,0.0,0.0,0.0,0.0,0.0,0.0,0.0,0.0,0.0,0.0,0.0,0.0,0.0,0.0,0.0,0.0,-3.014,-3.4044,0.0,-3.5092,-3.5084,-3.5066,-3.5084,-3.2203,-2.543,0.0,0.0,0.0,0.0,0.0,0.0,0.0,0.0,0.0,0.0,0.0,0.0,0.0,0.0,0.0,0.0,0.0,0.0,0.0,0.0,0.0,0.0,0.0,0.0,0.0,0.0,0.0,0.0,0.0,0.0,0.0,0.0,0.0,0.0,0.0,0.0,0.0,0.0,0.0,0.0,0.0,0.0,0.0,0.0,0.0,0.0,0.0,0.0,0.0,0.0,0.0,0.0,0.0,0.0,0.0,0.0,0.0,0.0,0.0,0.0,0.0,0.0,0.0,0.0,0.0,0.0,0.0,0.0,0.0,0.0,0.0,0.0,0.0,0.0,0.0,0.0,0.0,0.0,0.0,0.0,0.0,0.0,0.0,0.0,0.0,0.0,0.0,0.0,0.0,0.0,0.0,0.0,0.0,0.0,0.0,0.0,0.0,0.0,0.0,0.0,0.0,0.0,-2.4876,-3.0913,-3.5029,0.0,-3.5084,-3.5092,-3.5092,-3.502,-3.2125,-2.5412,0.0,0.0,0.0,0.0,0.0,0.0,0.0,0.0,0.0,0.0,0.0,0.0,0.0,0.0,0.0,0.0,0.0,0.0,0.0,0.0,0.0,0.0,0.0,0.0,0.0,0.0,0.0,0.0,0.0,0.0,0.0,0.0,0.0,0.0,0.0,0.0,0.0,0.0,0.0,0.0,0.0,0.0,0.0,0.0,0.0,0.0,0.0,0.0,0.0,0.0,0.0,0.0,0.0,0.0,0.0,0.0,0.0,0.0,0.0,0.0,0.0,0.0,0.0,0.0,0.0,0.0,0.0,0.0,0.0,0.0,0.0,0.0,0.0,0.0,0.0,0.0,0.0,0.0,0.0,0.0,0.0,0.0,0.0,0.0,0.0,0.0,0.0,0.0,0.0,0.0,0.0,0.0,0.0,0.0,0.0,0.0,0.0,0.0,0.0,0.0,0.0,0.0,-2.4899,-3.0952,-3.5075,-3.5011,-3.5066,-3.5092,-3.5092,-3.486,-3.1919,0.0,0.0,0.0,0.0,0.0,0.0,0.0,0.0,0.0,0.0,0.0,0.0,0.0,0.0,0.0,0.0,0.0,0.0,0.0,0.0,0.0,0.0,0.0,0.0,0.0,0.0,0.0,0.0,0.0,0.0,0.0,0.0,0.0,0.0,0.0,0.0,0.0,0.0,0.0,0.0,0.0,0.0,0.0,0.0,0.0,0.0,0.0,0.0,0.0,0.0,0.0,0.0,0.0,0.0,0.0,0.0,0.0,0.0,0.0,0.0,0.0,0.0,0.0,0.0,0.0,0.0,0.0,0.0,0.0,0.0,0.0,0.0,0.0,0.0,0.0,0.0,0.0,0.0,0.0,0.0,0.0,0.0,0.0,0.0,0.0,0.0,0.0,0.0,0.0,0.0,0.0,0.0,0.0,0.0,0.0,0.0,0.0,0.0,0.0,0.0,0.0,0.0,0.0,-2.4941,-3.0937,-3.5066,-3.5138,-3.5155,-3.5172,-3.5168,-3.5091,-3.2203,-2.5482,0.0,0.0,0.0,0.0,0.0,0.0,0.0,0.0,0.0,0.0,0.0,0.0,0.0,0.0,0.0,0.0,0.0,0.0,0.0,0.0,0.0,0.0,0.0,0.0,0.0,0.0,0.0,0.0,0.0,0.0,0.0,0.0,0.0,0.0,0.0,0.0,0.0,0.0,0.0,0.0,0.0,0.0,0.0,0.0,0.0,0.0,0.0,0.0,0.0,0.0,0.0,0.0,0.0,0.0,0.0,0.0,0.0,0.0,0.0,0.0,0.0,0.0,0.0,0.0,0.0,0.0,0.0,0.0,0.0,0.0,0.0,0.0,0.0,0.0,0.0,0.0,0.0,0.0,0.0,0.0,0.0,0.0,0.0,0.0,0.0,0.0,0.0,0.0,0.0,0.0,0.0,0.0,0.0,0.0,0.0,0.0,0.0,0.0,0.0,0.0,0.0,0.0,-2.4935,-3.0839,-3.487,-3.4945,-3.4879,-3.4841,-3.4841,-3.4763,-3.2439,-2.7064,0.0,0.0,0.0,0.0,0.0,0.0,0.0,0.0,0.0,0.0,0.0,0.0,0.0,0.0,0.0,0.0,0.0,0.0,0.0,0.0,0.0,0.0,0.0,0.0,0.0,0.0,0.0,0.0,0.0,0.0,0.0,0.0,0.0,0.0,0.0,0.0,0.0,0.0,0.0,0.0,0.0,0.0,0.0,0.0,0.0,0.0,0.0,0.0,0.0,0.0,0.0,0.0,0.0,0.0,0.0,0.0,0.0,0.0,0.0,0.0,0.0,0.0,0.0,0.0,0.0,0.0,0.0,0.0,0.0,0.0,0.0,0.0,0.0,0.0,0.0,0.0,0.0,0.0,0.0,0.0,0.0,0.0,0.0,0.0,0.0,0.0,0.0,0.0,0.0,0.0,0.0,0.0,0.0,0.0,0.0,0.0,0.0,0.0,0.0,0.0,0.0,0.0,-2.4971,-3.0746,-3.4703,-3.4703,-3.4469,-3.4311,-3.4323,-3.4148,-3.2661,-2.9421,0.0,0.0,0.0,0.0,0.0,0.0,0.0,0.0,0.0,0.0,0.0,0.0,0.0,0.0,0.0,0.0,0.0,0.0,0.0,0.0,0.0,0.0,0.0,0.0,0.0,0.0,0.0,0.0,0.0,0.0,0.0,0.0,0.0,0.0,0.0,0.0,0.0,0.0,0.0,0.0,0.0,0.0,0.0,0.0,0.0,0.0,0.0,0.0,0.0,0.0,0.0,0.0,0.0,0.0,0.0,0.0,0.0,0.0,0.0,0.0,-2.8055,0.0,0.0,0.0,0.0,0.0,0.0,0.0,0.0,0.0,0.0,0.0,0.0,0.0,0.0,0.0,0.0,0.0,0.0,0.0,0.0,0.0,0.0,0.0,0.0,0.0,0.0,0.0,0.0,0.0,0.0,0.0,0.0,0.0,0.0,0.0,0.0,0.0,0.0,0.0,0.0,0.0,-2.5662,-3.1449,-3.5415,-3.5454,-3.4768,-3.4345,-3.4445,-3.4375,-3.2918,-2.9639,0.0,0.0,0.0,0.0,0.0,0.0,0.0,0.0,0.0,0.0,0.0,0.0,0.0,0.0,0.0,0.0,0.0,0.0,0.0,0.0,0.0,0.0,0.0,0.0,0.0,0.0,0.0,0.0,0.0,0.0,0.0,0.0,0.0,0.0,0.0,0.0,0.0,0.0,0.0,0.0,0.0,0.0,0.0,0.0,0.0,0.0,0.0,0.0,0.0,0.0,0.0,0.0,0.0,0.0,0.0,0.0,0.0,0.0,0.0,0.0,0.0,-3.0537,0.0,0.0,0.0,0.0,0.0,0.0,0.0,0.0,0.0,0.0,0.0,0.0,0.0,0.0,0.0,0.0,0.0,0.0,0.0,0.0,0.0,0.0,0.0,0.0,0.0,0.0,0.0,0.0,0.0,0.0,0.0,0.0,0.0,0.0,0.0,0.0,0.0,0.0,0.0,0.0,-2.6494,-3.2141,-3.585,-3.5492,-3.4908,-3.4406,-3.4093,-3.4049,-3.329,-3.1567,-2.9266,0.0,0.0,0.0,0.0,0.0,0.0,0.0,0.0,0.0,0.0,0.0,0.0,0.0,0.0,0.0,0.0,0.0,0.0,0.0,0.0,0.0,0.0,0.0,0.0,0.0,0.0,0.0,0.0,0.0,0.0,0.0,0.0,0.0,0.0,0.0,0.0,0.0,0.0,0.0,0.0,0.0,0.0,0.0,0.0,0.0,0.0,0.0,0.0,0.0,0.0,0.0,0.0,0.0,0.0,-3.3112,-3.3171,-3.3088,-3.3508,-3.448,-3.7442,-3.7061,-3.4326,0.0,0.0,0.0,0.0,0.0,0.0,0.0,0.0,0.0,0.0,0.0,0.0,0.0,0.0,0.0,0.0,0.0,0.0,0.0,0.0,0.0,0.0,0.0,0.0,0.0,-3.1981,-3.2291,0.0,0.0,0.0,0.0,0.0,0.0,0.0,0.0,0.0,0.0,0.0,0.0,-2.7555,-3.2937,-3.6325,-3.567,-3.5251,-3.4724,-3.3921,-3.3834,-3.3779,-3.3647,-3.0564,-2.8517,0.0,0.0,0.0,0.0,0.0,0.0,0.0,0.0,0.0,0.0,0.0,0.0,0.0,0.0,0.0,0.0,0.0,0.0,0.0,0.0,0.0,0.0,0.0,0.0,0.0,0.0,0.0,0.0,0.0,0.0,0.0,0.0,-2.641,-2.9469,0.0,0.0,0.0,0.0,0.0,0.0,0.0,0.0,0.0,0.0,0.0,0.0,0.0,0.0,-3.5464,-3.7573,-3.8575,-3.8483,-3.8826,-3.9136,-3.939,-3.8995,-3.926,-4.0026,-4.0288,0.0,-3.5956,-3.4579,0.0,0.0,0.0,0.0,0.0,0.0,0.0,0.0,0.0,0.0,0.0,0.0,0.0,0.0,0.0,0.0,0.0,0.0,0.0,0.0,0.0,0.0,-3.7245,-3.7437,-3.6774,-3.6298,0.0,-3.1869,-2.6814,-2.6228,0.0,0.0,0.0,0.0,0.0,0.0,0.0,0.0,-2.9084,-3.4012,-3.732,-3.721,-3.6446,-3.5634,-3.4871,-3.4769,-3.4458,-3.3817,-3.328,-3.1776,-2.9041,-3.1404,0.0,0.0,0.0,0.0,0.0,0.0,0.0,0.0,0.0,0.0,0.0,0.0,0.0,0.0,0.0,0.0,0.0,0.0,0.0,0.0,0.0,0.0,0.0,0.0,0.0,0.0,0.0,0.0,0.0,-2.6587,-2.9553,-3.2834,-3.2133,-3.0279,0.0,0.0,0.0,0.0,0.0,0.0,0.0,0.0,0.0,-3.5125,-3.6671,-3.7849,-3.8618,-3.9976,-4.0672,-4.0672,-4.0758,-4.0873,-4.0921,-4.0718,-4.0805,-4.1095,-4.0993,-4.0201,-3.8967,-3.7878,-3.6325,-3.445,0.0,0.0,0.0,0.0,0.0,-3.1851,-3.4128,0.0,0.0,0.0,0.0,0.0,0.0,0.0,0.0,0.0,0.0,0.0,0.0,0.0,0.0,-3.8407,-3.8254,-3.7973,-3.8573,-3.5919,-3.2914,0.0,-2.9861,-2.7566,-2.3253,0.0,0.0,0.0,0.0,0.0,-3.1976,-3.5668,-3.7991,-3.7547,-3.7132,-3.6567,-3.5793,-3.5251,-3.4811,-3.4491,-3.3982,-3.3076,-3.168,-3.2714,-3.0659,0.0,0.0,0.0,0.0,0.0,0.0,0.0,0.0,0.0,0.0,0.0,0.0,0.0,0.0,0.0,0.0,0.0,0.0,0.0,0.0,0.0,0.0,0.0,0.0,0.0,0.0,0.0,0.0,-2.941,-3.1862,-3.5614,-3.5169,-3.3802,0.0,0.0,0.0,0.0,0.0,0.0,-3.4804,-3.6202,-3.7644,-3.9101,-4.0102,-4.0908,-4.1501,-4.2307,-4.2702,-4.2702,-4.2667,-4.2601,-4.2502,-4.2486,-4.2277,-4.1962,-4.2266,-4.2103,-4.1525,-4.0693,-3.8914,-3.6689,-3.6519,-3.5417,-3.4074,-3.515,-3.5132,-3.4946,-3.7446,-3.7774,-3.7271,-3.8514,0.0,-3.433,-3.4383,0.0,0.0,0.0,0.0,-3.278,-3.5304,0.0,-3.6602,-3.8312,-3.8707,-3.8707,-3.8707,-3.8331,-3.7455,0.0,-3.4381,-3.2043,-2.7137,0.0,0.0,0.0,0.0,-3.3456,-3.4321,-3.6929,-3.8469,-3.7878,-3.7823,-3.7492,-3.667,-3.6009,-3.5463,-3.5041,-3.4338,-3.3848,-3.3605,-3.3357,-3.1849,-2.8915,0.0,0.0,0.0,0.0,0.0,0.0,0.0,0.0,0.0,0.0,0.0,0.0,0.0,0.0,0.0,0.0,0.0,0.0,0.0,0.0,0.0,0.0,0.0,0.0,0.0,0.0,0.0,0.0,0.0,-3.7022,-3.8294,0.0,0.0,0.0,0.0,-3.4992,-3.5892,-3.7477,-3.9814,-4.0799,-4.1683,-4.2519,-4.4135,-4.5008,-4.5045,-4.5844,-4.6252,-4.6236,-4.6116,-4.6047,-4.6047,-4.5981,-4.533,-4.4309,-4.5457,-4.48,-4.2814,-4.1563,-4.0946,-4.0742,-4.0093,-3.9812,-3.9715,-3.9161,-3.8809,-3.8631,-3.8873,-3.8785,-3.8612,-3.8686,-3.7084,-3.5195,-3.5448,-3.4302,0.0,0.0,-3.5225,-3.6496,-3.7445,-3.8102,-3.8557,-3.867,-3.8707,-3.8707,-3.8707,-3.8331,-3.8093,0.0,-3.8044,-3.6814,-3.4059,0.0,-3.2985,-3.0781,-3.2476,-3.4358,-3.5218,-3.7308,-3.8689,-3.8652,-3.8634,-3.8303,-3.7511,-3.7401,-3.6688,-3.5096,-3.4954,-3.4531,-3.3642,-3.3591,-3.3339,-3.2829,-2.9237,0.0,0.0,0.0,0.0,0.0,0.0,0.0,0.0,0.0,0.0,0.0,0.0,0.0,0.0,0.0,0.0,0.0,0.0,0.0,0.0,0.0,0.0,0.0,0.0,0.0,0.0,0.0,0.0,-3.8975,-3.9723,0.0,0.0,-3.9347,-3.97,-3.9393,-4.1148,-4.2612,-4.3472,-4.4302,-4.4878,-4.5175,-4.5482,-4.5621,-4.5621,-4.5915,-4.6044,-4.6044,-4.6306,-4.6255,-4.5901,-4.5883,-4.559,-4.5129,-4.5553,-4.5498,-4.502,-4.4573,-4.3379,-4.1791,-4.1032,-4.0751,-4.0746,-4.0514,-4.0369,-4.0323,-4.0338,-4.0294,-4.0233,-4.0233,-3.9693,-3.9019,-3.911,-3.8719,-3.8309,-3.8623,-3.8722,-3.8788,-3.908,-3.8931,-3.8707,-3.8707,-3.8707,-3.8707,-3.8707,-3.8567,-3.8512,-3.8664,-3.8326,-3.7163,-3.4556,-3.5761,-3.6117,-3.3336,-3.5284,-3.7178,-3.7483,-3.8213,-3.8707,-3.8707,-3.8707,-3.8579,-3.8303,-3.7804,-3.6971,-3.5718,-3.5082,-3.4357,-3.3517,-3.3253,-3.3132,-3.3101,-3.1691,-2.8066,0.0,0.0,0.0,0.0,0.0,0.0,0.0,0.0,0.0,0.0,0.0,0.0,0.0,0.0,0.0,0.0,0.0,0.0,0.0,0.0,0.0,0.0,0.0,0.0,0.0,0.0,-3.7197,-3.9889,-4.0778,-4.1282,-4.159,-4.2352,-4.2946,-4.3225,-4.4766,-4.5807,-4.6104,-4.6865,-4.7423,-4.7701,-4.7699,-4.7592,-4.7424,-4.7424,-4.7348,-4.7192,-4.7499,-4.7536,-4.7348,-4.7348,-4.6871,-4.6064,-4.6782,-4.6599,-4.5865,-4.6268,-4.5297,-4.3506,-4.2793,-4.2623,-4.2688,-4.195,-4.1766,-4.1827,-4.1279,-4.1095,-4.1095,-4.1095,-4.1095,-4.1095,-4.1095,-4.1095,-4.1095,-4.1095,-4.0726,-4.0304,-4.0304,-3.9918,-3.9515,-3.9515,-3.9515,-3.9515,-3.9515,-3.9372,-3.9212,-3.9108,-3.8644,-3.7721,-3.6099,-3.7262,-3.7785,-3.5832,-3.7041,-3.8039,-3.7752,-3.8145,-3.8313,-3.8011,-3.8419,-3.8707,-3.8707,-3.7496,-3.6691,-3.6519,-3.4892,-3.3916,-3.3806,-3.231,-3.1498,-3.156,-3.1041,-2.8502,-2.3837,0.0,0.0,0.0,0.0,0.0,0.0,0.0,0.0,0.0,0.0,0.0,0.0,0.0,0.0,0.0,0.0,0.0,0.0,0.0,0.0,0.0,0.0,0.0,-3.2611,-3.554,-3.8287,-3.9793,-4.1633,-4.3135,-4.3989,-4.4896,-4.5732,-4.6496,-4.6607,-4.696,-4.7742,-4.8466,-4.9244,-5.0024,-5.086,-5.1064,-5.0525,-5.058,-5.0352,-4.9915,-4.9915,-5.0159,-5.0598,-5.0597,-4.9332,-4.7297,-4.9325,-4.8309,-4.5351,-4.6533,-4.6686,-4.6122,-4.5528,-4.5625,-4.5809,-4.3686,-4.3196,-4.3368,-4.1791,-4.1258,-4.1242,-4.1242,-4.1224,-4.1205,-4.1205,-4.1187,-4.1168,-4.1168,-4.115,-4.1132,-4.1132,-4.1113,-4.1095,-4.1095,-4.1095,-4.1095,-4.1095,-4.0702,-4.0244,-3.9982,-3.9313,-3.8844,-3.9149,-3.8484,-3.804,-3.8362,-3.7686,0.0,-3.5993,-3.7081,-3.7595,-3.676,-3.7856,-3.8652,-3.8707,-3.6639,-3.5959,-3.7415,-3.4562,-3.3376,-3.4598,-3.0929,-2.8809,-2.8657,-2.731,-2.804,-3.0857,0.0,0.0,0.0,0.0,0.0,0.0,0.0,0.0,0.0,0.0,0.0,0.0,0.0,0.0,0.0,0.0,0.0,0.0,0.0,0.0,0.0,0.0,-3.7775,-3.657,-3.8852,-4.1313,-4.3132,-4.4214,-4.5071,-4.5755,-4.7088,-4.786,-4.774,-4.8807,-4.9426,-4.9302,-4.8726,-4.8494,-4.8715,-4.8991,-4.9082,-4.8929,-5.0086,-5.0613,-5.049,-5.0433,-5.0495,-5.0674,-5.0326,-4.9813,-4.9231,-4.9812,-4.9486,-4.8631,-4.9314,-4.9159,-4.8285,-4.6239,-4.5549,-4.5626,-4.5351,-4.5312,-4.5329,-4.4938,-4.4703,-4.458,-4.458,-4.4195,-4.37,-4.37,-4.3296,-4.2837,-4.2837,-4.2415,-4.1974,-4.1974,-4.1535,-4.1095,-4.1095,-4.1095,-4.1095,-4.1095,-4.0974,-4.0859,-4.0779,-4.0581,-4.0097,-3.9021,-3.8634,-3.8516,-3.8608,-3.8423,0.0,-3.7923,-3.8235,-3.8394,-3.8147,-3.7558,-3.7581,-3.8612,-3.7184,-3.655,0.0,-3.6358,-3.5724,-3.5489,-3.3674,-3.2412,-3.1851,-2.8715,-2.7513,0.0,0.0,0.0,0.0,0.0,0.0,0.0,0.0,0.0,0.0,0.0,0.0,0.0,0.0,0.0,0.0,0.0,0.0,0.0,0.0,0.0,0.0,-3.7716,-4.0703,-4.0446,-4.1674,-4.3174,-4.469,-4.5916,-4.68,-4.7202,-4.8679,-4.9584,-4.9528,-5.0202,-5.0723,-5.1007,-5.0387,-5.0026,-5.0026,-5.022,-5.0041,-4.9492,-5.054,-5.0977,-5.0772,-5.0731,-5.0846,-5.1066,-5.0795,-5.0412,0.0,-5.054,-5.0261,-4.9448,-5.0095,-4.9971,0.0,0.0,0.0,0.0,0.0,-4.6305,-4.6119,-4.6135,-4.6028,-4.5902,-4.5902,-4.5571,-4.5204,-4.5204,-4.4723,-4.4165,-4.4165,-4.364,-4.3151,-4.3406,-4.2875,-4.2327,-4.256,-4.2359,-4.2121,-4.2121,-4.1926,-4.1751,-4.1623,0.0,0.0,-3.9898,-3.9237,-3.8917,-3.9064,-3.8483,-3.7899,0.0,-3.7998,-3.8241,-3.7895,-3.766,-3.7839,-3.8631,-3.7059,0.0,0.0,0.0,-3.5066,-3.388,-3.3225,0.0,0.0,0.0,-2.8089,-2.8974,0.0,0.0,0.0,-2.5739,-2.4369,0.0,0.0,0.0,0.0,0.0,0.0,0.0,0.0,0.0,0.0,0.0,0.0,0.0,0.0,0.0,0.0,-4.0088,-4.2369,-4.3973,-4.4076,-4.4306,-4.5209,-4.6935,-4.8201,-4.8544,-4.9843,-5.0844,-5.1324,-5.0956,-5.1204,-5.2354,0.0,0.0,0.0,0.0,-5.216,-5.0972,-5.1431,-5.1467,-5.107,-5.1008,-5.1219,-5.1676,-5.1626,-5.1053,-5.0155,-5.1344,-5.0769,-4.9005,-4.9852,-4.9883,-4.9377,-4.892,-4.8553,-4.8151,-4.7396,-4.6781,0.0,0.0,0.0,0.0,-4.6177,-4.6122,-4.6067,-4.603,-4.5639,-4.5181,-4.5181,-4.4788,-4.4504,-4.5062,-4.4663,-4.4245,-4.4725,-4.4287,-4.3753,-4.3662,-4.3273,-4.2831,-4.2502,-4.2055,-4.1665,-4.1401,-4.024,-3.9434,-3.972,-3.8432,-3.7137,-3.6366,-3.7262,-3.7718,-3.7004,0.0,0.0,-3.8686,-3.6708,-3.6311,-3.83,-3.5721,-3.3392,-3.1819,-3.1733,-3.0869,-2.8994,-2.8967,-2.9895,-3.1805,-3.1709,-3.225,-3.3152,-2.7586,-2.6406,0.0,0.0,0.0,0.0,0.0,0.0,0.0,0.0,0.0,0.0,0.0,0.0,0.0,0.0,0.0,-3.8715,-4.1548,-4.4195,-4.5853,-4.5864,-4.5929,-4.6489,-4.7374,-4.8519,-5.0004,-5.0669,-5.106,-5.1148,-5.1295,-5.1357,-5.1228,-5.0361,0.0,-4.9849,-5.029,-5.0383,-5.0132,-5.1478,-5.2112,-5.2018,0.0,0.0,-5.2159,-5.1782,-5.1465,-5.1278,-5.1562,-5.1226,-5.0513,-5.1052,-5.086,-5.0157,-4.9852,-4.9492,-4.9128,-4.9079,-4.8489,-4.7715,-4.7792,-4.7715,-4.7654,-4.7903,-4.7574,-4.7003,-4.6911,-4.6342,0.0,-4.5753,-4.566,-4.5585,-4.5698,-4.5643,-4.5551,-4.5644,-4.5553,-4.5259,-4.4617,-4.4377,-4.4099,-4.3404,-4.3163,-4.3105,-4.3037,-4.173,-4.0743,-4.08,-3.9985,-3.9287,-3.9124,-3.8785,-3.8497,-3.8335,-3.7549,-3.7498,-3.8681,-3.7335,-3.7057,-3.8548,-3.7751,-3.6759,-3.574,-3.5704,-3.5258,-3.4335,-3.4255,-3.4431,-3.4857,-3.4728,-3.4778,-3.4934,-3.2391,-3.1473,0.0,0.0,0.0,0.0,0.0,0.0,0.0,0.0,0.0,0.0,0.0,-3.4748,-3.623,0.0,-4.0317,-4.1466,-4.3819,-4.5875,-4.696,-4.7259,-4.7512,-4.7939,-4.8687,-4.9508,-5.0403,-5.1014,-5.1459,-5.1678,-5.1646,-5.1601,-5.1583,-5.1053,-5.0563,-5.0168,-5.0545,-5.0557,-5.0162,-5.1111,-5.1583,-5.1601,-5.1357,-5.1383,-5.1583,-5.1357,-5.1245,-5.1245,-5.1493,-5.1485,-5.1271,-5.1493,-5.1236,-5.0606,-5.0331,-4.983,-4.9347,-4.9685,-4.9316,-4.8718,-4.8741,-4.8561,-4.8288,-4.8267,-4.8125,-4.7942,-4.7831,-4.7316,-4.6724,-4.6706,-4.6481,-4.6328,-4.6614,-4.6394,-4.6174,-4.6434,-4.6195,-4.5792,-4.5388,-4.5296,-4.5057,-4.4268,-4.4103,-4.3975,-4.357,-4.2818,-4.2158,-4.1772,-4.102,-4.0359,-3.9937,-3.9454,-3.9051,-3.8771,-3.7963,-3.7783,-3.8579,-3.7911,-3.7726,-3.8417,-3.8256,-3.7958,-3.7528,-3.751,-3.7147,-3.6417,-3.6367,-3.6152,-3.5754,-3.5656,-3.5606,-3.5588,-3.4632,-3.4175,0.0,0.0,0.0,0.0,0.0,0.0,0.0,0.0,-3.6431,-3.714,-3.7427,-3.8078,-3.9803,-4.123,-4.2685,-4.4256,-4.5939,-4.7264,-4.7914,-4.8414,-4.8905,-4.9376,-4.9916,-5.036,-5.0602,-5.1126,-5.1676,-5.2112,-5.1732,-5.1626,-5.2012,-5.2036,-5.1748,-5.1094,-5.1312,-5.1157,-5.051,-5.077,-5.0891,-5.0891,-5.0891,-5.0891,-5.0891,-5.0891,-5.0891,-5.0918,-5.1297,-5.1467,-5.1467,-5.1467,-5.1245,-5.0874,-5.0596,-5.0115,-4.9553,-4.9775,-4.9626,-4.9315,-4.9401,-4.909,-4.8585,-4.8449,-4.8493,-4.8624,-4.8532,-4.818,-4.7784,-4.7662,-4.7302,-4.7066,-4.7495,-4.7147,-4.6797,-4.7224,-4.6838,-4.6324,-4.6177,-4.614,-4.5902,-4.5094,-4.4947,-4.4673,-4.383,-4.3665,-4.3426,-4.2653,-4.1864,-4.1111,-4.0451,-4.0099,-3.9646,-3.9029,-3.8736,-3.8569,-3.8512,-3.8322,-3.8224,-3.8241,-3.8207,-3.8209,-3.8209,-3.8209,-3.7901,-3.7249,-3.723,-3.6906,-3.6256,-3.6206,-3.6192,-3.6174,-3.6056,-3.5779,-3.4481,-3.2936,-3.2634,-3.3733,-3.5864,-3.8311,0.0,0.0,-4.1954,-4.1885,-4.2155,-4.2538,-4.2938,-4.385,-4.4834,-4.5813,-4.685,-4.7967,-4.9275,-4.953,-4.9846,-5.062,-5.0154,-5.0214,-5.1355,-5.1166,-5.1158,-5.1651,-5.1245,-5.1008,-5.1043,-5.1043,-5.1008,-5.092,-5.0955,-5.0946,-5.0858,-5.0865,-5.0891,-5.0891,-5.0891,-5.0891,-5.0891,-5.0891,-5.0891,-5.0918,-5.0972,-5.0981,-5.0981,-5.0981,-5.0945,-5.0918,-5.0866,-5.0787,-5.0594,-4.9708,-4.9311,-4.9292,-4.9766,-4.9376,-4.8813,-4.9545,-4.9325,-4.875,-4.8624,-4.855,-4.8439,-4.8196,-4.8198,-4.8237,-4.8006,-4.8008,-4.8105,-4.8159,-4.8104,-4.7847,-4.7113,-4.6966,-4.6727,-4.592,-4.5773,-4.5443,-4.4474,-4.4291,-4.409,-4.3462,-4.2671,-4.2139,-4.2047,-4.1389,-4.0571,-3.9615,-3.9595,-3.9319,-3.8564,-3.837,-3.8305,-3.8366,-3.8274,-3.8209,-3.8209,-3.8209,-3.8172,-3.8064,-3.8064,-3.8028,-3.7937,-3.792,-3.792,-3.792,-3.7765,-3.6907,-3.8157,0.0,0.0,0.0,-4.032,-4.1851,-4.2836,-4.3605,-4.3974,-4.3457,-4.3712,-4.415,-4.4541,-4.5049,-4.5741,0.0,-4.7621,-4.8551,-4.9652,-4.9985,-5.0297,-5.0855,-5.0417,-5.0328,-5.0855,-5.0893,-5.0903,-5.0902,-5.0911,-5.0891,-5.0891,-5.0972,-5.1025,-5.1025,-5.1088,-5.1141,-5.1141,-5.1052,-5.1025,-5.1025,-5.0945,-5.0891,-5.0891,-5.0891,-5.0891,-5.0891,-5.0891,-5.0891,-5.0891,-5.0891,-5.0891,-5.0838,-5.0364,-5.0496,-5.0884,-5.0713,-5.0193,-4.9661,-5.0098,-4.9952,-4.9613,-4.9916,-4.9802,-4.9544,-4.9454,-4.8901,-4.8345,-4.842,-4.8247,-4.8048,-4.809,-4.8072,-4.7994,-4.797,-4.7949,-4.7858,-4.751,-4.7539,-4.738,-4.6576,-4.6506,-4.6268,-4.5276,-4.471,-4.4272,-4.3907,-4.3269,-4.2646,-4.2188,-4.1718,-4.0869,-3.9336,-3.9385,-3.9144,-3.8227,-3.8156,-3.8138,-3.817,-3.8191,-3.8209,-3.8209,-3.8209,-3.8209,-3.8209,-3.8209,-3.8209,-3.8209,-3.8209,-3.8209,-3.8209,-3.814,-3.7676,-4.0204,0.0,0.0,-4.1892,-4.2916,-4.3777,-4.409,-4.4602,-4.4851,-4.4295,-4.4527,-4.4948,-4.539,-4.5814,-4.6436,-4.7417,-4.8241,-4.9021,-4.9793,-5.0105,-5.0338,-5.0611,-5.0413,-5.0238,-5.0126,-5.0502,-5.0716,-5.0609,-5.0823,-5.0972,-5.1025,-5.1105,-5.1158,-5.1158,-5.1246,-5.1298,-5.1246,-5.1158,-5.1079,-5.1052,-5.0945,-5.0891,-5.0891,-5.0891,-5.0891,-5.0891,-5.0792,-5.0764,-5.0764,-5.0655,-5.061,-5.0557,-4.9981,-5.0175,-5.0819,-5.1149,-5.083,-5.0214,-5.0603,-5.0462,-5.0145,-5.0177,-5.0007,-4.9798,-4.9815,-4.9107,-4.8249,-4.8349,-4.8,-4.7642,-4.7809,-4.7731,-4.765,-4.7765,-4.7744,-4.7723,-4.7723,-4.7827,-4.7747,-4.7163,-4.7213,-4.7016,-4.5941,-4.5324,-4.4811,-4.4317,-4.3732,-4.3104,-4.2395,-4.1942,-4.1198,-3.9878,-3.9391,-3.894,-3.8311,-3.8059,-3.7932,-3.7967,-3.8054,-3.8141,-3.814,-3.8139,-3.8157,-3.8209,-3.8209,-3.8209,-3.8209,-3.8209,-3.8209,-3.8209,-3.8209,-3.8157,0.0,0.0,-4.0465,-4.0993,-4.2181,-4.3508,-4.4521,-4.4896,-4.5005,-4.4971,-4.5159,-4.5415,-4.5572,-4.6343,-4.7213,-4.797,-4.8692,-4.9347,-4.9844,-4.9907,-4.9916,-4.995,-4.993,-4.9787,0.0,-5.0023,-5.0609,-5.1044,-5.1105,-5.1158,-5.1298,-5.1298,-5.1298,-5.1298,-5.1298,-5.1246,-5.1105,-5.1105,-5.1025,-5.0918,-5.0891,-5.0891,-5.0891,-5.0891,-5.0891,-5.0891,-5.0554,-5.0415,-5.0387,-5.0068,-4.9924,-4.9924,-4.9907,-5.0126,-5.0415,-5.0425,-5.062,-5.0946,-5.1398,-5.083,-4.9986,-5.051,-4.9937,-4.9067,-4.9326,-4.9037,-4.8471,-4.7966,-4.7631,-4.7338,-4.7004,-4.7075,-4.7363,-4.7872,-4.7893,-4.7793,-4.7793,-4.7747,-4.7699,-4.7681,-4.7832,-4.7579,-4.6383,-4.6308,-4.6001,-4.4782,-4.4139,-4.361,-4.314,-4.2268,-4.1724,-4.1796,-4.0058,-3.8977,-3.9157,-3.8277,-3.7757,-3.7899,-3.7899,-3.7933,-3.8001,-3.8001,-3.8053,-3.8209,-3.8209,-3.8209,-3.8209,-3.8209,-3.8209,-3.8209,-3.8209,-3.8209,0.0,0.0,-4.1771,-4.2345,-4.3314,-4.4238,-4.4574,-4.4776,-4.4886,-4.4978,-4.5053,-4.5005,-4.462,-4.5129,-4.5893,-4.6758,-4.7294,-4.8143,-4.9683,-4.9604,-4.9565,-5.015,-4.9796,0.0,0.0,0.0,0.0,-5.0424,-5.0858,-5.1158,-5.1298,-5.1376,-5.1402,-5.1281,-5.1376,-5.1376,-5.122,-5.1132,-5.1079,-5.1025,-5.071,-5.0554,-5.0554,-5.0554,-5.0682,-5.0891,-5.0764,-5.0627,-5.0387,-5.0285,-5.0114,-4.9895,-4.9895,-4.9953,-5.0086,-5.0086,-5.0143,-5.0313,-5.0919,-5.0823,-5.0497,-5.085,-5.045,-4.9822,-4.9894,-4.9214,-4.8433,-4.8561,-4.8225,-4.7696,-4.7314,-4.7183,-4.7036,-4.6643,-4.6495,-4.6566,-4.6926,-4.7084,-4.728,-4.7636,-4.75,-4.7288,-4.7086,-4.6305,-4.5485,-4.4818,-4.4196,-4.3568,-4.2969,-4.2646,-4.2285,-4.1759,-4.1105,-4.0509,-4.0023,-3.9158,-3.8654,-3.869,-3.8204,-3.7916,-3.7933,-3.7984,-3.7897,-3.7685,-3.7703,-3.7739,-3.7739,-3.7739,-3.7898,-3.8209,-3.8209,-3.8037,0.0,-4.2401,-4.2798,-4.3638,-4.4306,-4.472,-4.472,-4.4886,-4.5032,-4.5059,-4.5096,-4.4778,-4.3541,-4.3946,-4.4706,-4.5418,-4.5993,-4.7095,-4.9262,-4.9292,-4.9264,-4.9813,-4.9495,0.0,0.0,0.0,0.0,-5.0272,-5.0588,-5.0864,-5.1111,-5.1094,-5.1142,-5.1307,-5.1281,-5.1228,-5.122,-5.1132,-5.1079,-5.1025,-5.061,-5.0415,-5.0415,-5.0285,-5.0352,-5.0541,-5.046,-5.0324,-5.0183,-4.9993,-4.9854,-4.9737,-4.9649,-4.9649,-4.9767,-4.9767,-4.9808,-4.9953,-5.0369,-5.0418,-5.0293,-5.0452,-5.0167,-4.9783,-4.9908,-4.924,-4.8503,-4.8706,-4.8338,-4.781,-4.7535,-4.7378,-4.7187,-4.6812,-4.6498,-4.6357,-4.6706,-4.6791,-4.6835,-4.6989,-4.6981,-4.6945,-4.6903,-4.6112,-4.5299,-4.4789,-4.4524,-4.402,-4.3106,-4.2793,-4.2358,-4.158,-4.1411,-4.1112,-4.0554,-3.9911,-3.9462,-3.9295,-3.8525,-3.8005,-3.7894,-3.7829,-3.7613,-3.7226,-3.7414,-3.7432,-3.7302,-3.7302,-3.745,-3.7739,-3.788,-3.7703,-4.2928,-4.3367,-4.3476,-4.4683,-4.4978,-4.4978,-4.4978,-4.5177,-4.5302,-4.5041,-4.5069,-4.4432,0.0,0.0,-4.3533,-4.3898,-4.4811,-4.631,-4.8663,-4.8992,-4.9001,0.0,0.0,0.0,0.0,0.0,0.0,-5.049,0.0,-5.0293,-5.0755,-5.0477,-5.0591,-5.1211,-5.0928,-5.0865,-5.1052,-5.1052,-5.0998,-5.0819,-5.0526,-5.0387,-5.0341,-5.0011,-4.9889,-4.9889,-4.9637,-4.9647,-4.9828,-4.9277,-4.9216,-4.9458,-4.9124,-4.9185,-4.9488,-4.9488,-4.9649,-4.9837,-4.9837,-4.9708,-4.9518,-4.9518,-4.9277,-4.9063,-4.9367,-4.9118,-4.8678,-4.847,-4.8072,-4.7651,-4.7634,-4.7617,-4.7738,-4.8198,-4.771,-4.7108,-4.7134,-4.685,-4.6451,-4.5965,-4.6387,-4.6631,-4.587,-4.5786,-4.5542,-4.4786,-4.5069,-4.486,-4.3454,-4.2671,-4.2005,-4.137,-4.1086,-4.0887,-4.0745,-4.0453,-4.01,-3.9648,-3.8868,-3.8267,-3.7958,-3.7623,-3.7312,-3.6963,-3.7298,-3.7299,-3.6893,-3.6878,-3.686,-3.69,-3.7302,-3.7247,-4.3442,-4.4254,-4.4536,-4.4663,-4.4709,-4.4709,-4.4709,-4.4831,-4.4399,-4.24,-4.1782,-4.0656,0.0,0.0,0.0,-4.1644,-4.3656,0.0,-4.8487,-4.8809,0.0,-4.9183,0.0,-4.9338,-4.9629,-4.9562,0.0,0.0,-4.9984,-5.0225,-5.0495,-5.0441,-5.0375,-5.0401,-5.0317,-5.025,-5.02,-5.0453,-5.0331,-4.9872,-4.9971,-4.9913,-4.9725,-4.9619,-4.9705,-4.9899,-4.9838,-4.9717,-4.9602,-4.9445,-4.9277,-4.9124,-4.9032,-4.9063,-4.9124,-4.9124,-4.9185,-4.9229,-4.9229,-4.9367,-4.9518,-4.9518,-4.9277,-4.9001,-4.9094,-4.9033,-4.891,-4.8866,-4.8761,-4.8502,-4.7959,-4.7806,-4.7729,-4.7295,-4.7051,-4.6982,-4.7382,-4.6966,-4.6587,-4.68,-4.6477,-4.5943,-4.5258,-4.5511,-4.5767,-4.5676,-4.525,-4.4418,-4.2898,-4.289,-4.2605,-4.1574,-4.1306,-4.1179,-4.1157,-4.039,-3.9927,-3.9905,-3.9042,-3.8499,-3.843,-3.845,-3.82,-3.7655,-3.7288,-3.7077,-3.6986,-3.6525,-3.6457,-3.6746,-3.696,-3.6841,-4.3937,-4.4595,-4.4776,-4.4626,-4.4682,-4.4463,-4.3251,-4.3074,-4.2316,-3.9289,-3.8723,0.0,0.0,0.0,0.0,0.0,0.0,0.0,-4.7778,-4.8213,-4.8295,0.0,-4.8531,0.0,-4.944,-4.935,-4.9283,0.0,-4.9485,-4.9722,-4.9978,-4.9868,-4.9857,-5.0005,-4.9907,-4.9866,-4.9895,-5.0086,-4.9999,-4.9679,-4.9708,-4.9649,-4.9488,-4.9367,-4.9355,-4.9504,0.0,-4.9485,-4.9493,-4.9347,-4.9307,-4.929,-4.9155,-4.9094,-4.9094,-4.9185,-4.9124,-4.9001,-4.9063,-4.9185,-4.9277,-4.9277,-4.9155,-4.9001,-4.9001,-4.9001,-4.9001,-4.9001,-4.9001,-4.89,-4.8494,-4.8392,-4.8291,-4.7851,-4.753,-4.7365,-4.7653,-4.7339,-4.6961,-4.6882,-4.6316,-4.5591,-4.4903,-4.5042,-4.531,-4.5389,-4.5174,-4.4497,-4.3088,-4.277,-4.2323,-4.1373,-4.1145,-4.1047,-4.0984,-4.0716,-4.0473,-4.0354,-3.9553,-3.8997,-3.8768,-3.871,-3.8447,-3.7909,-3.7746,-3.757,-3.7398,-3.7058,-3.7016,-3.7245,-3.7484,-3.7391,-4.4484,-4.4682,-4.4615,-4.4615,-4.4776,-4.4321,-4.1921,-4.1132,-3.9879,-3.6431,0.0,-3.4926,-3.184,-3.3358,-3.5936,-3.8504,0.0,-4.301,-4.674,-4.7444,-4.7572,-4.7476,-4.7582,-4.8014,-4.8911,-4.8938,-4.8887,-4.8984,-4.9004,-4.9129,-4.942,-4.9156,-4.9234,-4.9762,-4.956,-4.9547,-4.9779,-4.9808,-4.9808,-4.9779,-4.959,-4.9488,-4.9428,-4.9124,-4.9001,-4.9024,0.0,0.0,-4.949,-4.9193,-4.9307,-4.9649,-4.935,-4.9229,-4.926,-4.9458,-4.9307,-4.9094,-4.9168,-4.9107,-4.9032,-4.9001,-4.9001,-4.9001,-4.9001,-4.9001,-4.9001,-4.9001,-4.9001,-4.9001,-4.9001,-4.9001,-4.9001,-4.9001,-4.8528,-4.8041,-4.8041,-4.7812,-4.7412,-4.6684,-4.6079,-4.55,-4.4869,-4.4666,-4.4615,-4.4615,-4.4944,-4.4805,-4.3694,-4.2775,-4.19,-4.11,-4.0906,-4.0738,-4.0538,-4.0961,-4.1094,-4.0724,-4.0081,-3.9525,-3.914,-3.8839,-3.8504,-3.8145,-3.8395,-3.8344,-3.7993,-3.7908,-3.7882,-3.7882,-3.8253,-3.823,-4.5252,-4.5018,-4.4615,-4.4615,-4.4626,-4.4546,-4.4075,-4.1707,0.0,0.0,-3.3066,-3.1093,-3.1126,-3.2681,-3.5471,-4.0013,0.0,0.0,0.0,0.0,-4.7482,0.0,0.0,0.0,0.0,0.0,0.0,0.0,0.0,0.0,-4.9069,-4.9025,-4.9063,-4.9138,-4.9124,-4.9124,-4.9155,-4.9411,-4.9411,-4.9155,-4.9398,-4.9367,-4.9094,-4.9032,-4.907,-4.9159,0.0,0.0,-4.9502,-4.9449,-4.9458,-4.9547,-4.9488,-4.9458,-4.9458,-4.9488,-4.9458,-4.9398,-4.926,-4.9199,-4.9138,-4.9032,-4.9001,-4.9001,-4.9001,-4.9001,-4.9001,-4.9001,-4.9001,-4.9001,-4.9001,-4.9001,-4.9001,-4.9001,-4.89,-4.8815,-4.8815,-4.8284,-4.7645,-4.6881,-4.6167,-4.5669,-4.5534,-4.4993,-4.4615,-4.4615,-4.4682,-4.4642,-4.4412,-4.4067,-4.3134,-4.1348,-4.1043,-4.0704,-4.0088,-4.0003,-4.0028,-4.0062,-3.9944,-3.9826,-3.9767,-3.9708,-3.9573,-3.9395,-3.8858,-3.8555,-3.848,-3.7975,-3.772,-3.7745,-3.7912,-3.7977,-4.539,-4.5072,-4.4615,-4.4615,-4.4615,-4.3739,-4.047,0.0,0.0,0.0,-2.8631,-2.7578,-2.7123,0.0,0.0,0.0,0.0,0.0,0.0,0.0,0.0,0.0,0.0,0.0,0.0,0.0,0.0,0.0,0.0,0.0,-4.9015,-4.9001,-4.9001,-4.9001,-4.9001,-4.9001,-4.9001,-4.9155,-4.9155,-4.9001,-4.9155,-4.9155,-4.9001,-4.9001,-4.9032,-4.9094,-4.9094,0.0,-4.9131,-4.921,-4.9261,-4.9298,-4.933,-4.935,-4.935,-4.9441,-4.9398,-4.9246,-4.9199,-4.9138,-4.9094,-4.9032,-4.9001,-4.9001,-4.9001,-4.9001,-4.9001,-4.9001,-4.9001,-4.9001,-4.9001,-4.9001,-4.9001,-4.9001,-4.9001,-4.9001,-4.9001,-4.8731,-4.8257,-4.753,-4.7107,-4.6735,-4.6346,-4.5652,-4.5162,-4.5162,-4.4869,-4.4615,-4.4615,-4.448,-4.3897,-4.2499,-4.1946,-4.1396,-4.0627,-4.0508,-4.0339,-4.0003,-4.0011,-4.0011,-4.0011,-4.0011,-3.9961,-3.9893,-3.9556,-3.9387,-3.9387,-3.9084,-3.8948,-3.8948,-3.9014,-3.9039,-4.5171,-4.4944,-4.4615,-4.4615,-4.4615,-4.3148,-3.759,-3.5566,0.0,0.0,-2.5419,-2.5035,-2.4513,0.0,-2.998,0.0,0.0,0.0,0.0,0.0,0.0,0.0,0.0,0.0,0.0,0.0,0.0,0.0,0.0,0.0,-4.8998,-4.9001,-4.9001,-4.9001,-4.9001,-4.9001,-4.9001,-4.9001,-4.9001,-4.9001,-4.9001,-4.9001,-4.9001,-4.9001,-4.9001,-4.9032,-4.9032,0.0,0.0,-4.904,-4.911,-4.9139,-4.9235,-4.926,-4.929,-4.9458,-4.9337,-4.9124,-4.9168,-4.9138,-4.9032,-4.9001,-4.9001,-4.9001,-4.9001,-4.9001,-4.9001,-4.9001,-4.9001,-4.9001,-4.9001,-4.9001,-4.9001,-4.9001,-4.9001,-4.9001,-4.9001,-4.9001,-4.8832,-4.8257,-4.799,-4.7733,-4.7141,-4.6413,-4.5889,-4.572,-4.5213,-4.4784,-4.4632,-4.4615,-4.435,-4.3724,-4.298,-4.2236,-4.1508,-4.1441,-4.1119,-4.0383,-4.035,-4.0265,-4.0113,-4.0096,-4.0096,-4.0096,-4.0096,-4.0096,-4.0096,-4.0096,-4.0096,-4.0096,-4.0096,-4.0096,-4.4644,-4.4654,-4.4615,-4.4615,-4.4615,-4.3789,-4.0652,0.0,0.0,-2.9899,-2.6191,-2.4443,-2.7483,-2.8269,-3.0647,0.0,0.0,-3.8122,0.0,0.0,0.0,0.0,0.0,0.0,0.0,0.0,0.0,0.0,0.0,0.0,0.0,-4.9001,-4.9001,-4.9001,-4.9001,-4.9001,-4.9001,-4.9001,-4.9001,-4.9001,-4.9001,-4.9001,-4.9001,-4.9001,-4.9063,-4.9168,0.0,0.0,0.0,-4.9411,-4.9372,-4.9304,-4.9411,-4.9488,-4.9471,-4.9488,-4.9488,-4.9428,-4.926,-4.9199,-4.9168,-4.9032,-4.9001,-4.9001,-4.9001,-4.9001,-4.9001,-4.9001,-4.9001,-4.9001,-4.9001,-4.9001,-4.9001,-4.9001,-4.9001,-4.9001,-4.9001,-4.9001,-4.8984,-4.8917,-4.8376,-4.7872,-4.7804,-4.7192,-4.6464,-4.5805,-4.5652,-4.5348,-4.4699,-4.4615,-4.4581,-4.4513,-4.3775,-4.3014,-4.2252,-4.2185,-4.188,-4.1153,-4.1102,-4.0798,-4.013,-4.0096,-4.0096,-4.0096,-4.0096,-4.0096,-4.0096,-4.0096,-4.0096,-4.0096,-4.0096,-4.0096,-4.3902,-4.4376,-4.4615,-4.4615,-4.4615,-4.3427,-3.8886,0.0,-3.2552,-2.8047,-2.5006,-2.3581,-2.4893,-2.5596,-2.7546,-3.2393,0.0,0.0,0.0,0.0,0.0,0.0,0.0,0.0,0.0,0.0,0.0,0.0,0.0,0.0,0.0,-4.9001,-4.9001,-4.9001,-4.9001,-4.9001,-4.9001,-4.9001,-4.9001,-4.9001,-4.9001,-4.9001,-4.9001,-4.9001,-4.9032,-4.9094,0.0,0.0,0.0,-4.913,-4.9108,-4.8951,-4.9135,-4.9216,-4.9216,-4.9216,-4.9216,-4.9185,-4.9124,-4.9094,-4.9063,-4.9001,-4.9001,-4.9001,-4.9001,-4.9001,-4.9001,-4.9001,-4.9001,-4.9001,-4.9001,-4.9001,-4.9001,-4.9001,-4.9001,-4.9001,-4.9001,-4.9001,-4.9001,-4.9001,-4.8765,-4.8578,-4.8578,-4.797,-4.7378,-4.709,-4.6278,-4.5602,-4.5297,-4.4886,-4.4615,-4.4615,-4.4299,-4.3809,-4.3031,-4.2963,-4.2658,-4.1914,-4.1863,-4.1525,-4.0781,-4.0747,-4.0544,-4.0113,-4.0096,-4.0096,-4.0096,-4.0096,-4.0096,-4.0096,-4.0096,-4.0096,-4.2834,-4.3898,-4.4615,-4.4615,-4.3921,-4.2029,0.0,0.0,-3.1141,-2.6333,-2.4108,-2.3008,-2.2893,-2.3406,-2.5087,-2.8834,0.0,-3.4137,0.0,0.0,0.0,0.0,0.0,0.0,0.0,0.0,0.0,0.0,0.0,0.0,0.0,-4.9001,-4.9001,-4.9001,-4.9001,-4.9001,-4.9001,-4.9001,-4.9001,-4.9001,-4.9001,-4.8989,-4.8933,-4.8975,-4.8989,-4.8933,0.0,0.0,0.0,-4.8919,-4.8896,-4.8732,-4.8924,-4.9001,-4.9001,-4.9001,-4.9001,-4.9001,-4.9001,-4.9001,-4.9001,-4.9001,-4.9001,-4.9001,-4.9001,-4.9001,-4.9001,-4.9001,-4.9001,-4.9001,-4.9001,-4.9001,-4.9001,-4.9001,-4.9001,-4.9001,-4.9001,-4.9001,-4.9001,-4.9001,-4.9001,-4.9001,-4.9001,-4.8578,-4.8142,-4.7922,-4.7039,-4.6194,-4.5771,-4.5246,-4.4852,-4.4632,-4.4615,-4.435,-4.3809,-4.3758,-4.3436,-4.2675,-4.2625,-4.2286,-4.1559,-4.1525,-4.1271,-4.0773,-4.0756,-4.0756,-4.0756,-4.0756,-4.0756,-4.0756,-4.0756,-4.0637,-4.1342,-4.3085,-4.4615,-4.4615,-4.2417,-3.9498,0.0,0.0,-2.8628,-2.5782,-2.3981,-2.2881,-2.2816,-2.2803,-2.424,-2.8596,-3.0656,0.0,0.0,0.0,0.0,0.0,0.0,0.0,0.0,0.0,0.0,0.0,0.0,0.0,0.0,-4.9001,-4.9001,-4.9001,-4.9001,-4.9001,-4.9001,-4.9001,-4.9001,-4.9001,-4.9001,-4.8937,-4.8812,-4.8946,-4.892,0.0,0.0,0.0,0.0,-4.8933,-4.8928,-4.8819,-4.8937,-4.9001,-4.9001,-4.9001,-4.9001,-4.9001,-4.9001,-4.9001,-4.9001,-4.9001,-4.9001,-4.9001,-4.9001,-4.9001,-4.9001,-4.9001,-4.9001,-4.9001,-4.9001,-4.9001,-4.9001,-4.9001,-4.9001,-4.9001,-4.9001,-4.9001,-4.9001,-4.9001,-4.9001,-4.9001,-4.9001,-4.9001,-4.8748,-4.799,-4.7872,-4.7361,-4.5889,-4.5703,-4.5399,-4.4682,-4.4615,-4.4615,-4.4598,-4.4598,-4.4231,-4.3426,-4.3375,-4.3064,-4.2303,-4.2286,-4.2269,-4.2269,-4.2269,-4.2269,-4.2269,-4.2269,-4.2269,-4.2269,-4.2269,-4.188,-3.5754,-3.6952,-3.7842,-3.7291,-3.6831,-3.5769,-3.2951,0.0,-2.8594,-2.5724,-2.3954,-2.2868,-2.2751,-2.2777,-2.4237,-2.8647,-3.0227,0.0,0.0,0.0,0.0,0.0,0.0,0.0,0.0,0.0,0.0,0.0,0.0,0.0,0.0,0.0,-4.9001,-4.9001,-4.9001,-4.9001,-4.9001,-4.9001,-4.9001,-4.9001,-4.9001,-4.8937,-4.8795,-4.8929,0.0,0.0,0.0,0.0,0.0,-4.8933,-4.8916,-4.8819,-4.8937,-4.9001,-4.9001,-4.9001,-4.9001,-4.9001,-4.9001,-4.9001,-4.9001,-4.9001,-4.9001,-4.9001,-4.9107,-4.9077,-4.9001,-4.9001,-4.9001,-4.9032,-4.9107,-4.9138,-4.9168,-4.9307,-4.9337,-4.9337,-4.9337,-4.9337,-4.9337,-4.9337,-4.9229,-4.9168,-4.9337,-4.9229,-4.907,-4.8833,-4.8357,-4.7836,-4.7276,-4.6769,-4.616,-4.5432,-4.5348,-4.5145,-4.4649,-4.4615,-4.4496,-4.4231,-4.4215,-4.3859,-4.3098,-4.3064,-4.2811,-4.2303,-4.2286,-4.2286,-4.2286,-4.2286,-4.2179,-4.1946,-4.176,-4.1577,-3.1812,-3.339,-3.4277,-3.3799,-3.3205,-3.2308,0.0,0.0,-2.68,-2.4977,-2.4794,-2.4517,-2.297,-2.4136,-2.5863,-2.7476,-3.0708,0.0,0.0,0.0,0.0,0.0,0.0,0.0,0.0,0.0,0.0,0.0,0.0,0.0,0.0,0.0,-4.9001,-4.9001,-4.9001,-4.9001,-4.9001,-4.9001,-4.9001,-4.9001,-4.9001,-4.8937,-4.8795,-4.8929,0.0,0.0,0.0,0.0,0.0,-4.8965,-4.8954,-4.8866,-4.8982,-4.9001,-4.9001,-4.9001,-4.9001,-4.9001,-4.9001,-4.9001,-4.9001,-4.9001,-4.9032,-4.9124,-4.926,-4.9229,-4.9185,-4.9185,-4.9185,-4.9216,-4.929,-4.932,-4.935,-4.9488,-4.9518,-4.9518,-4.9518,-4.9518,-4.9518,-4.9518,-4.9398,-4.935,-4.9488,-4.9398,-4.932,-4.932,-4.8852,-4.8371,-4.8026,-4.7526,-4.6967,-4.6264,-4.5942,-4.5586,-4.5139,-4.4795,-4.4615,-4.4615,-4.4615,-4.4395,-4.3876,-4.3859,-4.3639,-4.3166,-4.3176,-4.3176,-4.3176,-4.304,-4.2858,-4.2646,-4.2086,-4.1799,0.0,-3.1587,-3.2906,-3.2855,-3.0888,-2.8956,-2.8785,0.0,0.0,-2.4008,-2.6352,-2.7352,-2.3974,-2.6902,-2.8903,-2.6008,0.0,0.0,0.0,0.0,0.0,0.0,0.0,0.0,0.0,0.0,0.0,0.0,0.0,0.0,0.0,0.0,-4.9032,-4.9032,-4.9032,-4.9032,-4.9001,-4.9001,-4.8998,-4.8978,-4.8968,-4.8903,-4.8765,-4.8941,0.0,0.0,0.0,0.0,0.0,-4.9001,-4.9001,-4.9001,-4.9001,-4.9001,-4.9001,-4.9001,-4.9001,-4.9001,-4.9001,-4.9001,-4.9001,-4.9032,-4.9124,-4.926,-4.9441,-4.9518,-4.9518,-4.9518,-4.9518,-4.9518,-4.9518,-4.95,-4.9518,-4.9518,-4.9547,-4.9547,-4.9547,-4.9547,-4.9547,-4.9547,-4.9518,-4.9518,-4.9518,-4.9518,-4.95,-4.95,-4.935,-4.8974,-4.829,-4.809,-4.7789,-4.7172,-4.6476,-4.6079,-4.6005,-4.5168,-4.4598,-4.4598,-4.4598,-4.4626,-4.4626,-4.4626,-4.4626,-4.4626,-4.4626,-4.4598,-4.457,-4.4241,-4.4068,-4.3993,-4.2974,-4.2514,-2.5387,0.0,-2.6109,-2.5476,-2.5235,-2.4792,0.0,-2.356,-2.4245,0.0,0.0,0.0,0.0,-3.1489,0.0,0.0,0.0,0.0,0.0,0.0,0.0,0.0,0.0,0.0,0.0,0.0,0.0,0.0,0.0,0.0,0.0,0.0,-4.9398,-4.9398,-4.9398,-4.9277,-4.9001,-4.9001,-4.894,-4.8769,-4.8927,-4.8866,-4.8584,-4.888,0.0,0.0,0.0,0.0,-4.9001,-4.9001,-4.9001,-4.9001,-4.9001,-4.9001,-4.9001,-4.9001,-4.9001,-4.9001,-4.9001,-4.9063,-4.9168,-4.932,-4.9398,-4.9441,-4.9619,-4.956,-4.9518,-4.9518,-4.9518,-4.95,-4.9619,-4.9649,-4.9679,-4.9848,-4.9877,-4.9877,-4.9877,-4.9877,-4.9877,-4.9877,-4.9755,-4.9696,-4.9877,-4.9755,-4.9649,-4.9649,-4.9619,-4.9492,-4.9202,-4.9125,-4.8852,-4.8131,-4.7909,-4.758,-4.7028,-4.5597,-4.4748,-4.4748,-4.4748,-4.4803,-4.4913,-4.4803,-4.4803,-4.4896,-4.4913,-4.4731,-4.4367,-4.4035,-4.3684,-4.3325,-4.2811,-4.2592,-2.4512,-2.4535,-2.4537,-2.4842,-2.4653,-2.4359,-2.4243,-2.3713,0.0,0.0,0.0,0.0,0.0,0.0,0.0,0.0,0.0,0.0,0.0,0.0,0.0,0.0,0.0,0.0,0.0,0.0,0.0,0.0,0.0,0.0,0.0,0.0,-4.9518,-4.9518,-4.9518,-4.9367,-4.9077,-4.9185,-4.9048,-4.8695,-4.8976,-4.891,-4.8597,-4.8877,0.0,0.0,0.0,0.0,-4.8968,-4.8899,-4.8906,-4.9001,-4.9001,-4.9001,-4.9001,-4.9001,-4.9001,-4.9001,-4.9063,-4.9199,-4.935,-4.9547,-4.959,-4.9619,-4.9801,-4.9801,-4.9742,-4.9742,-4.9742,-4.9742,-4.983,-4.983,-4.986,-4.9964,-5.0011,-5.0011,-5.0011,-5.0011,-5.0011,-5.0011,-4.9906,-4.986,-4.9982,-4.9906,-4.983,-4.983,-4.9755,-4.9679,-4.959,-4.9547,-4.9364,-4.9042,-4.8699,-4.8323,-4.794,-4.676,-4.5855,-4.5425,-4.5073,-4.4923,-4.5005,-4.494,-4.4841,-4.4769,-4.4648,-4.4452,-4.4196,-4.3877,-4.3582,-4.3325,-4.2914,-4.2759,-2.4972,-2.5346,-2.5817,-2.7092,-2.6332,-2.5637,-2.7075,-2.5131,0.0,0.0,0.0,0.0,0.0,-3.3278,0.0,0.0,0.0,0.0,0.0,0.0,0.0,0.0,0.0,0.0,0.0,0.0,0.0,0.0,0.0,0.0,0.0,0.0,0.0,-4.9577,-4.9577,-4.9488,-4.929,-4.9428,-4.9255,-4.8797,-4.9095,-4.909,-4.8769,-4.8993,0.0,0.0,0.0,0.0,-4.9012,-4.8871,-4.8873,-4.9032,-4.9063,-4.9063,-4.9032,-4.9032,-4.9032,-4.9063,-4.9199,-4.935,-4.9518,-4.9679,-4.9725,-4.9737,-4.9935,-5.0011,-5.0011,-5.0011,-5.0011,-5.0011,-5.0011,-5.0011,-5.0011,-5.0011,-5.0011,-5.0011,-5.0011,-5.0011,-5.0011,-5.0011,-5.0011,-5.0011,-5.0011,-5.0011,-5.0011,-5.0011,-4.986,-4.9755,-4.9755,-4.9637,-4.9607,-4.9737,-4.9188,-4.881,-4.881,-4.8123,-4.7346,-4.6548,-4.5682,-4.5152,-4.5049,-4.5005,-4.4869,-4.4547,-4.4281,-4.4126,-4.4068,-4.3776,-4.3582,-4.3492,-4.3115,-4.2976,-2.492,-2.6461,-2.7806,-2.7478,-2.6673,-2.6196,-2.7189,-2.593,-2.5999,0.0,0.0,0.0,0.0,-4.1338,0.0,0.0,0.0,0.0,0.0,0.0,0.0,0.0,0.0,0.0,0.0,0.0,0.0,0.0,0.0,0.0,0.0,0.0,0.0,-4.9906,-4.9906,-4.983,-4.9619,-4.953,-4.9389,-4.9111,-4.9348,-4.9342,-4.9129,-4.9335,-4.932,0.0,0.0,-4.9141,-4.9168,-4.9124,-4.9141,-4.9199,-4.9367,-4.932,-4.9168,-4.9168,-4.9168,-4.9199,-4.9398,-4.9471,-4.9547,-4.9877,-4.986,-4.9737,-4.9935,-5.0011,-5.0011,-5.0011,-5.0011,-5.0011,-5.0011,-5.0011,-5.0011,-5.0011,-5.0011,-5.0011,-5.0011,-5.0011,-5.0011,-5.0011,-5.0011,-5.0011,-5.0011,-5.0011,-5.0011,-5.0011,-4.9964,-4.9964,-4.9964,-4.9935,-4.9935,-4.9935,-4.9861,-4.9809,-4.9809,-4.9057,-4.854,-4.8391,-4.6966,-4.5819,-4.5184,-4.5059,-4.4923,-4.4748,-4.4564,-4.4219,-4.3831,-4.3802,-4.3565,-4.3174,-4.3113,-4.3082,-2.367,-2.4787,-2.6515,-2.9264,-2.9572,-2.9845,-3.2447,-3.0075,-2.9006,0.0,0.0,0.0,0.0,0.0,0.0,0.0,0.0,0.0,0.0,0.0,0.0,0.0,0.0,0.0,0.0,0.0,0.0,0.0,0.0,0.0,0.0,0.0,0.0,0.0,-5.0011,-4.9964,-4.986,-4.9801,-4.9579,-4.9211,-4.9493,-4.9458,-4.9201,-4.9394,-4.9458,-4.9364,0.0,-4.9255,-4.9346,-4.9232,-4.9272,-4.9381,-4.9441,-4.9441,-4.935,-4.935,-4.9411,-4.95,-4.956,-4.9666,-4.9818,-4.9935,-4.9935,-4.9889,-4.9964,-4.9725,-4.9406,-4.9406,-4.9696,-5.0011,-5.0011,-4.9696,-4.9513,-4.9906,-4.9696,-4.9513,-4.9906,-5.0011,-5.0011,-5.0011,-5.0011,-5.0011,-5.0011,-5.0011,-5.0011,-5.0011,-4.9649,-4.956,-4.9935,-4.9577,-4.9488,-4.9935,-4.9889,-4.9889,-5.0011,-4.9666,-4.9085,-4.8241,-4.7128,-4.6227,-4.573,-4.5073,-4.4648,-4.444,-4.415,-4.3906,-4.37,-4.37,-4.3582,-4.3372,-4.3312,-4.3312,-2.2808,-2.3398,-2.5214,-3.0448,-3.1221,-3.1935,-3.675,-3.36,-3.1359,0.0,0.0,0.0,0.0,0.0,0.0,0.0,0.0,0.0,0.0,0.0,0.0,0.0,0.0,0.0,0.0,0.0,0.0,0.0,0.0,0.0,0.0,0.0,0.0,0.0,-4.9755,-4.9666,-4.95,-4.95,-4.9475,-4.9378,-4.9654,-4.9648,-4.9396,-4.9555,-4.9577,-4.9543,-4.9378,-4.939,-4.9526,-4.9361,-4.9424,-4.9547,-4.9607,-4.9488,-4.932,-4.932,-4.9381,-4.9483,-4.9649,-4.9813,-4.9964,-4.9801,-4.986,-4.9982,-4.9801,-4.9346,-4.8883,-4.8883,-4.9178,-4.953,-4.9696,-4.9209,-4.8838,-4.959,-4.9178,-4.8838,-4.9547,-4.9713,-4.9713,-4.9713,-4.9713,-4.9654,-4.9547,-4.9607,-4.9654,-4.9547,-4.9118,-4.9009,-4.9441,-4.8889,-4.8685,-4.9303,-4.9346,-4.9376,-4.953,-4.9394,-4.8792,-4.7605,-4.6959,-4.6304,-4.5642,-4.4913,-4.4227,-4.3608,-4.3279,-4.3188,-4.3372,-4.3372,-4.3462,-4.3598,-4.3492,-4.3432,-2.3419,-2.4173,-2.5699,-2.9794,-2.9053,-2.9207,-3.6346,-3.4057,0.0,-3.6994,0.0,0.0,0.0,0.0,0.0,0.0,0.0,0.0,0.0,0.0,0.0,0.0,0.0,0.0,0.0,0.0,0.0,0.0,0.0,0.0,0.0,0.0,0.0,0.0,0.0,-4.8666,-4.8047,-4.8047,-4.8683,-4.9953,-4.9976,-4.9976,-4.9953,-4.9947,-4.986,-4.9661,-4.9686,-4.9686,-4.9661,-4.9669,-4.9686,-4.9708,-4.9889,-4.9458,-4.8781,-4.8781,-4.8765,-4.8858,-4.9483,-4.9813,-4.9906,-4.9192,-4.9436,-4.986,-4.9192,-4.8944,-4.8883,-4.8883,-4.8478,-4.8208,-4.8838,-4.8495,-4.8127,-4.8821,-4.8446,-4.8112,-4.8671,-4.8796,-4.8796,-4.8796,-4.8796,-4.8639,-4.8161,-4.8465,-4.8623,-4.8129,-4.8433,-4.856,-4.8129,-4.7836,-4.7622,-4.7506,-4.7933,-4.8207,-4.8256,-4.7622,-4.7157,-4.7059,-4.6781,-4.5844,-4.4204,-4.4431,-4.3824,-4.2173,-4.1836,-4.1981,-4.2679,-4.2679,-4.3005,-4.3598,-4.3598,-4.3265,-2.1572,-2.2966,-2.5611,-2.9741,-2.9846,0.0,0.0,-3.6265,-3.5675,-4.0996,-4.0346,0.0,0.0,0.0,0.0,0.0,0.0,0.0,0.0,0.0,0.0,0.0,0.0,0.0,0.0,0.0,0.0,0.0,0.0,0.0,0.0,0.0,0.0,0.0,0.0,-4.8572,-4.7917,-4.7885,-4.8193,-4.8717,-4.9118,-4.956,-5.0011,-5.0011,-4.9964,-4.9889,-4.9889,-4.9619,-4.9192,-4.9192,-4.9192,-4.9192,-4.9299,-4.9101,-4.8776,-4.8353,-4.848,-4.8855,-4.9101,-4.9269,-4.9269,-4.8992,-4.8824,-4.8637,-4.8368,-4.7966,-4.7589,-4.7589,-4.7119,-4.6844,-4.7982,-4.7737,-4.7422,-4.8095,-4.7638,-4.7171,-4.7721,-4.7933,-4.7966,-4.7852,-4.8047,-4.8129,-4.7917,-4.8064,-4.8129,-4.7917,-4.7688,-4.7622,-4.7852,-4.7137,-4.6779,-4.7256,-4.724,-4.7224,-4.7224,-4.656,-4.6106,-4.6106,-4.6093,-4.5668,-4.4736,-4.4349,-4.3588,-4.2324,-4.2191,-4.2051,-4.1917,-4.1917,-4.2045,-4.2269,-4.2269,-4.2142,-2.1092,-2.2395,-2.516,-2.9321,0.0,0.0,-3.7222,-3.738,-3.777,-4.2821,-4.2144,0.0,0.0,0.0,0.0,0.0,0.0,0.0,0.0,0.0,0.0,0.0,0.0,0.0,0.0,0.0,0.0,0.0,0.0,0.0,0.0,0.0,0.0,0.0,0.0,0.0,-4.7237,-4.7237,-4.7322,-4.7556,-4.8031,-4.862,-4.935,-4.935,-4.9441,-4.9649,-4.9649,-4.9376,-4.8883,-4.8883,-4.879,-4.8572,-4.8334,-4.8239,-4.8175,-4.7704,-4.7836,-4.8271,-4.8509,-4.8572,-4.8541,-4.8303,-4.8095,-4.7852,-4.7622,-4.7221,-4.6811,-4.6811,-4.6317,-4.6008,-4.6981,-4.6862,-4.6655,-4.7389,-4.688,-4.6375,-4.6813,-4.6984,-4.7019,-4.6763,-4.7019,-4.7254,-4.7069,-4.7171,-4.7238,-4.7069,-4.6657,-4.6483,-4.6813,-4.604,-4.5717,-4.6435,-4.598,-4.5766,-4.6051,-4.5436,-4.5011,-4.5011,-4.5088,-4.4938,-4.4465,-4.412,-4.3378,-4.219,-4.214,-4.1937,-4.1473,-4.1473,-4.1464,-4.1492,-4.1492,-4.1393,-2.2542,-2.2883,-2.4399,-2.8422,0.0,0.0,-3.6711,-3.7049,-3.7375,-4.1459,0.0,-4.4123,-4.2347,0.0,0.0,0.0,0.0,0.0,0.0,0.0,0.0,0.0,0.0,0.0,0.0,0.0,0.0,0.0,0.0,0.0,0.0,0.0,0.0,0.0,0.0,0.0,-4.5807,-4.5807,-4.612,-4.6777,-4.6777,-4.7187,-4.7885,-4.7885,-4.8256,-4.8883,-4.8883,-4.8883,-4.8883,-4.8883,-4.8478,-4.7819,-4.7085,-4.6811,-4.6811,-4.6777,-4.6777,-4.6914,-4.7655,-4.7885,-4.7787,-4.7051,-4.7288,-4.7754,-4.7017,-4.6777,-4.6777,-4.6777,-4.6317,-4.5807,-4.5823,-4.5771,-4.5972,-4.662,-4.6282,-4.5828,-4.5981,-4.6001,-4.5877,-4.5478,-4.5697,-4.5821,-4.5268,-4.5656,-4.5821,-4.5268,-4.5326,-4.52,-4.4648,-4.4435,-4.4404,-4.4737,-4.3888,-4.3693,-4.4699,-4.4112,-4.369,-4.369,-4.369,-4.3506,-4.3031,-4.3648,-4.3162,-4.1437,-4.1384,-4.1398,-4.1397,-4.1397,-4.1441,-4.1508,-4.1508,-4.1142,-2.5396,-2.6049,0.0,-3.0071,0.0,0.0,0.0,-3.9343,0.0,0.0,0.0,0.0,0.0,0.0,0.0,0.0,0.0,0.0,0.0,0.0,0.0,0.0,0.0,0.0,0.0,0.0,0.0,0.0,0.0,0.0,0.0,0.0,0.0,0.0,0.0,0.0,-4.5807,-4.5807,-4.59,-4.61,-4.61,-4.674,-4.7885,-4.7885,-4.8015,-4.8208,-4.8208,-4.7901,-4.7423,-4.7423,-4.7305,-4.7119,-4.688,-4.6811,-4.6759,-4.6282,-4.6407,-4.6846,-4.7051,-4.7119,-4.7085,-4.688,-4.6636,-4.6388,-4.6156,-4.61,-4.6048,-4.5765,-4.5724,-4.5735,-4.5447,-4.5373,-4.552,-4.5977,-4.5614,-4.5151,-4.5046,-4.512,-4.5083,-4.4518,-4.4746,-4.5046,-4.5173,-4.5083,-4.5046,-4.5173,-4.4971,-4.4685,-4.4243,-4.4143,-4.4011,-4.3786,-4.3472,-4.3409,-4.3732,-4.3527,-4.3423,-4.3423,-4.3423,-4.3373,-4.3217,-4.3391,-4.3074,-4.2111,-4.2111,-4.1881,-4.1391,-4.1391,-4.1155,-4.072,-4.072,-4.037,-2.7194,-2.8072,0.0,-3.3094,-3.5357,-3.76,-4.1045,0.0,0.0,0.0,0.0,0.0,0.0,0.0,0.0,0.0,0.0,0.0,0.0,0.0,0.0,0.0,0.0,0.0,0.0,0.0,0.0,0.0,0.0,0.0,0.0,0.0,0.0,0.0,0.0,0.0,-4.5807,-4.5807,-4.5807,-4.5807,-4.5807,-4.6227,-4.7084,-4.7084,-4.7203,-4.7456,-4.7456,-4.7221,-4.6793,-4.6496,-4.6407,-4.6407,-4.6407,-4.6407,-4.6337,-4.5936,-4.5941,-4.6214,-4.6372,-4.6285,-4.6198,-4.6372,-4.612,-4.5807,-4.5807,-4.5698,-4.5536,-4.5447,-4.5484,-4.5499,-4.5247,-4.5098,-4.5061,-4.5463,-4.5151,-4.4685,-4.4435,-4.4473,-4.4381,-4.3817,-4.4089,-4.4435,-4.4685,-4.4534,-4.4435,-4.4685,-4.4343,-4.3996,-4.3738,-4.3738,-4.3621,-4.3329,-4.329,-4.329,-4.329,-4.329,-4.329,-4.329,-4.329,-4.329,-4.329,-4.329,-4.315,-4.2746,-4.2746,-4.247,-4.1941,-4.1941,-4.1595,-4.1061,-4.1061,-4.0626,-2.8368,-2.9411,0.0,-3.6571,-3.7989,0.0,-4.2026,-4.3361,-4.3912,0.0,0.0,0.0,0.0,0.0,0.0,0.0,0.0,0.0,0.0,0.0,0.0,0.0,0.0,0.0,0.0,0.0,0.0,0.0,0.0,0.0,0.0,0.0,0.0,0.0,0.0,0.0,-4.5807,-4.5807,-4.5807,0.0,-4.5807,-4.5807,-4.5807,-4.5807,-4.612,-4.6724,-4.6724,-4.6724,-4.6655,-4.6064,-4.5807,-4.5807,-4.5807,-4.5807,-4.5807,-4.5807,-4.5536,-4.5247,-4.5609,-4.5499,-4.5247,-4.5573,-4.5735,-4.5735,-4.5698,-4.5447,-4.521,-4.5536,-4.541,-4.5136,-4.5098,-4.4799,-4.4648,-4.4986,-4.4799,-4.4435,-4.4089,-4.3988,-4.3856,-4.3369,-4.366,-4.3949,-4.3988,-4.3949,-4.3949,-4.3949,-4.3581,-4.329,-4.329,-4.329,-4.329,-4.329,-4.329,-4.329,-4.329,-4.329,-4.329,-4.329,-4.329,-4.329,-4.329,-4.329,-4.329,-4.3329,-4.3329,-4.3178,-4.2824,-4.2824,-4.2554,-4.209,-4.209,-4.1637,-3.035,-3.1511,0.0,0.0,-3.9049,-4.1268,-4.1933,-4.3567,0.0,0.0,0.0,0.0,0.0,0.0,0.0,0.0,0.0,0.0,0.0,0.0,0.0,0.0,0.0,0.0,0.0,0.0,0.0,0.0,0.0,0.0,0.0,0.0,0.0,0.0,0.0,-4.5807,-4.5807,-4.5807,-4.5807,0.0,-4.5807,-4.5807,-4.5807,-4.5807,-4.588,-4.6028,-4.6028,-4.6028,-4.5992,-4.588,-4.5807,-4.5807,-4.5807,-4.5807,-4.5807,-4.5807,-4.5536,-4.521,-4.5284,-4.5284,-4.5173,-4.4911,-4.5061,-4.5262,-4.4964,-4.4814,-4.4685,-4.4435,-4.4549,-4.4648,-4.4358,-4.4205,-4.4127,-4.4243,-4.4205,-4.4104,-4.4026,-4.3988,-4.3856,-4.3369,-4.3369,-4.3581,-4.3949,-4.3699,-4.3463,-4.3463,-4.3369,-4.329,-4.329,-4.329,-4.329,-4.329,-4.329,-4.329,-4.329,-4.329,-4.329,-4.329,-4.329,-4.329,-4.329,-4.329,-4.3384,-4.3596,-4.3596,-4.3654,-4.3736,-4.3736,-4.3388,-4.2773,-4.2773,-4.2409,-2.92,0.0,0.0,-3.8614,0.0,-4.1932,-4.2477,-4.3574,0.0,0.0,0.0,0.0,0.0,0.0,0.0,0.0,0.0,0.0,0.0,0.0,0.0,0.0,0.0,0.0,0.0,0.0,0.0,0.0,0.0,0.0,0.0,0.0,0.0,0.0,-4.5807,-4.5807,-4.5807,-4.5807,-4.5807,-4.5807,-4.5807,-4.5807,-4.5807,-4.5807,-4.5807,-4.5807,-4.5807,-4.5807,-4.5807,-4.5807,-4.5807,-4.5807,-4.5807,-4.5807,-4.5807,-4.5807,-4.5426,-4.4949,-4.5136,-4.4949,-4.461,-4.461,-4.4723,-4.4874,-4.4648,-4.4473,-4.432,-4.4281,-4.4281,-4.4243,-4.4065,-4.3988,-4.3934,-4.3738,-4.366,-4.366,-4.366,-4.366,-4.3581,-4.3344,-4.329,-4.3369,-4.3621,-4.3448,-4.329,-4.329,-4.329,-4.329,-4.329,-4.329,-4.329,-4.329,-4.329,-4.329,-4.329,-4.329,-4.329,-4.329,-4.329,-4.329,-4.329,-4.329,-4.3423,-4.369,-4.369,-4.3832,-4.4127,-4.4127,-4.4021,-4.3762,-4.3762,-4.3373,-2.6286,0.0,-3.4529,-4.1006,-4.2091,0.0,-4.2895,0.0,0.0,0.0,0.0,0.0,0.0,0.0,0.0,0.0,0.0,0.0,0.0,0.0,0.0,0.0,0.0,0.0,0.0,0.0,0.0,0.0,0.0,0.0,0.0,0.0,-4.5807,-4.5807,-4.5807,-4.5807,-4.5807,-4.5807,-4.5807,-4.5807,-4.5807,-4.5807,-4.5807,-4.5807,-4.5807,-4.5807,-4.5807,-4.5807,-4.5807,-4.5807,-4.5807,-4.5771,-4.5735,-4.5698,-4.5698,-4.5698,-4.5188,-4.4534,-4.4949,-4.4625,-4.405,-4.4305,-4.4419,-4.4473,-4.4381,-4.4127,-4.3934,-4.4266,-4.4127,-4.3871,-4.3871,-4.3871,-4.3778,-4.3369,-4.329,-4.329,-4.329,-4.329,-4.329,-4.329,-4.329,-4.329,-4.329,-4.329,-4.329,-4.329,-4.329,-4.329,-4.329,-4.329,-4.329,-4.329,-4.329,-4.329,-4.329,-4.329,-4.329,-4.329,-4.329,-4.329,-4.329,-4.329,-4.3423,-4.369,-4.3714,-4.3949,-4.4281,-4.432,-4.4435,-4.461,-4.461,-4.4204,0.0,0.0,-3.4743,0.0,-4.0861,-4.1485,0.0,0.0,0.0,0.0,0.0,0.0,0.0,0.0,0.0,0.0,0.0,0.0,0.0,0.0,0.0,0.0,0.0,0.0,0.0,0.0,0.0,0.0,0.0,0.0,0.0,-4.5807,-4.5807,-4.5807,-4.5807,-4.5807,-4.5807,-4.5807,-4.5807,-4.5807,-4.5807,-4.5807,-4.5807,-4.5807,-4.5807,-4.5807,-4.5807,-4.5807,-4.5807,-4.5807,-4.5807,-4.5771,-4.541,-4.5284,-4.5284,-4.5284,-4.4761,-4.4143,-4.4549,-4.4396,-4.3934,-4.3566,-4.3738,-4.4011,-4.3621,-4.3448,-4.3409,-4.3448,-4.3448,-4.3369,-4.3369,-4.3369,-4.3369,-4.3329,-4.329,-4.329,-4.329,-4.329,-4.329,-4.329,-4.329,-4.329,-4.329,-4.329,-4.329,-4.329,-4.329,-4.329,-4.329,-4.329,-4.329,-4.329,-4.329,-4.329,-4.329,-4.329,-4.329,-4.329,-4.329,-4.329,-4.329,-4.329,-4.3423,-4.369,-4.3871,-4.405,-4.4281,-4.4473,-4.4572,-4.461,-4.461,-4.4526,-2.43,-2.8435,-3.3107,0.0,-3.9959,-3.9438,0.0,0.0,0.0,0.0,0.0,0.0,0.0,0.0,0.0,0.0,0.0,0.0,0.0,0.0,0.0,0.0,0.0,0.0,0.0,0.0,0.0,0.0,0.0,0.0,-4.5807,-4.5807,-4.5807,-4.5807,-4.5807,-4.5807,-4.5807,-4.5807,-4.5807,-4.5807,-4.5807,-4.5698,-4.5447,-4.5447,-4.5573,-4.5807,-4.5807,-4.5807,-4.5807,-4.5807,-4.5807,-4.5771,-4.5373,-4.521,-4.5173,-4.4949,-4.4511,-4.4026,-4.4205,-4.3972,-4.3581,-4.3369,-4.3448,-4.3581,-4.3369,-4.329,-4.329,-4.329,-4.329,-4.329,-4.329,-4.329,-4.329,-4.329,-4.329,-4.329,-4.329,-4.329,-4.329,-4.329,-4.329,-4.329,-4.329,-4.329,-4.329,-4.329,-4.329,-4.329,-4.329,-4.329,-4.329,-4.329,-4.329,-4.329,-4.329,-4.329,-4.329,-4.329,-4.329,-4.329,-4.329,-4.329,-4.3384,-4.3463,-4.3817,-4.4104,-4.4281,-4.4496,-4.461,-4.461,-4.461,-4.461,0.0,0.0,-2.9467,-3.7381,-3.7385,-3.6414,0.0,0.0,0.0,0.0,0.0,0.0,0.0,0.0,0.0,0.0,0.0,0.0,0.0,0.0,0.0,0.0,0.0,0.0,0.0,0.0,0.0,0.0,0.0,0.0,-4.5807,-4.5807,-4.5807,-4.5807,-4.5807,-4.5807,-4.5807,-4.5807,-4.5807,-4.5807,-4.5698,-4.5484,-4.521,-4.5098,-4.5225,-4.5499,-4.5609,-4.5646,-4.5662,-4.5771,-4.5807,-4.5735,-4.5262,-4.5061,-4.4986,-4.4587,-4.4166,-4.3817,-4.3949,-4.3699,-4.329,-4.329,-4.329,-4.329,-4.329,-4.329,-4.329,-4.329,-4.329,-4.329,-4.329,-4.329,-4.329,-4.329,-4.3344,-4.3384,-4.329,-4.329,-4.329,-4.329,-4.329,-4.329,-4.329,-4.329,-4.3329,-4.3384,-4.3329,-4.3329,-4.3384,-4.3329,-4.329,-4.329,-4.3384,-4.3384,-4.329,-4.3384,-4.3384,-4.329,-4.329,-4.329,-4.329,-4.3384,-4.3384,-4.3384,-4.3856,-4.4127,-4.4205,-4.4473,-4.461,-4.461,-4.461,-4.461,0.0,-2.1964,0.0,-3.0117,0.0,0.0,0.0,0.0,0.0,0.0,0.0,0.0,0.0,0.0,0.0,0.0,0.0,0.0,0.0,0.0,0.0,0.0,0.0,0.0,0.0,0.0,0.0,0.0,0.0,0.0,-4.5807,-4.5807,-4.5807,-4.5807,-4.5807,-4.5807,-4.5807,-4.5807,-4.5807,-4.5823,-4.541,-4.521,-4.5173,-4.4799,-4.4648,-4.4685,-4.5061,-4.5247,-4.5247,-4.5646,-4.5807,-4.5735,-4.4927,-4.461,-4.4572,-4.4166,-4.3738,-4.3423,-4.3871,-4.3699,-4.329,-4.329,-4.329,-4.329,-4.329,-4.329,-4.329,-4.329,-4.329,-4.329,-4.329,-4.329,-4.329,-4.329,-4.3503,-4.3596,-4.3344,-4.329,-4.329,-4.329,-4.329,-4.329,-4.329,-4.329,-4.3384,-4.3636,-4.3463,-4.3384,-4.3651,-4.3463,-4.329,-4.329,-4.3518,-4.3596,-4.3329,-4.3518,-4.3557,-4.3329,-4.329,-4.329,-4.329,-4.3557,-4.369,-4.369,-4.4089,-4.4205,-4.4026,-4.4396,-4.461,-4.461,-4.461,-4.461,0.0,0.0,0.0,-2.7579,-2.8883,0.0,0.0,0.0,0.0,0.0,0.0,0.0,0.0,0.0,0.0,0.0,0.0,0.0,0.0,0.0,0.0,0.0,0.0,0.0,0.0,0.0,0.0,0.0,0.0,0.0,-4.576,-4.4918,-4.4891,-4.5776,-4.5807,-4.5807,-4.5807,-4.5807,-4.5807,-4.5823,-4.5373,-4.5061,-4.4799,-4.4396,-4.4127,-4.405,-4.4473,-4.4685,-4.4836,-4.4964,-4.5039,-4.4964,-4.4435,-4.4205,-4.4166,-4.3699,-4.3448,-4.3329,-4.3488,-4.3448,-4.329,-4.329,-4.329,-4.329,-4.329,-4.3423,-4.3557,-4.3557,-4.3675,-4.3738,-4.3738,-4.366,-4.3557,-4.3557,-4.3714,-4.3871,-4.3778,-4.3675,-4.3518,-4.3329,-4.3423,-4.3557,-4.3557,-4.366,-4.3778,-4.3871,-4.3832,-4.3778,-4.3871,-4.3832,-4.3738,-4.3738,-4.3832,-4.3871,-4.3738,-4.3832,-4.3871,-4.3738,-4.3738,-4.3699,-4.3557,-4.3754,-4.3832,-4.369,-4.4104,-4.4243,-4.4205,-4.4473,-4.461,-4.461,-4.461,-4.461,-1.7549,0.0,0.0,0.0,0.0,0.0,0.0,0.0,0.0,0.0,0.0,0.0,0.0,0.0,0.0,0.0,0.0,0.0,0.0,0.0,0.0,0.0,0.0,0.0,0.0,0.0,0.0,0.0,0.0,0.0,-4.5868,-4.4994,-4.4895,-4.5776,-4.5807,-4.5697,-4.5444,-4.5697,-4.5717,-4.5516,-4.53,-4.5061,-4.4799,-4.432,-4.3988,-4.3808,-4.4089,-4.4358,-4.461,-4.4685,-4.4685,-4.4648,-4.4166,-4.405,-4.4065,-4.3581,-4.3423,-4.3423,-4.3423,-4.3384,-4.329,-4.3423,-4.3423,-4.3463,-4.3503,-4.3675,-4.3808,-4.3808,-4.391,-4.3988,-4.3988,-4.391,-4.3832,-4.3871,-4.3988,-4.4104,-4.4104,-4.3949,-4.3754,-4.3581,-4.3675,-4.3808,-4.3808,-4.391,-4.4026,-4.4104,-4.405,-4.4026,-4.4104,-4.405,-4.3988,-4.3988,-4.4065,-4.405,-4.4026,-4.4065,-4.405,-4.4026,-4.3988,-4.3949,-4.3808,-4.3988,-4.4026,-4.391,-4.4243,-4.4396,-4.4396,-4.4534,-4.461,-4.461,-4.461,-4.461,0.0,0.0,0.0,0.0,0.0,0.0,0.0,0.0,0.0,0.0,0.0,0.0,0.0,0.0,0.0,0.0,0.0,0.0,0.0,0.0,0.0,0.0,0.0,0.0,0.0,0.0,0.0,0.0,0.0,-4.6147,-4.6048,-4.6048,-4.5941,-4.5744,-4.5744,-4.5396,-4.4685,-4.5396,-4.5488,-4.4983,-4.5076,-4.5126,-4.5142,-4.4556,-4.4189,-4.4026,-4.4026,-4.4243,-4.461,-4.4799,-4.4874,-4.4799,-4.4243,-4.4127,-4.4243,-4.3832,-4.3729,-4.3729,-4.3729,-4.3557,-4.3369,-4.3636,-4.3729,-4.3769,-4.3949,-4.4026,-4.4026,-4.4026,-4.4026,-4.4026,-4.4026,-4.4026,-4.4065,-4.4243,-4.432,-4.432,-4.432,-4.4166,-4.4026,-4.3988,-4.4026,-4.4026,-4.4026,-4.4026,-4.4089,-4.4281,-4.4127,-4.4104,-4.4281,-4.4143,-4.4026,-4.4026,-4.4205,-4.4243,-4.4011,-4.4205,-4.4243,-4.4026,-4.4026,-4.4026,-4.4026,-4.4205,-4.432,-4.4281,-4.4511,-4.461,-4.461,-4.461,-4.461,-4.461,-4.461,-4.461,-1.5908,0.0,0.0,0.0,0.0,0.0,0.0,0.0,0.0,0.0,0.0,0.0,0.0,0.0,0.0,0.0,0.0,0.0,0.0,0.0,0.0,0.0,0.0,0.0,0.0,0.0,0.0,0.0,-4.3836,-4.3692,-4.4662,-4.4639,-4.4481,-4.4306,-4.4411,-4.4421,-4.418,-4.425,-4.4338,-4.4407,-4.3653,-4.3702,-4.4387,-4.3661,-4.367,-4.4205,-4.4205,-4.4358,-4.4572,-4.4358,-4.4166,-4.4026,-4.4026,-4.4011,-4.4065,-4.3949,-4.391,-4.391,-4.391,-4.3871,-4.3817,-4.391,-4.391,-4.391,-4.3988,-4.4089,-4.4205,-4.4205,-4.432,-4.4396,-4.4243,-4.432,-4.4396,-4.432,-4.4396,-4.4511,-4.4511,-4.4473,-4.4358,-4.4065,-4.4127,-4.4205,-4.4205,-4.4358,-4.4473,-4.4511,-4.4473,-4.4458,-4.4511,-4.4473,-4.4435,-4.4435,-4.4458,-4.4496,-4.4435,-4.4511,-4.4496,-4.4435,-4.4435,-4.4358,-4.4205,-4.4396,-4.4473,-4.4281,-4.4511,-4.461,-4.461,-4.461,-4.461,-4.461,-4.461,-4.461,0.0,0.0,0.0,0.0,0.0,0.0,-2.0764,-2.4244,0.0,0.0,0.0,0.0,0.0,0.0,0.0,0.0,0.0,0.0,0.0,0.0,0.0,0.0,0.0,0.0,0.0,0.0,0.0,0.0,-4.3635,-4.3571,-4.429,-4.4186,-4.4015,-4.3913,-4.4015,-4.3956,-4.3669,-4.3685,-4.3704,-4.3655,-4.3095,-4.3133,-4.3686,-4.3485,-4.3615,-4.4021,-4.4312,-4.4435,-4.4458,-4.432,-4.4127,-4.3949,-4.3988,-4.4065,-4.4143,-4.4143,-4.4143,-4.4143,-4.4143,-4.4065,-4.4026,-4.4104,-4.4143,-4.4127,-4.4205,-4.432,-4.4435,-4.4435,-4.4511,-4.4572,-4.4473,-4.4511,-4.4572,-4.4473,-4.4496,-4.461,-4.461,-4.461,-4.4534,-4.4281,-4.4358,-4.4435,-4.4435,-4.4534,-4.461,-4.461,-4.461,-4.461,-4.461,-4.461,-4.461,-4.461,-4.461,-4.461,-4.461,-4.461,-4.461,-4.461,-4.461,-4.4549,-4.4435,-4.4549,-4.4534,-4.4435,-4.4549,-4.461,-4.461,-4.461,-4.461,-4.461,-4.461,-4.461,0.0,0.0,0.0,0.0,0.0,0.0,-2.166,-2.5056,-2.8272,0.0,0.0,0.0,0.0,0.0,0.0,0.0,0.0,0.0,0.0,0.0,0.0,0.0,0.0,0.0,0.0,0.0,-4.3653,-4.4216,-4.4446,-4.4446,-4.4214,-4.4031,-4.393,-4.3862,-4.3847,-4.3609,-4.3002,-4.3289,-4.3205,-4.2755,-4.284,-4.2922,-4.2985,-4.3459,-4.3648,-4.3639,-4.424,-4.4434,-4.4358,-4.4549,-4.4473,-4.4281,-4.4143,-4.4181,-4.432,-4.432,-4.432,-4.432,-4.432,-4.4205,-4.4104,-4.4281,-4.432,-4.4358,-4.4549,-4.461,-4.461,-4.461,-4.461,-4.461,-4.461,-4.461,-4.461,-4.461,-4.461,-4.461,-4.461,-4.461,-4.461,-4.461,-4.461,-4.461,-4.461,-4.461,-4.461,-4.461,-4.461,-4.461,-4.461,-4.461,-4.461,-4.461,-4.461,-4.461,-4.461,-4.461,-4.461,-4.461,-4.461,-4.461,-4.461,-4.461,-4.461,-4.461,-4.461,-4.461,-4.461,-4.461,-4.461,-4.461,-4.461,-4.461,0.0,0.0,0.0,0.0,0.0,0.0,-1.9155,-2.0422,-2.2534,0.0,0.0,0.0,0.0,0.0,0.0,0.0,0.0,0.0,0.0,0.0,0.0,0.0,0.0,0.0,0.0,0.0,-4.2846,-4.2975,-4.3023,-4.2848,-4.2443,-4.2377,-4.2146,-4.1711,-4.1814,-4.1787,-4.1661,-4.1635,-4.1702,-4.186,-4.1296,-4.1461,-4.2303,-4.2123,-4.2607,-4.3624,-4.3747,-4.4079,-4.4534,-4.4572,-4.4473,-4.432,-4.4435,-4.4511,-4.4549,-4.4549,-4.4549,-4.4549,-4.4549,-4.4511,-4.4511,-4.4549,-4.4549,-4.4549,-4.4587,-4.461,-4.461,-4.461,-4.461,-4.461,-4.461,-4.461,-4.461,-4.461,-4.461,-4.461,-4.461,-4.461,-4.461,-4.461,-4.461,-4.461,-4.461,-4.461,-4.461,-4.461,-4.461,-4.461,-4.461,-4.461,-4.461,-4.461,-4.461,-4.461,-4.461,-4.461,-4.461,-4.461,-4.461,-4.461,-4.461,-4.461,-4.461,-4.461,-4.461,-4.461,-4.461,-4.461,-4.461,-4.461,-4.461,-4.461,0.0,0.0,0.0,-2.436,0.0,0.0,0.0,-2.2137,-2.3522,0.0,0.0,0.0,0.0,0.0,0.0,0.0,0.0,0.0,0.0,0.0,0.0,0.0,0.0,0.0,0.0,0.0,-4.2174,-4.2333,-4.2206,-4.2093,-4.1996,-4.185,-4.162,-4.1355,-4.139,-4.1456,-4.1456,-4.1223,-4.1189,-4.1323,-4.0765,-4.0778,-4.1326,-4.1503,-4.1971,-4.2617,-4.3316,-4.3793,-4.4132,-4.4471,-4.4549,-4.4473,-4.4572,-4.461,-4.461,-4.461,-4.461,-4.461,-4.461,-4.461,-4.461,-4.461,-4.461,-4.461,-4.461,-4.461,-4.461,-4.461,-4.461,-4.461,-4.461,-4.461,-4.461,-4.461,-4.461,-4.461,-4.461,-4.461,-4.461,-4.461,-4.461,-4.461,-4.461,-4.461,-4.461,-4.461,-4.461,-4.461,-4.461,-4.461,-4.461,-4.461,-4.461,-4.461,-4.461,-4.461,-4.461,-4.461,-4.461,-4.461,-4.461,-4.461,-4.461,-4.461,-4.4174,-4.3966,-4.3966,-4.3966,-4.4174,-4.4572,-4.4174,-4.3966,0.0,0.0,0.0,0.0,0.0,-2.4725,0.0,0.0,0.0,0.0,0.0,0.0,0.0,0.0,0.0,0.0,0.0,0.0,0.0,0.0,0.0,0.0,0.0,0.0,0.0,0.0,-4.1292,-4.1948,-4.188,-4.183,-4.1883,-4.1781,-4.1598,-4.139,-4.139,-4.139,-4.139,-4.1122,-4.0987,-4.0969,-4.0662,-4.0489,-4.0505,-4.1124,-4.1463,-4.1663,-4.2863,-4.3485,-4.3655,-4.4332,-4.461,-4.461,-4.461,-4.461,-4.461,-4.461,-4.461,-4.461,-4.461,-4.461,-4.461,-4.461,-4.461,-4.461,-4.461,-4.461,-4.461,-4.461,-4.461,-4.461,-4.461,-4.461,-4.461,-4.461,-4.461,-4.461,-4.461,-4.461,-4.461,-4.461,-4.461,-4.461,-4.461,-4.461,-4.461,-4.461,-4.461,-4.461,-4.461,-4.461,-4.461,-4.461,-4.461,-4.461,-4.461,-4.461,-4.461,-4.461,-4.461,-4.461,-4.461,-4.461,-4.461,-4.461,-4.3888,-4.3482,-4.3284,-4.3284,-4.3639,-4.4328,-4.3654,-4.3284,0.0,0.0,0.0,0.0,-2.8186,0.0,0.0,0.0,0.0,0.0,0.0,0.0,0.0,0.0,0.0,0.0,0.0,0.0,0.0,0.0,0.0,0.0,0.0,0.0,0.0,0.0,0.0,-4.1512,-4.2157,-4.2102,-4.127,-4.1734,-4.1626,-4.0643,-4.0627,-4.0627,-4.0627,-4.0593,-4.0558,-4.0558,-4.0524,-4.0489,-4.0489,-4.0582,-4.1001,-4.1632,-4.2386,-4.3048,-4.3655,-4.4332,-4.461,-4.461,-4.461,-4.461,-4.461,-4.461,-4.461,-4.461,-4.461,-4.461,-4.461,-4.461,-4.461,-4.461,-4.461,-4.461,-4.461,-4.461,-4.461,-4.461,-4.461,-4.461,-4.461,-4.461,-4.461,-4.461,-4.461,-4.461,-4.461,-4.461,-4.461,-4.461,-4.461,-4.461,-4.461,-4.461,-4.461,-4.461,-4.461,-4.461,-4.461,-4.461,-4.461,-4.461,-4.461,-4.461,-4.461,-4.461,-4.461,-4.461,-4.461,-4.461,-4.461,-4.461,-4.4496,-4.4058,-4.3284,-4.3284,-4.3364,-4.3442,-4.3364,-4.3284,0.0,0.0,0.0,0.0,0.0,0.0,0.0,0.0,-2.3685,0.0,0.0,0.0,0.0,0.0,0.0,0.0,0.0,0.0,0.0,0.0,0.0,0.0,0.0,0.0,0.0,0.0,0.0,0.0,0.0,-3.9055,-3.9309,-4.0882,-4.1608,-4.1155,-4.0705,-4.0489,-4.0489,-4.0489,-4.0489,-4.0489,-4.0489,-4.0489,-4.0489,-4.0489,-4.0659,-4.0981,-4.1709,-4.2402,-4.3063,-4.3762,-4.4255,-4.461,-4.461,-4.461,-4.461,-4.461,-4.461,-4.461,-4.461,-4.461,-4.461,-4.461,-4.461,-4.461,-4.461,-4.461,-4.461,-4.461,-4.461,-4.461,-4.461,-4.461,-4.461,-4.461,-4.461,-4.461,-4.461,-4.461,-4.461,-4.461,-4.461,-4.461,-4.461,-4.461,-4.461,-4.461,-4.461,-4.461,-4.461,-4.461,-4.461,-4.461,-4.461,-4.461,-4.461,-4.461,-4.461,-4.461,-4.4135,-4.4058,-4.4572,-4.3654,-4.3324,-4.3849,-4.2801,-4.2097,-4.1726,-4.1726,-4.1726,-4.1726,-4.1726,-4.1726,-3.2167,0.0,0.0,0.0,0.0,0.0,0.0,0.0,0.0,0.0,0.0,0.0,0.0,0.0,0.0,0.0,0.0,0.0,0.0,0.0,0.0,0.0,0.0,0.0,0.0,0.0,0.0,0.0,0.0,0.0,-3.7747,-4.0229,-4.1601,-4.1601,-4.0858,-4.0489,-4.0489,-4.0489,-4.0489,-4.0489,-4.0489,-4.0489,-4.0489,-4.0489,-4.0489,-4.0536,-4.1294,-4.1986,-4.2663,-4.331,-4.4009,-4.461,-4.461,-4.461,-4.461,-4.461,-4.461,-4.461,-4.461,-4.461,-4.461,-4.461,-4.461,-4.461,-4.461,-4.461,-4.461,-4.461,-4.461,-4.461,-4.461,-4.461,-4.461,-4.461,-4.461,-4.461,-4.461,-4.461,-4.461,-4.461,-4.461,-4.461,-4.461,-4.461,-4.461,-4.461,-4.461,-4.461,-4.461,-4.461,-4.461,-4.461,-4.461,-4.4496,-4.4251,-4.4251,-4.4251,-4.4251,-4.3442,-4.3324,-4.4212,-4.2805,-4.2319,-4.2926,-4.1657,-4.0859,-4.0603,-4.0603,-4.0475,-4.023,-4.0475,-4.0603,0.0,0.0,0.0,-3.0177,0.0,0.0,0.0,0.0,-2.6463,0.0,0.0,0.0,0.0,0.0,0.0,0.0,0.0,0.0,0.0,0.0,0.0,0.0,0.0,0.0,0.0,0.0,0.0,0.0,0.0,0.0,-3.7286,-4.0025,-4.1601,-4.1601,-4.0858,-4.0489,-4.0489,-4.0489,-4.0489,-4.0489,-4.0489,-4.0489,-4.0489,-4.0489,-4.0489,-4.0536,-4.1294,-4.1986,-4.2663,-4.331,-4.4009,-4.461,-4.461,-4.461,-4.461,-4.461,-4.461,-4.461,-4.461,-4.461,-4.461,-4.461,-4.461,-4.461,-4.461,-4.461,-4.461,-4.461,-4.461,-4.461,-4.461,-4.461,-4.461,-4.461,-4.461,-4.461,-4.461,-4.461,-4.461,-4.461,-4.461,-4.461,-4.461,-4.461,-4.461,-4.461,-4.461,-4.461,-4.461,-4.461,-4.461,-4.461,-4.461,-4.4251,-4.3403,-4.3324,-4.3324,-4.3324,-4.2522,-4.2441,-4.3324,-4.2482,-4.2032,-4.2032,-4.199,-4.1505,-4.0603,-4.0603,-4.0158,-3.9336,-4.0187,-4.0603,0.0,0.0,-3.5232,-3.3741,0.0,0.0,0.0,0.0,0.0,0.0,0.0,0.0,0.0,0.0,0.0,0.0,0.0,0.0,0.0,0.0,0.0,0.0,0.0,0.0,0.0,0.0,0.0,0.0,0.0,0.0,0.0,-3.7315,-3.9864,-3.9419,-4.0578,-4.1001,-4.0489,-4.0489,-4.0489,-4.0489,-4.0489,-4.0489,-4.0489,-4.0489,-4.0489,-4.0505,-4.0751,-4.1294,-4.1986,-4.2648,-4.3325,-4.3994,-4.444,-4.461,-4.461,-4.461,-4.461,-4.461,-4.461,-4.461,-4.461,-4.461,-4.461,-4.461,-4.461,-4.461,-4.461,-4.461,-4.461,-4.461,-4.461,-4.461,-4.461,-4.461,-4.461,-4.461,-4.461,-4.461,-4.461,-4.461,-4.461,-4.461,-4.461,-4.461,-4.461,-4.461,-4.461,-4.461,-4.461,-4.461,-4.461,-4.461,-4.461,-4.4496,-4.4174,-4.3654,-4.3031,-4.2482,-4.1589,-4.1505,-4.2386,-4.1015,-4.0474,-4.1071,-4.0517,-4.0055,-3.9749,-3.9749,-3.9587,-3.9305,-3.9587,-3.9749,-3.7002,-3.6716,0.0,-3.5267,-3.3048,0.0,-3.0048,0.0,0.0,0.0,0.0,0.0,0.0,0.0,0.0,0.0,0.0,0.0,0.0,-1.7355,0.0,0.0,0.0,0.0,0.0,0.0,0.0,0.0,0.0,0.0,0.0,0.0,-3.8494,-3.8328,-4.0439,-4.1263,-4.0505,-4.0489,-4.0489,-4.0489,-4.0489,-4.0489,-4.0489,-4.0489,-4.0335,-4.0076,-4.0076,-4.0314,-4.0831,-4.1769,-4.2587,-4.3281,-4.4234,-4.461,-4.461,-4.461,-4.461,-4.461,-4.461,-4.461,-4.461,-4.461,-4.461,-4.461,-4.461,-4.461,-4.461,-4.461,-4.461,-4.461,-4.461,-4.461,-4.461,-4.461,-4.461,-4.461,-4.461,-4.461,-4.461,-4.461,-4.461,-4.461,-4.461,-4.461,-4.461,-4.461,-4.461,-4.4496,-4.4174,-4.4135,-4.4135,-4.4135,-4.4135,-4.4004,-4.3693,-4.2574,-4.1755,-4.1505,-4.066,-4.0532,-4.1463,-4.0085,-3.9543,-4.0114,-3.9587,-3.9305,-3.9305,-3.9305,-3.9305,-3.9305,-3.9305,-3.9305]},{"header":{"parameterUnit":"m.s-1","parameterCategory":1,"la1":30.6,"la2":29.2853,"lo1":-89.7004,"lo2":-87.6739,"dy":0.0162,"dx":0.0183,"nx":112,"ny":82,"refTime":"2024-04-20T12:00:00:Z","depth":0,"parameterNumber":3,"parameterNumberName":"V-component_of_WINDS"},"data":[0.0,0.0,0.0,0.0,0.0,0.0,0.0,0.0,0.0,0.0,0.0,0.0,0.0,0.0,0.0,0.0,0.0,0.0,0.0,0.0,0.0,0.0,0.0,0.0,0.0,0.0,0.0,0.0,0.0,0.0,0.0,0.0,0.0,0.0,0.0,0.0,0.0,0.0,0.0,0.0,0.0,0.0,0.0,0.0,0.0,0.0,0.0,0.0,0.0,0.0,0.0,0.0,0.0,0.0,0.0,0.0,0.0,0.0,0.0,0.0,0.0,0.0,0.0,0.0,0.0,0.0,0.0,0.0,0.0,0.0,0.0,0.0,0.0,0.0,0.0,0.0,0.0,0.0,0.0,0.0,0.0,0.0,0.0,0.0,0.0,0.0,0.0,0.0,0.0,0.0,0.0,0.6393,0.7455,0.8068,0.814,0.8441,0.7925,0.6309,0.0,0.0,0.0,0.0,0.0,0.0,0.0,0.0,0.0,0.0,0.0,0.0,0.0,0.0,0.0,0.0,0.0,0.0,0.0,0.0,0.0,0.0,0.0,0.0,0.0,0.0,0.0,0.0,0.0,0.0,0.0,0.0,0.0,0.0,0.0,0.0,0.0,0.0,0.0,0.0,0.0,0.0,0.0,0.0,0.0,0.0,0.0,0.0,0.0,0.0,0.0,0.0,0.0,0.0,0.0,0.0,0.0,0.0,0.0,0.0,0.0,0.0,0.0,0.0,0.0,0.0,0.0,0.0,0.0,0.0,0.0,0.0,0.0,0.0,0.0,0.0,0.0,0.0,0.0,0.0,0.0,0.0,0.0,0.0,0.0,0.0,0.0,0.0,0.0,0.0,0.0,0.0,0.0,0.0,0.0,0.0,0.0,0.0,0.0,0.0,0.0,0.0,0.0,0.0,0.5735,0.7409,0.7736,0.7991,0.8327,0.8255,0.7618,0.6281,0.0,0.0,0.0,0.0,0.0,0.0,0.0,0.0,0.0,0.0,0.0,0.0,0.0,0.0,0.0,0.0,0.0,0.0,0.0,0.0,0.0,0.0,0.0,0.0,0.0,0.0,0.0,0.0,0.0,0.0,0.0,0.0,0.0,0.0,0.0,0.0,0.0,0.0,0.0,0.0,0.0,0.0,0.0,0.0,0.0,0.0,0.0,0.0,0.0,0.0,0.0,0.0,0.0,0.0,0.0,0.0,0.0,0.0,0.0,0.0,0.0,0.0,0.0,0.0,0.0,0.0,0.0,0.0,0.0,0.0,0.0,0.0,0.0,0.0,0.0,0.0,0.0,0.0,0.0,0.0,0.0,0.0,0.0,0.0,0.0,0.0,0.0,0.0,0.0,0.0,0.0,0.0,0.0,0.0,0.0,0.0,0.0,0.0,0.0,0.0,0.0,0.0,0.0,0.5779,0.7073,0.788,0.8063,0.8217,0.8365,0.8327,0.7719,0.6387,0.5951,0.0,0.0,0.0,0.0,0.0,0.0,0.0,0.0,0.0,0.0,0.0,0.0,0.0,0.0,0.0,0.0,0.0,0.0,0.0,0.0,0.0,0.0,0.0,0.0,0.0,0.0,0.0,0.0,0.0,0.0,0.0,0.0,0.0,0.0,0.0,0.0,0.0,0.0,0.0,0.0,0.0,0.0,0.0,0.0,0.0,0.0,0.0,0.0,0.0,0.0,0.0,0.0,0.0,0.0,0.0,0.0,0.0,0.0,0.0,0.0,0.0,0.0,0.0,0.0,0.0,0.0,0.0,0.0,0.0,0.0,0.0,0.0,0.0,0.0,0.0,0.0,0.0,0.0,0.0,0.0,0.0,0.0,0.0,0.0,0.0,0.0,0.0,0.0,0.0,0.0,0.0,0.0,0.0,0.0,0.0,0.0,0.0,0.0,0.0,0.0,0.0,0.0,0.6792,0.7802,0.8089,0.825,0.8365,0.8403,0.8365,0.775,0.6437,0.5852,0.0,0.0,0.0,0.0,0.0,0.0,0.0,0.0,0.0,0.0,0.0,0.0,0.0,0.0,0.0,0.0,0.0,0.0,0.0,0.0,0.0,0.0,0.0,0.0,0.0,0.0,0.0,0.0,0.0,0.0,0.0,0.0,0.0,0.0,0.0,0.0,0.0,0.0,0.0,0.0,0.0,0.0,0.0,0.0,0.0,0.0,0.0,0.0,0.0,0.0,0.0,0.0,0.0,0.0,0.0,0.0,0.0,0.0,0.0,0.0,0.0,0.0,0.0,0.0,0.0,0.0,0.0,0.0,0.0,0.0,0.0,0.0,0.0,0.0,0.0,0.0,0.0,0.0,0.0,0.0,0.0,0.0,0.0,0.0,0.0,0.0,0.0,0.0,0.0,0.0,0.0,0.0,0.0,0.0,0.0,0.0,0.0,0.0,0.0,0.0,0.0,0.0,0.6089,0.7007,0.8007,0.8106,0.8178,0.8365,0.8217,0.7583,0.6309,0.5931,0.0,0.0,0.0,0.0,0.0,0.0,0.0,0.0,0.0,0.0,0.0,0.0,0.0,0.0,0.0,0.0,0.0,0.0,0.0,0.0,0.0,0.0,0.0,0.0,0.0,0.0,0.0,0.0,0.0,0.0,0.0,0.0,0.0,0.0,0.0,0.0,0.0,0.0,0.0,0.0,0.0,0.0,0.0,0.0,0.0,0.0,0.0,0.0,0.0,0.0,0.0,0.0,0.0,0.0,0.0,0.0,0.0,0.0,0.0,0.0,0.0,0.0,0.0,0.0,0.0,0.0,0.0,0.0,0.0,0.0,0.0,0.0,0.0,0.0,0.0,0.0,0.0,0.0,0.0,0.0,0.0,0.0,0.0,0.0,0.0,0.0,0.0,0.0,0.0,0.0,0.0,0.0,0.0,0.0,0.0,0.0,0.0,0.0,0.0,0.0,0.0,0.0,0.6716,0.7781,0.0,0.8102,0.814,0.8217,0.814,0.7509,0.6105,0.0,0.0,0.0,0.0,0.0,0.0,0.0,0.0,0.0,0.0,0.0,0.0,0.0,0.0,0.0,0.0,0.0,0.0,0.0,0.0,0.0,0.0,0.0,0.0,0.0,0.0,0.0,0.0,0.0,0.0,0.0,0.0,0.0,0.0,0.0,0.0,0.0,0.0,0.0,0.0,0.0,0.0,0.0,0.0,0.0,0.0,0.0,0.0,0.0,0.0,0.0,0.0,0.0,0.0,0.0,0.0,0.0,0.0,0.0,0.0,0.0,0.0,0.0,0.0,0.0,0.0,0.0,0.0,0.0,0.0,0.0,0.0,0.0,0.0,0.0,0.0,0.0,0.0,0.0,0.0,0.0,0.0,0.0,0.0,0.0,0.0,0.0,0.0,0.0,0.0,0.0,0.0,0.0,0.0,0.0,0.0,0.0,0.0,0.0,0.0,0.0,0.0,0.5373,0.7101,0.8289,0.0,0.814,0.8102,0.8102,0.8327,0.775,0.6013,0.0,0.0,0.0,0.0,0.0,0.0,0.0,0.0,0.0,0.0,0.0,0.0,0.0,0.0,0.0,0.0,0.0,0.0,0.0,0.0,0.0,0.0,0.0,0.0,0.0,0.0,0.0,0.0,0.0,0.0,0.0,0.0,0.0,0.0,0.0,0.0,0.0,0.0,0.0,0.0,0.0,0.0,0.0,0.0,0.0,0.0,0.0,0.0,0.0,0.0,0.0,0.0,0.0,0.0,0.0,0.0,0.0,0.0,0.0,0.0,0.0,0.0,0.0,0.0,0.0,0.0,0.0,0.0,0.0,0.0,0.0,0.0,0.0,0.0,0.0,0.0,0.0,0.0,0.0,0.0,0.0,0.0,0.0,0.0,0.0,0.0,0.0,0.0,0.0,0.0,0.0,0.0,0.0,0.0,0.0,0.0,0.0,0.0,0.0,0.0,0.0,0.0,0.5264,0.6933,0.8178,0.8365,0.8217,0.8102,0.8102,0.8813,0.8329,0.0,0.0,0.0,0.0,0.0,0.0,0.0,0.0,0.0,0.0,0.0,0.0,0.0,0.0,0.0,0.0,0.0,0.0,0.0,0.0,0.0,0.0,0.0,0.0,0.0,0.0,0.0,0.0,0.0,0.0,0.0,0.0,0.0,0.0,0.0,0.0,0.0,0.0,0.0,0.0,0.0,0.0,0.0,0.0,0.0,0.0,0.0,0.0,0.0,0.0,0.0,0.0,0.0,0.0,0.0,0.0,0.0,0.0,0.0,0.0,0.0,0.0,0.0,0.0,0.0,0.0,0.0,0.0,0.0,0.0,0.0,0.0,0.0,0.0,0.0,0.0,0.0,0.0,0.0,0.0,0.0,0.0,0.0,0.0,0.0,0.0,0.0,0.0,0.0,0.0,0.0,0.0,0.0,0.0,0.0,0.0,0.0,0.0,0.0,0.0,0.0,0.0,0.0,0.5159,0.7,0.8217,0.7991,0.7915,0.7838,0.7676,0.8021,0.7509,0.5795,0.0,0.0,0.0,0.0,0.0,0.0,0.0,0.0,0.0,0.0,0.0,0.0,0.0,0.0,0.0,0.0,0.0,0.0,0.0,0.0,0.0,0.0,0.0,0.0,0.0,0.0,0.0,0.0,0.0,0.0,0.0,0.0,0.0,0.0,0.0,0.0,0.0,0.0,0.0,0.0,0.0,0.0,0.0,0.0,0.0,0.0,0.0,0.0,0.0,0.0,0.0,0.0,0.0,0.0,0.0,0.0,0.0,0.0,0.0,0.0,0.0,0.0,0.0,0.0,0.0,0.0,0.0,0.0,0.0,0.0,0.0,0.0,0.0,0.0,0.0,0.0,0.0,0.0,0.0,0.0,0.0,0.0,0.0,0.0,0.0,0.0,0.0,0.0,0.0,0.0,0.0,0.0,0.0,0.0,0.0,0.0,0.0,0.0,0.0,0.0,0.0,0.0,0.5186,0.7333,0.8775,0.8551,0.8737,0.8808,0.8727,0.9112,0.873,0.7284,0.0,0.0,0.0,0.0,0.0,0.0,0.0,0.0,0.0,0.0,0.0,0.0,0.0,0.0,0.0,0.0,0.0,0.0,0.0,0.0,0.0,0.0,0.0,0.0,0.0,0.0,0.0,0.0,0.0,0.0,0.0,0.0,0.0,0.0,0.0,0.0,0.0,0.0,0.0,0.0,0.0,0.0,0.0,0.0,0.0,0.0,0.0,0.0,0.0,0.0,0.0,0.0,0.0,0.0,0.0,0.0,0.0,0.0,0.0,0.0,0.0,0.0,0.0,0.0,0.0,0.0,0.0,0.0,0.0,0.0,0.0,0.0,0.0,0.0,0.0,0.0,0.0,0.0,0.0,0.0,0.0,0.0,0.0,0.0,0.0,0.0,0.0,0.0,0.0,0.0,0.0,0.0,0.0,0.0,0.0,0.0,0.0,0.0,0.0,0.0,0.0,0.0,0.5393,0.7952,0.9706,0.9706,1.0169,1.049,1.0453,1.1136,1.0968,0.963,0.0,0.0,0.0,0.0,0.0,0.0,0.0,0.0,0.0,0.0,0.0,0.0,0.0,0.0,0.0,0.0,0.0,0.0,0.0,0.0,0.0,0.0,0.0,0.0,0.0,0.0,0.0,0.0,0.0,0.0,0.0,0.0,0.0,0.0,0.0,0.0,0.0,0.0,0.0,0.0,0.0,0.0,0.0,0.0,0.0,0.0,0.0,0.0,0.0,0.0,0.0,0.0,0.0,0.0,0.0,0.0,0.0,0.0,0.0,0.0,1.0004,0.0,0.0,0.0,0.0,0.0,0.0,0.0,0.0,0.0,0.0,0.0,0.0,0.0,0.0,0.0,0.0,0.0,0.0,0.0,0.0,0.0,0.0,0.0,0.0,0.0,0.0,0.0,0.0,0.0,0.0,0.0,0.0,0.0,0.0,0.0,0.0,0.0,0.0,0.0,0.0,0.0,0.6309,0.887,1.0617,1.0418,1.0464,1.0378,1.004,1.0346,1.0103,0.9203,0.0,0.0,0.0,0.0,0.0,0.0,0.0,0.0,0.0,0.0,0.0,0.0,0.0,0.0,0.0,0.0,0.0,0.0,0.0,0.0,0.0,0.0,0.0,0.0,0.0,0.0,0.0,0.0,0.0,0.0,0.0,0.0,0.0,0.0,0.0,0.0,0.0,0.0,0.0,0.0,0.0,0.0,0.0,0.0,0.0,0.0,0.0,0.0,0.0,0.0,0.0,0.0,0.0,0.0,0.0,0.0,0.0,0.0,0.0,0.0,0.0,1.0776,0.0,0.0,0.0,0.0,0.0,0.0,0.0,0.0,0.0,0.0,0.0,0.0,0.0,0.0,0.0,0.0,0.0,0.0,0.0,0.0,0.0,0.0,0.0,0.0,0.0,0.0,0.0,0.0,0.0,0.0,0.0,0.0,0.0,0.0,0.0,0.0,0.0,0.0,0.0,0.0,0.6606,0.9635,1.1648,1.1361,1.1638,1.1721,1.1366,1.1434,1.1301,1.0908,0.997,0.0,0.0,0.0,0.0,0.0,0.0,0.0,0.0,0.0,0.0,0.0,0.0,0.0,0.0,0.0,0.0,0.0,0.0,0.0,0.0,0.0,0.0,0.0,0.0,0.0,0.0,0.0,0.0,0.0,0.0,0.0,0.0,0.0,0.0,0.0,0.0,0.0,0.0,0.0,0.0,0.0,0.0,0.0,0.0,0.0,0.0,0.0,0.0,0.0,0.0,0.0,0.0,0.0,0.0,1.1929,1.1706,1.188,1.1866,1.1746,1.3906,1.3811,1.2071,0.0,0.0,0.0,0.0,0.0,0.0,0.0,0.0,0.0,0.0,0.0,0.0,0.0,0.0,0.0,0.0,0.0,0.0,0.0,0.0,0.0,0.0,0.0,0.0,0.0,0.9625,0.968,0.0,0.0,0.0,0.0,0.0,0.0,0.0,0.0,0.0,0.0,0.0,0.0,0.687,1.0306,1.2685,1.2369,1.2961,1.3199,1.2894,1.2903,1.2882,1.279,1.1389,1.045,0.0,0.0,0.0,0.0,0.0,0.0,0.0,0.0,0.0,0.0,0.0,0.0,0.0,0.0,0.0,0.0,0.0,0.0,0.0,0.0,0.0,0.0,0.0,0.0,0.0,0.0,0.0,0.0,0.0,0.0,0.0,0.0,0.8965,1.0399,0.0,0.0,0.0,0.0,0.0,0.0,0.0,0.0,0.0,0.0,0.0,0.0,0.0,0.0,1.1823,1.349,1.4279,1.4245,1.5687,1.5961,1.5269,1.6252,1.5862,1.4519,1.5163,0.0,1.2557,1.2118,0.0,0.0,0.0,0.0,0.0,0.0,0.0,0.0,0.0,0.0,0.0,0.0,0.0,0.0,0.0,0.0,0.0,0.0,0.0,0.0,0.0,0.0,1.3189,1.3349,1.2215,1.1532,0.0,0.9592,0.653,0.78,0.0,0.0,0.0,0.0,0.0,0.0,0.0,0.0,0.7895,1.1174,1.3445,1.3405,1.3446,1.3279,1.2864,1.2913,1.2798,1.2392,1.2154,1.1487,1.032,1.182,0.0,0.0,0.0,0.0,0.0,0.0,0.0,0.0,0.0,0.0,0.0,0.0,0.0,0.0,0.0,0.0,0.0,0.0,0.0,0.0,0.0,0.0,0.0,0.0,0.0,0.0,0.0,0.0,0.0,0.8993,0.9853,1.1066,1.0635,1.0021,0.0,0.0,0.0,0.0,0.0,0.0,0.0,0.0,0.0,1.154,1.2092,1.2572,1.2921,1.396,1.4453,1.4453,1.5188,1.5383,1.5198,1.5681,1.5562,1.5008,1.5174,1.4781,1.3943,1.3274,1.2685,1.2073,0.0,0.0,0.0,0.0,0.0,0.9852,1.0353,0.0,0.0,0.0,0.0,0.0,0.0,0.0,0.0,0.0,0.0,0.0,0.0,0.0,0.0,1.3884,1.35,1.3121,1.3944,1.1498,0.936,0.0,0.8598,0.6905,0.5798,0.0,0.0,0.0,0.0,0.0,0.9776,1.2195,1.3828,1.362,1.3561,1.34,1.3072,1.2961,1.2799,1.2596,1.2621,1.2367,1.1805,1.2928,1.2387,0.0,0.0,0.0,0.0,0.0,0.0,0.0,0.0,0.0,0.0,0.0,0.0,0.0,0.0,0.0,0.0,0.0,0.0,0.0,0.0,0.0,0.0,0.0,0.0,0.0,0.0,0.0,0.0,0.9912,1.0584,1.1744,1.147,1.1064,0.0,0.0,0.0,0.0,0.0,0.0,1.1392,1.1894,1.2322,1.2705,1.3224,1.3588,1.3785,1.4207,1.4443,1.4443,1.4484,1.4617,1.4842,1.4889,1.5127,1.5481,1.5331,1.5324,1.5422,1.451,1.3685,1.2947,1.2664,1.2023,1.1236,1.1209,1.1204,1.127,1.1852,1.2365,1.2879,1.3168,0.0,1.1821,1.1546,0.0,0.0,0.0,0.0,1.0414,1.1684,0.0,1.2603,1.3803,1.4088,1.4088,1.4088,1.2733,1.163,0.0,1.0594,0.8849,0.7462,0.0,0.0,0.0,0.0,1.1113,1.111,1.2851,1.4001,1.374,1.372,1.36,1.3347,1.3106,1.2951,1.2797,1.2839,1.2866,1.29,1.3477,1.3192,1.1903,0.0,0.0,0.0,0.0,0.0,0.0,0.0,0.0,0.0,0.0,0.0,0.0,0.0,0.0,0.0,0.0,0.0,0.0,0.0,0.0,0.0,0.0,0.0,0.0,0.0,0.0,0.0,0.0,0.0,1.2703,1.272,0.0,0.0,0.0,0.0,1.1878,1.1835,1.2267,1.3225,1.3355,1.3544,1.3815,1.434,1.4624,1.4636,1.4896,1.5028,1.5079,1.5318,1.5463,1.5463,1.572,1.6219,1.6843,1.6153,1.6251,1.6811,1.5488,1.4903,1.4779,1.4099,1.366,1.3337,1.2583,1.2656,1.3067,1.296,1.3402,1.4006,1.4033,1.3178,1.1947,1.1304,1.0651,0.0,0.0,1.1233,1.2123,1.2302,1.3166,1.3986,1.4075,1.4088,1.4088,1.4088,1.2733,1.2011,0.0,1.2545,1.1255,1.0902,0.0,1.0282,0.8356,0.9813,1.1122,1.1189,1.2892,1.4082,1.4068,1.4062,1.3941,1.3606,1.3567,1.3353,1.2817,1.2808,1.2825,1.2914,1.2936,1.3259,1.3935,1.2148,0.0,0.0,0.0,0.0,0.0,0.0,0.0,0.0,0.0,0.0,0.0,0.0,0.0,0.0,0.0,0.0,0.0,0.0,0.0,0.0,0.0,0.0,0.0,0.0,0.0,0.0,0.0,0.0,1.2899,1.3003,0.0,0.0,1.2832,1.2947,1.2942,1.342,1.3845,1.423,1.4395,1.4582,1.4678,1.555,1.6043,1.6043,1.6147,1.6192,1.6192,1.555,1.5702,1.6537,1.6643,1.6932,1.7323,1.7032,1.6673,1.6275,1.5784,1.5468,1.5211,1.4782,1.4581,1.4479,1.4198,1.4197,1.4329,1.4285,1.4467,1.4693,1.4693,1.4349,1.3913,1.3658,1.3474,1.3284,1.3393,1.3522,1.3688,1.3743,1.393,1.4088,1.4088,1.4088,1.4088,1.4088,1.361,1.3355,1.3977,1.2685,1.145,1.127,1.2226,1.2392,1.0471,1.1806,1.3029,1.3044,1.3673,1.4088,1.4088,1.4088,1.4041,1.3941,1.3713,1.3548,1.3443,1.3467,1.3447,1.3287,1.3731,1.4021,1.4093,1.3616,1.2058,0.0,0.0,0.0,0.0,0.0,0.0,0.0,0.0,0.0,0.0,0.0,0.0,0.0,0.0,0.0,0.0,0.0,0.0,0.0,0.0,0.0,0.0,0.0,0.0,0.0,0.0,1.2491,1.3492,1.3545,1.3513,1.3513,1.3761,1.3954,1.4045,1.4545,1.4883,1.498,1.5228,1.5409,1.5499,1.6308,1.697,1.7378,1.7378,1.7585,1.7997,1.723,1.7126,1.7585,1.7585,1.7466,1.7337,1.7143,1.7018,1.6807,1.6555,1.6599,1.6755,1.6213,1.5777,1.5485,1.5737,1.5616,1.5224,1.5075,1.5008,1.5008,1.5008,1.5008,1.5008,1.5008,1.5008,1.5008,1.5008,1.4823,1.4669,1.4669,1.4529,1.4382,1.4382,1.4382,1.4382,1.4382,1.4087,1.3838,1.4186,1.3212,1.2211,1.1642,1.2603,1.2826,1.1126,1.1902,1.2682,1.2678,1.3041,1.3333,1.3367,1.3794,1.4088,1.4088,1.3416,1.3173,1.3699,1.3307,1.3232,1.3616,1.3507,1.337,1.3275,1.2897,1.1624,0.951,0.0,0.0,0.0,0.0,0.0,0.0,0.0,0.0,0.0,0.0,0.0,0.0,0.0,0.0,0.0,0.0,0.0,0.0,0.0,0.0,0.0,0.0,0.0,1.2437,1.3024,1.3699,1.4532,1.4488,1.438,1.4346,1.4588,1.4859,1.5164,1.52,1.5315,1.5627,1.5864,1.606,1.6314,1.6587,1.7272,1.8452,1.8472,1.914,2.0357,2.0357,1.9695,1.8479,1.8541,1.8017,1.7098,1.6624,1.7285,1.8669,1.7862,1.8331,1.9459,1.8337,1.7229,1.6447,1.7154,1.6744,1.5731,1.5211,1.5017,1.5062,1.5062,1.5055,1.5048,1.5048,1.5042,1.5035,1.5035,1.5028,1.5022,1.5022,1.5015,1.5008,1.5008,1.5008,1.5008,1.5008,1.4015,1.3417,1.4355,1.4309,1.3708,1.2297,1.2134,1.1721,1.0324,1.0054,0.0,1.0024,1.1116,1.1899,1.1944,1.322,1.4068,1.4088,1.2616,1.225,1.3526,1.2282,1.2231,1.3847,1.2183,1.1384,1.176,0.994,0.9929,1.1884,0.0,0.0,0.0,0.0,0.0,0.0,0.0,0.0,0.0,0.0,0.0,0.0,0.0,0.0,0.0,0.0,0.0,0.0,0.0,0.0,0.0,0.0,1.5262,1.4961,1.5304,1.56,1.5752,1.6147,1.6016,1.4977,1.53,1.5956,1.6905,1.7343,1.7989,1.8987,1.7855,1.7232,1.7311,1.7349,1.7502,1.7869,1.823,1.8609,1.894,1.8982,1.8816,1.8444,1.9318,1.9559,1.9331,1.9184,1.9431,1.9833,1.8683,1.8319,1.8475,1.7865,1.7428,1.7116,1.6563,1.6269,1.6107,1.5748,1.5885,1.6226,1.6226,1.6086,1.596,1.596,1.5758,1.5591,1.5591,1.5438,1.5277,1.5277,1.5169,1.5008,1.5008,1.5008,1.5008,1.5008,1.4711,1.4569,1.4792,1.4821,1.4495,1.3674,1.3539,1.3403,1.3012,1.295,0.0,1.2965,1.3259,1.3455,1.3509,1.2886,1.294,1.4006,1.2713,1.2452,0.0,1.3957,1.4027,1.4248,1.3991,1.3717,1.3438,1.1565,1.0838,0.0,0.0,0.0,0.0,0.0,0.0,0.0,0.0,0.0,0.0,0.0,0.0,0.0,0.0,0.0,0.0,0.0,0.0,0.0,0.0,0.0,0.0,1.5816,1.733,1.8113,1.769,1.7279,1.7267,1.7396,1.715,1.6253,1.6643,1.7073,1.7296,1.8024,1.865,1.9007,1.8029,1.747,1.747,1.8031,1.8523,1.8874,1.9845,2.0596,2.1095,2.1143,2.0866,2.0373,2.104,2.0946,0.0,1.9845,1.9862,2.0104,1.9481,1.937,0.0,0.0,0.0,0.0,0.0,1.6568,1.6275,1.6111,1.6356,1.6707,1.6707,1.6587,1.6453,1.6453,1.6002,1.5531,1.5531,1.508,1.47,1.5158,1.5078,1.4989,1.5438,1.5418,1.5331,1.5331,1.495,1.4682,1.5098,0.0,0.0,1.4472,1.3943,1.3258,1.2693,1.2457,1.236,0.0,1.2806,1.3121,1.3048,1.283,1.3029,1.4013,1.2715,0.0,0.0,0.0,1.3725,1.3431,1.3593,0.0,0.0,0.0,1.0537,1.1231,0.0,0.0,0.0,1.0171,0.9385,0.0,0.0,0.0,0.0,0.0,0.0,0.0,0.0,0.0,0.0,0.0,0.0,0.0,0.0,0.0,0.0,1.7327,1.8643,2.1092,2.0087,1.9036,1.8958,1.8606,1.8202,1.7728,1.8326,1.8317,1.7235,1.8295,1.87,1.8027,0.0,0.0,0.0,0.0,1.9827,2.0659,2.2096,2.332,2.4359,2.4535,2.3952,2.2805,2.2918,2.2132,2.0647,1.9773,1.9743,2.0361,2.0458,2.1046,2.1726,2.0514,1.9187,1.8003,1.7957,1.7316,0.0,0.0,0.0,0.0,1.6807,1.673,1.671,1.6754,1.605,1.5282,1.5282,1.4606,1.4085,1.5023,1.5107,1.5181,1.6113,1.6119,1.5871,1.5838,1.5006,1.4487,1.5312,1.4583,1.4093,1.4967,1.3856,1.2433,1.1202,1.0658,1.043,1.0428,1.1392,1.2028,1.189,0.0,0.0,1.4033,1.2595,1.2547,1.4511,1.3489,1.2693,1.2374,1.238,1.1465,0.9491,0.9447,1.0184,1.1694,1.1895,1.2826,1.4372,1.1076,1.0502,0.0,0.0,0.0,0.0,0.0,0.0,0.0,0.0,0.0,0.0,0.0,0.0,0.0,0.0,0.0,1.8414,1.9595,2.0667,2.1503,2.1753,2.1478,2.0577,2.0845,2.0408,1.851,1.9513,2.0177,1.9954,2.1313,2.2464,2.3279,2.1963,0.0,2.1224,2.0574,2.0292,2.0446,2.1126,2.1586,2.1813,0.0,0.0,2.1472,2.2515,2.2847,2.2496,2.2286,2.2807,2.3756,2.2863,2.2379,2.2135,2.0713,1.9308,1.8063,1.7742,1.7649,1.7662,1.7395,1.7662,1.7936,1.7317,1.6905,1.676,1.7016,1.6753,0.0,1.6371,1.6225,1.6143,1.6351,1.6331,1.6355,1.6557,1.658,1.6473,1.6239,1.6042,1.5833,1.5744,1.555,1.5423,1.5611,1.5034,1.4428,1.4148,1.3817,1.3623,1.3615,1.3639,1.3633,1.3622,1.2792,1.2638,1.3698,1.2447,1.2354,1.4126,1.4633,1.4805,1.4667,1.4652,1.4245,1.3395,1.3493,1.3737,1.4039,1.4252,1.4539,1.4874,1.3916,1.3726,0.0,0.0,0.0,0.0,0.0,0.0,0.0,0.0,0.0,0.0,0.0,1.6295,1.7136,0.0,1.8161,1.9723,2.055,2.127,2.2085,2.2731,2.279,2.1784,2.1932,2.1719,2.0556,2.1327,2.1579,2.0945,2.2189,2.2974,2.2966,2.2132,2.1593,2.1424,2.1585,2.1656,2.1487,2.2489,2.2966,2.2974,2.3608,2.3552,2.2966,2.3608,2.3896,2.3896,2.3263,2.3328,2.384,2.3263,2.3215,2.3464,2.1884,2.0768,1.9938,1.9134,1.8623,1.8215,1.8042,1.7795,1.7575,1.7747,1.7279,1.6742,1.7114,1.6697,1.6202,1.6311,1.5948,1.567,1.6221,1.6258,1.6294,1.6843,1.6814,1.6667,1.652,1.6486,1.64,1.6112,1.6052,1.6005,1.5804,1.5585,1.5344,1.5204,1.493,1.4689,1.4536,1.4604,1.4455,1.3968,1.3677,1.3658,1.4041,1.3705,1.3871,1.4699,1.5166,1.5384,1.5353,1.5346,1.515,1.4714,1.4786,1.4744,1.4582,1.4769,1.4839,1.4832,1.4834,1.486,0.0,0.0,0.0,0.0,0.0,0.0,0.0,0.0,1.8065,1.7814,1.7802,1.8162,1.9306,1.8844,1.8893,2.0814,2.1178,2.1664,2.2854,2.3483,2.3589,2.2959,2.2814,2.2686,2.2529,2.3031,2.2805,2.1586,2.2628,2.2918,2.1877,2.182,2.17,2.1491,2.2711,2.3246,2.3019,2.4216,2.4821,2.4821,2.4821,2.4821,2.4821,2.4821,2.4821,2.4765,2.3784,2.332,2.332,2.332,2.3896,2.4676,2.3392,2.2707,2.2387,2.1,1.9924,1.9116,1.884,1.811,1.7384,1.7874,1.7411,1.6683,1.7008,1.6472,1.5873,1.6295,1.5712,1.5179,1.618,1.6234,1.6228,1.7071,1.7048,1.686,1.6807,1.6794,1.6707,1.6413,1.6359,1.6315,1.6061,1.6055,1.5913,1.5524,1.5237,1.4963,1.4723,1.4943,1.4872,1.4061,1.4628,1.4902,1.4447,1.4999,1.5298,1.5257,1.534,1.5389,1.5389,1.5389,1.5265,1.5002,1.4995,1.4911,1.4695,1.4766,1.4853,1.4845,1.5027,1.5233,1.5942,1.3475,1.2486,1.4102,1.6015,1.7712,0.0,0.0,2.219,2.0826,2.1421,2.2085,2.1819,2.1744,2.1867,2.2221,2.2409,2.2879,2.39,2.4091,2.4244,2.4484,2.4191,2.3749,2.2999,2.3927,2.4128,2.2862,2.3896,2.4535,2.4415,2.4415,2.4398,2.4356,2.4509,2.4573,2.4531,2.474,2.4821,2.4821,2.4821,2.4821,2.4821,2.4821,2.4821,2.4765,2.4654,2.459,2.459,2.459,2.471,2.4765,2.4603,2.4497,2.4268,2.2327,2.1633,2.1433,2.036,1.9761,1.9167,1.7423,1.6624,1.6371,1.6683,1.6658,1.6738,1.7542,1.7364,1.7081,1.7889,1.7771,1.739,1.7528,1.7508,1.7415,1.7206,1.7152,1.7065,1.6714,1.666,1.6709,1.685,1.6891,1.6594,1.5872,1.5531,1.5337,1.5304,1.5115,1.5018,1.5009,1.4952,1.4799,1.4419,1.4873,1.5041,1.4776,1.5173,1.5389,1.5389,1.5389,1.5374,1.533,1.533,1.5316,1.5279,1.5321,1.5321,1.5321,1.5546,1.5524,1.7439,0.0,0.0,0.0,1.9938,2.167,2.2062,2.3246,2.4,2.3107,2.2876,2.2922,2.3187,2.2094,2.1512,0.0,2.297,2.3288,2.3883,2.4582,2.5009,2.4804,2.3913,2.3135,2.2775,2.4003,2.4211,2.2863,2.4011,2.4821,2.4821,2.4654,2.4543,2.4543,2.4368,2.4256,2.4256,2.4487,2.4543,2.4543,2.471,2.4821,2.4821,2.4821,2.4821,2.4821,2.4821,2.4821,2.4821,2.4821,2.4821,2.4795,2.4564,2.456,2.4612,2.3044,2.2676,2.2763,2.1783,2.0627,1.9481,1.8912,1.7636,1.6337,1.6607,1.7077,1.7417,1.7265,1.7799,1.8384,1.822,1.8213,1.8363,1.8534,1.8586,1.8551,1.8476,1.813,1.7833,1.753,1.7215,1.7069,1.7267,1.7107,1.6994,1.7019,1.6501,1.6051,1.5826,1.5962,1.6099,1.6193,1.5763,1.5469,1.5396,1.5416,1.5409,1.5276,1.5382,1.5389,1.5389,1.5389,1.5389,1.5389,1.5389,1.5389,1.5389,1.5389,1.5389,1.5389,1.5506,1.5558,1.8269,0.0,0.0,2.0944,2.246,2.3955,2.4439,2.4723,2.4798,2.4553,2.38,2.3336,2.3881,2.2531,2.1777,2.3255,2.3659,2.3975,2.4487,2.5392,2.558,2.4548,2.3508,2.2433,2.1471,2.3082,2.3919,2.3131,2.4105,2.4654,2.4543,2.4376,2.4264,2.4264,2.4033,2.3921,2.4033,2.4264,2.4432,2.4487,2.471,2.4821,2.4821,2.4821,2.4821,2.4821,2.4979,2.5034,2.5034,2.5255,2.5302,2.5276,2.4988,2.4948,2.4923,2.4055,2.377,2.3749,2.2861,2.168,2.0515,2.0592,1.9384,1.7879,1.7947,1.8177,1.8461,1.8197,1.8726,1.9309,1.8893,1.8982,1.9131,1.9056,1.9108,1.916,1.916,1.89,1.8568,1.84,1.7888,1.7637,1.8039,1.7739,1.7708,1.8357,1.7724,1.6979,1.6433,1.6627,1.6802,1.6773,1.6417,1.6179,1.6114,1.5959,1.5858,1.5824,1.5665,1.5555,1.5506,1.5458,1.5465,1.5389,1.5389,1.5389,1.5389,1.5389,1.5389,1.5389,1.5389,1.5465,0.0,0.0,1.7438,2.0383,2.1841,2.3012,2.4869,2.5079,2.4883,2.4864,2.452,2.4084,2.3786,2.3741,2.3927,2.4376,2.481,2.5416,2.6363,2.6536,2.5846,2.3758,2.3482,2.2102,0.0,2.0912,2.3131,2.4278,2.4376,2.4264,2.3921,2.3921,2.3921,2.3921,2.3921,2.4033,2.4376,2.4376,2.4543,2.4765,2.4821,2.4821,2.4821,2.4821,2.4821,2.4821,2.5412,2.5688,2.5743,2.6273,2.6545,2.6545,2.6536,2.6163,2.5688,2.5624,2.5238,2.4573,2.3424,2.3164,2.3176,2.1962,2.1713,2.1846,2.1256,2.0437,2.0016,2.1293,2.0649,1.979,2.0621,2.0408,1.9679,1.8677,1.8624,1.8826,1.8826,1.9049,1.9272,1.9264,1.8781,1.8622,1.9391,1.9063,1.8937,1.9705,1.9078,1.8175,1.7102,1.6863,1.6752,1.6517,1.6746,1.6696,1.6219,1.6297,1.6319,1.6087,1.6087,1.5955,1.5692,1.5692,1.5616,1.5389,1.5389,1.5389,1.5389,1.5389,1.5389,1.5389,1.5389,1.5389,0.0,0.0,2.0261,2.1692,2.3334,2.4775,2.5412,2.5333,2.5137,2.4932,2.3766,2.2623,2.2125,2.1344,2.1278,2.2869,2.2748,2.3416,2.6209,2.4867,2.3974,2.4867,2.3353,0.0,0.0,0.0,0.0,2.1469,2.3244,2.4264,2.3921,2.3753,2.3697,2.3913,2.3753,2.3753,2.4089,2.432,2.4432,2.4543,2.5145,2.5412,2.5412,2.5412,2.52,2.4821,2.5034,2.5311,2.5743,2.5898,2.6227,2.66,2.66,2.6491,2.6282,2.6282,2.6172,2.5844,2.4629,2.4241,2.4154,2.3308,2.2726,2.2312,2.2149,2.2234,2.2392,2.2067,2.2424,2.2814,2.2252,2.2253,2.2246,2.175,2.1743,2.1591,2.0893,2.0534,2.013,1.9428,1.9554,1.9708,1.9684,2.0074,2.0192,1.972,1.9045,1.8326,1.7579,1.7284,1.7084,1.6978,1.7026,1.6935,1.6578,1.6521,1.6507,1.6423,1.6217,1.6046,1.5955,1.5782,1.594,1.6435,1.6345,1.6263,1.6263,1.6263,1.5989,1.5389,1.5389,1.5707,0.0,2.0395,2.222,2.3142,2.437,2.543,2.543,2.5137,2.4833,2.4784,2.3726,2.2509,2.1709,2.0785,2.0728,2.2583,2.2432,2.3289,2.6747,2.5523,2.4629,2.5449,2.394,0.0,0.0,0.0,0.0,2.0823,2.2656,2.3651,2.3158,2.315,2.3374,2.3857,2.3913,2.4024,2.4089,2.432,2.4432,2.4543,2.5302,2.5688,2.5688,2.5898,2.538,2.4378,2.5296,2.5434,2.502,2.6164,2.6718,2.6935,2.7098,2.7098,2.6881,2.6881,2.6763,2.6491,2.5734,2.5551,2.5626,2.5223,2.4876,2.455,2.4342,2.4416,2.4448,2.3953,2.4298,2.469,2.3895,2.3946,2.4108,2.3595,2.3437,2.3239,2.2528,2.1757,2.1097,2.0798,2.0672,2.0656,2.0944,2.1502,2.1667,2.0826,1.9998,1.9255,1.8464,1.8054,1.798,1.835,1.8006,1.7663,1.7528,1.7044,1.6903,1.7239,1.6952,1.6871,1.712,1.6497,1.655,1.7359,1.6903,1.6862,1.7147,1.7147,1.687,1.6312,1.6031,1.6345,2.1053,2.2395,2.3238,2.4577,2.4932,2.4932,2.4932,2.4529,2.4214,2.4328,2.4153,2.3563,0.0,0.0,2.1942,2.3402,2.3639,2.4689,2.7743,2.8072,2.7302,0.0,0.0,0.0,0.0,0.0,0.0,2.2348,0.0,2.2788,2.1937,2.2474,2.3122,2.4016,2.4565,2.474,2.4487,2.4487,2.4599,2.4923,2.5467,2.5743,2.5789,2.6382,2.5557,2.3796,2.6254,2.5982,2.3967,2.6964,2.7916,2.7485,2.8077,2.797,2.7431,2.7431,2.7098,2.6708,2.6708,2.6989,2.7377,2.7377,2.7809,2.8184,2.7647,2.6808,2.6224,2.6729,2.6237,2.5537,2.5528,2.5518,2.5249,2.4228,2.3852,2.3744,2.3693,2.2724,2.2156,2.3105,2.2064,2.1497,2.312,2.3329,2.3205,2.2881,2.1921,2.0859,1.9803,1.9166,1.9309,2.0458,1.9432,1.8795,1.9054,1.7905,1.7592,1.8541,1.8228,1.8355,1.9029,1.7845,1.7498,1.8178,1.7343,1.7294,1.8144,1.8086,1.8078,1.7997,1.7147,1.722,2.0663,2.2549,2.456,2.5333,2.5489,2.5489,2.5489,2.5235,2.4485,2.2723,2.1634,2.0271,0.0,0.0,0.0,2.1219,2.094,0.0,2.5713,2.5138,0.0,2.4791,0.0,2.5004,2.5424,2.6145,0.0,0.0,2.4717,2.511,2.4696,2.4806,2.5116,2.5542,2.5707,2.5881,2.6063,2.5569,2.5852,2.6727,2.65,2.6609,2.6999,2.7152,2.6707,2.5837,2.6499,2.6644,2.6443,2.7267,2.7809,2.8077,2.8237,2.8184,2.8077,2.8077,2.797,2.7853,2.7853,2.7647,2.7377,2.7377,2.7809,2.8291,2.813,2.7883,2.7743,2.7859,2.7728,2.7511,2.7203,2.7116,2.6935,2.6351,2.6148,2.5909,2.5127,2.4449,2.3865,2.327,2.2731,2.2844,2.4254,2.3818,2.3194,2.2898,2.2438,2.1784,2.0981,2.0,1.9641,2.0221,2.0146,2.014,2.0185,1.9973,1.9852,1.9896,1.9786,1.9775,1.9952,1.9486,1.9674,2.0658,1.9983,1.9714,1.9925,1.9421,1.8877,1.8221,1.7827,1.8118,2.2568,2.3962,2.5333,2.5635,2.5538,2.5092,2.4098,2.3692,2.2797,2.0289,1.9465,0.0,0.0,0.0,0.0,0.0,0.0,0.0,2.5004,2.4632,2.4211,0.0,2.4995,0.0,2.7194,2.7638,2.7318,0.0,2.5829,2.554,2.5123,2.5341,2.5747,2.6309,2.6536,2.6654,2.66,2.6282,2.6445,2.7043,2.6989,2.7098,2.7431,2.7647,2.7147,2.6045,0.0,2.6868,2.6108,2.7283,2.7755,2.7745,2.8023,2.813,2.813,2.797,2.8077,2.8291,2.8184,2.797,2.7809,2.7809,2.8023,2.8291,2.8291,2.8291,2.8291,2.8291,2.8291,2.8232,2.7998,2.7939,2.7881,2.7627,2.7441,2.714,2.6551,2.5703,2.4838,2.4017,2.4175,2.4625,2.5147,2.4775,2.4282,2.4134,2.3579,2.3102,2.297,2.1675,2.1044,2.1825,2.1419,2.1141,2.1221,2.0802,2.0678,2.0951,2.0755,2.0845,2.1269,2.0637,2.0713,2.1722,2.0977,2.0772,2.1159,2.0807,2.036,1.9856,1.9357,1.962,2.4976,2.5538,2.5693,2.5693,2.5333,2.4505,2.2584,2.1698,2.0594,1.8065,0.0,1.7319,1.5315,1.5158,1.6472,1.9937,0.0,2.1503,2.4461,2.5094,2.5228,2.5243,2.5167,2.5934,2.8096,2.797,2.7941,2.8281,2.6607,2.5371,2.4842,2.5317,2.5972,2.6808,2.726,2.7323,2.6817,2.6763,2.6763,2.6817,2.7206,2.7431,2.7539,2.8077,2.7302,2.5656,0.0,0.0,2.4877,2.7198,2.7755,2.7098,2.7638,2.7853,2.7799,2.7485,2.7755,2.813,2.796,2.8067,2.8237,2.8291,2.8291,2.8291,2.8291,2.8291,2.8291,2.8291,2.8291,2.8291,2.8291,2.8291,2.8291,2.8291,2.8018,2.7806,2.7806,2.6707,2.5609,2.515,2.5805,2.6269,2.584,2.5723,2.5693,2.5693,2.4913,2.4517,2.51,2.3588,2.2868,2.3969,2.285,2.2061,2.2183,2.1266,2.1051,2.1882,2.1593,2.1796,2.2598,2.1584,2.1343,2.2134,2.1337,2.1309,2.2046,2.1997,2.1926,2.1926,2.115,2.1191,2.3934,2.4698,2.5693,2.5693,2.5635,2.546,2.5064,2.3298,0.0,0.0,1.6802,1.5376,1.5265,1.5457,1.6776,2.0333,0.0,0.0,0.0,0.0,2.4981,0.0,0.0,0.0,0.0,0.0,0.0,0.0,0.0,0.0,2.7621,2.7737,2.7829,2.8014,2.8077,2.8077,2.8023,2.753,2.753,2.8023,2.7593,2.7647,2.813,2.8237,2.7975,2.746,0.0,0.0,2.6877,2.734,2.7485,2.7323,2.7431,2.7485,2.7485,2.7431,2.7485,2.7593,2.7799,2.7906,2.8014,2.8237,2.8291,2.8291,2.8291,2.8291,2.8291,2.8291,2.8291,2.8291,2.8291,2.8291,2.8291,2.8291,2.8232,2.8184,2.8184,2.7736,2.7162,2.6727,2.652,2.6367,2.6289,2.5977,2.5693,2.5693,2.5538,2.545,2.5577,2.4238,2.342,2.3812,2.3756,2.356,2.3261,2.3212,2.3169,2.3188,2.312,2.3168,2.3308,2.3099,2.3136,2.3438,2.3003,2.2824,2.295,2.2425,2.2164,2.2122,2.1834,2.1761,2.3881,2.4599,2.5693,2.5693,2.5693,2.5062,2.2549,0.0,0.0,0.0,1.3964,1.3228,1.3046,0.0,0.0,0.0,0.0,0.0,0.0,0.0,0.0,0.0,0.0,0.0,0.0,0.0,0.0,0.0,0.0,0.0,2.8228,2.8291,2.8291,2.8291,2.8291,2.8291,2.8291,2.8023,2.8023,2.8291,2.8023,2.8023,2.8291,2.8291,2.8237,2.813,2.813,0.0,2.6537,2.7488,2.7236,2.635,2.7273,2.7638,2.7638,2.7476,2.7593,2.7862,2.7906,2.8014,2.813,2.8237,2.8291,2.8291,2.8291,2.8291,2.8291,2.8291,2.8291,2.8291,2.8291,2.8291,2.8291,2.8291,2.8291,2.8291,2.8291,2.8135,2.7861,2.7441,2.7197,2.6982,2.6758,2.6357,2.6074,2.6074,2.584,2.5693,2.5693,2.5102,2.4584,2.4475,2.434,2.4081,2.3693,2.3742,2.3643,2.3329,2.3276,2.3276,2.3276,2.3276,2.3363,2.344,2.3242,2.3143,2.3143,2.285,2.2657,2.2657,2.2582,2.2539,2.4335,2.4913,2.5693,2.5693,2.5693,2.4599,2.041,1.906,0.0,0.0,1.1853,1.1707,1.1758,0.0,1.4179,0.0,0.0,0.0,0.0,0.0,0.0,0.0,0.0,0.0,0.0,0.0,0.0,0.0,0.0,0.0,2.8218,2.8291,2.8291,2.8291,2.8291,2.8291,2.8291,2.8291,2.8291,2.8291,2.8291,2.8291,2.8291,2.8291,2.8291,2.8237,2.8237,0.0,0.0,2.7393,2.6943,2.5308,2.7081,2.7799,2.7745,2.7485,2.7701,2.8077,2.796,2.8014,2.8237,2.8291,2.8291,2.8291,2.8291,2.8291,2.8291,2.8291,2.8291,2.8291,2.8291,2.8291,2.8291,2.8291,2.8291,2.8291,2.8291,2.8291,2.8193,2.7861,2.7777,2.7559,2.7217,2.6797,2.6494,2.6396,2.6103,2.5791,2.5703,2.5693,2.5605,2.5244,2.4814,2.4385,2.3965,2.3926,2.374,2.3257,2.3237,2.3188,2.3101,2.3091,2.3091,2.3091,2.3091,2.3091,2.3091,2.3091,2.3091,2.3091,2.3091,2.3091,2.513,2.5586,2.5693,2.5693,2.5693,2.5091,2.2824,0.0,0.0,1.5316,1.2774,1.1724,1.4079,1.4599,1.5826,0.0,0.0,1.9007,0.0,0.0,0.0,0.0,0.0,0.0,0.0,0.0,0.0,0.0,0.0,0.0,0.0,2.8291,2.8291,2.8291,2.8291,2.8291,2.8291,2.8291,2.8291,2.8291,2.8291,2.8291,2.8291,2.8291,2.8184,2.796,0.0,0.0,0.0,2.6758,2.6459,2.4986,2.6758,2.7431,2.7422,2.7431,2.7431,2.7539,2.7799,2.7906,2.796,2.8237,2.8291,2.8291,2.8291,2.8291,2.8291,2.8291,2.8291,2.8291,2.8291,2.8291,2.8291,2.8291,2.8291,2.8291,2.8291,2.8291,2.8281,2.8242,2.793,2.7708,2.7669,2.7246,2.6826,2.6445,2.6357,2.6182,2.5742,2.5693,2.5674,2.5635,2.5273,2.4834,2.4394,2.4355,2.418,2.376,2.373,2.3555,2.311,2.3091,2.3091,2.3091,2.3091,2.3091,2.3091,2.3091,2.3091,2.3091,2.3091,2.3091,2.2976,2.4283,2.5693,2.5693,2.5693,2.482,2.1499,0.0,1.7491,1.4175,1.2264,1.1533,1.2752,1.3007,1.3998,1.6998,0.0,0.0,0.0,0.0,0.0,0.0,0.0,0.0,0.0,0.0,0.0,0.0,0.0,0.0,0.0,2.8291,2.8291,2.8291,2.8291,2.8291,2.8291,2.8291,2.8291,2.8291,2.8291,2.8291,2.8291,2.8291,2.8237,2.813,0.0,0.0,0.0,2.6745,2.6249,2.3941,2.6817,2.7916,2.7916,2.7916,2.7916,2.797,2.8077,2.813,2.8184,2.8291,2.8291,2.8291,2.8291,2.8291,2.8291,2.8291,2.8291,2.8291,2.8291,2.8291,2.8291,2.8291,2.8291,2.8291,2.8291,2.8291,2.8291,2.8291,2.8154,2.8047,2.8047,2.7695,2.7353,2.7187,2.6719,2.6328,2.6152,2.5849,2.5693,2.5693,2.5576,2.5293,2.4844,2.4805,2.4629,2.4199,2.417,2.3975,2.3545,2.3525,2.3408,2.3101,2.3091,2.3091,2.3091,2.3091,2.3091,2.3091,2.3091,2.3091,2.1766,2.3649,2.5693,2.5693,2.5294,2.3961,0.0,0.0,1.6733,1.3237,1.1921,1.1502,1.1728,1.1797,1.2714,1.5372,0.0,1.8295,0.0,0.0,0.0,0.0,0.0,0.0,0.0,0.0,0.0,0.0,0.0,0.0,0.0,2.8291,2.8291,2.8291,2.8291,2.8291,2.8291,2.8291,2.8291,2.8291,2.8291,2.7999,2.7544,2.8062,2.7999,2.7544,0.0,0.0,0.0,2.7047,2.6479,2.4032,2.7119,2.8291,2.8291,2.8291,2.8291,2.8291,2.8291,2.8291,2.8291,2.8291,2.8291,2.8291,2.8291,2.8291,2.8291,2.8291,2.8291,2.8291,2.8291,2.8291,2.8291,2.8291,2.8291,2.8291,2.8291,2.8291,2.8291,2.8291,2.8291,2.8291,2.8291,2.8047,2.7865,2.7738,2.7158,2.667,2.6426,2.6123,2.583,2.5703,2.5693,2.5605,2.5293,2.5264,2.5078,2.4639,2.4609,2.4414,2.3994,2.3975,2.3828,2.3481,2.3471,2.3471,2.3471,2.3471,2.3471,2.3471,2.3471,2.3403,2.2505,2.4314,2.5693,2.5693,2.4305,2.2404,0.0,0.0,1.5342,1.3243,1.2219,1.1753,1.1877,1.1902,1.2821,1.5648,1.6645,0.0,0.0,0.0,0.0,0.0,0.0,0.0,0.0,0.0,0.0,0.0,0.0,0.0,0.0,2.8291,2.8291,2.8291,2.8291,2.8291,2.8291,2.8291,2.8291,2.8291,2.8291,2.7336,2.5681,2.7481,2.7327,0.0,0.0,0.0,0.0,2.7544,2.7191,2.5753,2.7617,2.8291,2.8291,2.8291,2.8291,2.8291,2.8291,2.8291,2.8291,2.8291,2.8291,2.8291,2.8291,2.8291,2.8291,2.8291,2.8291,2.8291,2.8291,2.8291,2.8291,2.8291,2.8291,2.8291,2.8291,2.8291,2.8291,2.8291,2.8291,2.8291,2.8291,2.8291,2.8144,2.7777,2.7708,2.7344,2.6494,2.6387,2.6211,2.5732,2.5693,2.5693,2.5684,2.5684,2.5537,2.5135,2.5106,2.4863,2.4424,2.4414,2.4404,2.4404,2.4404,2.4404,2.4404,2.4404,2.4404,2.4404,2.4404,2.418,1.8365,1.9907,2.1247,2.0991,2.0732,2.0032,1.7984,0.0,1.5324,1.3355,1.2271,1.1778,1.2002,1.1952,1.2785,1.5514,1.6369,0.0,0.0,0.0,0.0,0.0,0.0,0.0,0.0,0.0,0.0,0.0,0.0,0.0,0.0,0.0,2.8291,2.8291,2.8291,2.8291,2.8291,2.8291,2.8291,2.8291,2.8291,2.7336,2.5672,2.7471,0.0,0.0,0.0,0.0,0.0,2.7544,2.7254,2.5753,2.7617,2.8291,2.8291,2.8291,2.8291,2.8291,2.8291,2.8291,2.8291,2.8291,2.8291,2.8291,2.8067,2.8121,2.8291,2.8291,2.8291,2.8237,2.8067,2.8014,2.796,2.7755,2.7701,2.7701,2.7701,2.7701,2.7701,2.7701,2.7853,2.796,2.7701,2.7853,2.7975,2.7839,2.7569,2.734,2.7295,2.7002,2.665,2.623,2.6182,2.6064,2.5713,2.5693,2.5625,2.5537,2.5527,2.5322,2.4883,2.4863,2.4717,2.4424,2.4414,2.4414,2.4414,2.4414,2.4598,2.4955,2.5341,2.5416,1.5991,1.7661,1.9098,1.8832,1.8453,1.7816,0.0,0.0,1.4288,1.3141,1.2942,1.2797,1.2214,1.2766,1.3679,1.4763,1.663,0.0,0.0,0.0,0.0,0.0,0.0,0.0,0.0,0.0,0.0,0.0,0.0,0.0,0.0,0.0,2.8291,2.8291,2.8291,2.8291,2.8291,2.8291,2.8291,2.8291,2.8291,2.7336,2.5672,2.7471,0.0,0.0,0.0,0.0,0.0,2.7844,2.7626,2.6739,2.7854,2.8291,2.8291,2.8291,2.8291,2.8291,2.8291,2.8291,2.8291,2.8291,2.8237,2.8077,2.7799,2.7853,2.797,2.797,2.797,2.7916,2.7745,2.7691,2.7638,2.7431,2.7377,2.7377,2.7377,2.7377,2.7377,2.7377,2.7593,2.7638,2.7431,2.7593,2.7691,2.7691,2.7569,2.7506,2.7519,2.737,2.7048,2.6509,2.6324,2.612,2.5799,2.5732,2.5693,2.5693,2.5693,2.5567,2.5332,2.5322,2.5195,2.4922,2.4865,2.4865,2.4865,2.51,2.5371,2.5688,2.6043,2.6246,0.0,1.7017,1.8428,1.84,1.7034,1.5681,1.5751,0.0,0.0,1.2799,1.4049,1.4582,1.2781,1.4304,1.5368,1.3865,0.0,0.0,0.0,0.0,0.0,0.0,0.0,0.0,0.0,0.0,0.0,0.0,0.0,0.0,0.0,0.0,2.8237,2.8237,2.8237,2.8237,2.8291,2.8291,2.8218,2.8135,2.8271,2.7317,2.5521,2.7409,0.0,0.0,0.0,0.0,0.0,2.8291,2.8291,2.8291,2.8291,2.8291,2.8291,2.8291,2.8291,2.8291,2.8291,2.8291,2.8291,2.8237,2.8077,2.7799,2.7476,2.7377,2.7377,2.7377,2.7377,2.7377,2.7377,2.7368,2.7377,2.7377,2.7323,2.7323,2.7323,2.7323,2.7323,2.7323,2.7377,2.7377,2.7377,2.7377,2.7368,2.7368,2.7638,2.7708,2.7252,2.7486,2.7383,2.6689,2.6295,2.6004,2.5896,2.575,2.5684,2.5684,2.5684,2.5635,2.5635,2.5635,2.5635,2.5635,2.5635,2.5684,2.5732,2.6255,2.6544,2.663,2.6723,2.6759,1.29,0.0,1.3882,1.3617,1.3488,1.3321,0.0,1.2726,1.3061,0.0,0.0,0.0,0.0,1.6743,0.0,0.0,0.0,0.0,0.0,0.0,0.0,0.0,0.0,0.0,0.0,0.0,0.0,0.0,0.0,0.0,0.0,0.0,2.7593,2.7593,2.7593,2.7809,2.8291,2.8291,2.7689,2.6549,2.7752,2.6739,2.4025,2.6956,0.0,0.0,0.0,0.0,2.8291,2.8291,2.8291,2.8291,2.8291,2.8291,2.8291,2.8291,2.8291,2.8291,2.8291,2.8184,2.796,2.7691,2.7593,2.7476,2.7152,2.726,2.7377,2.7377,2.7377,2.7368,2.7152,2.7098,2.7043,2.6854,2.68,2.68,2.68,2.68,2.68,2.68,2.6944,2.7053,2.68,2.6944,2.7098,2.7098,2.7152,2.7222,2.7343,2.7441,2.7288,2.6817,2.6693,2.6442,2.6068,2.5666,2.5382,2.5382,2.5382,2.5284,2.5088,2.5284,2.5284,2.5079,2.5088,2.5372,2.6004,2.6524,2.7098,2.7668,2.8068,2.8258,1.2422,1.2636,1.3012,1.3841,1.3455,1.3054,1.3751,1.3178,0.0,0.0,0.0,0.0,0.0,0.0,0.0,0.0,0.0,0.0,0.0,0.0,0.0,0.0,0.0,0.0,0.0,0.0,0.0,0.0,0.0,0.0,0.0,0.0,2.7377,2.7377,2.7377,2.7647,2.8121,2.797,2.7258,2.6028,2.7428,2.6902,2.4695,2.7163,0.0,0.0,0.0,0.0,2.8271,2.7525,2.767,2.8291,2.8291,2.8291,2.8291,2.8291,2.8291,2.8291,2.8184,2.7906,2.7638,2.7323,2.7206,2.7152,2.6899,2.6899,2.7008,2.7008,2.7008,2.7008,2.6845,2.6845,2.6791,2.6636,2.6591,2.6591,2.6591,2.6591,2.6591,2.6591,2.6745,2.6791,2.6646,2.6745,2.6845,2.6845,2.6944,2.7043,2.7206,2.7323,2.7292,2.6905,2.6717,2.6511,2.6233,2.5786,2.5484,2.5374,2.5242,2.503,2.4883,2.5039,2.5177,2.5265,2.5518,2.5858,2.6294,2.6822,2.7299,2.7668,2.8337,2.8571,1.2724,1.3194,1.4054,1.6078,1.4898,1.3812,1.6108,1.44,0.0,0.0,0.0,0.0,0.0,1.8684,0.0,0.0,0.0,0.0,0.0,0.0,0.0,0.0,0.0,0.0,0.0,0.0,0.0,0.0,0.0,0.0,0.0,0.0,0.0,2.7269,2.7269,2.7431,2.7745,2.7539,2.6882,2.5878,2.7214,2.7141,2.5931,2.7437,0.0,0.0,0.0,0.0,2.8155,2.6811,2.7091,2.8237,2.8184,2.8184,2.8237,2.8237,2.8237,2.8184,2.7906,2.7638,2.7377,2.7043,2.6999,2.6935,2.6691,2.6591,2.6591,2.6591,2.6591,2.6591,2.6591,2.6591,2.6591,2.6591,2.6591,2.6591,2.6591,2.6591,2.6591,2.6591,2.6591,2.6591,2.6591,2.6591,2.6591,2.6591,2.6791,2.6944,2.6944,2.7161,2.7215,2.6935,2.6637,2.6433,2.6433,2.6061,2.5773,2.5603,2.5192,2.4899,2.4843,2.4883,2.5128,2.5654,2.6149,2.6448,2.6544,2.7023,2.7299,2.7441,2.8066,2.8243,1.2869,1.3885,1.5098,1.6307,1.5168,1.4297,1.6297,1.4971,1.4412,0.0,0.0,0.0,0.0,2.2796,0.0,0.0,0.0,0.0,0.0,0.0,0.0,0.0,0.0,0.0,0.0,0.0,0.0,0.0,0.0,0.0,0.0,0.0,0.0,2.6745,2.6745,2.6845,2.7152,2.7314,2.6677,2.5362,2.6794,2.6721,2.5371,2.6857,2.7691,0.0,0.0,2.7732,2.796,2.7722,2.7732,2.7906,2.7647,2.7691,2.796,2.796,2.796,2.7906,2.7593,2.7422,2.7323,2.68,2.6791,2.6935,2.6691,2.6591,2.6591,2.6591,2.6591,2.6591,2.6591,2.6591,2.6591,2.6591,2.6591,2.6591,2.6591,2.6591,2.6591,2.6591,2.6591,2.6591,2.6591,2.6591,2.6591,2.6591,2.6636,2.6636,2.6636,2.6691,2.6691,2.6691,2.6581,2.6554,2.6554,2.6221,2.5945,2.5934,2.5368,2.4942,2.4597,2.4784,2.503,2.5382,2.5664,2.6177,2.686,2.6907,2.7289,2.7904,2.7998,2.8045,1.252,1.3249,1.4811,1.8331,1.7333,1.6458,1.9981,1.7672,1.6037,0.0,0.0,0.0,0.0,0.0,0.0,0.0,0.0,0.0,0.0,0.0,0.0,0.0,0.0,0.0,0.0,0.0,0.0,0.0,0.0,0.0,0.0,0.0,0.0,0.0,2.6591,2.6636,2.6791,2.6899,2.6362,2.521,2.6524,2.6506,2.5272,2.6749,2.7485,2.7574,0.0,2.6882,2.7565,2.6801,2.6892,2.7584,2.7476,2.7476,2.7638,2.7638,2.753,2.7368,2.726,2.7107,2.6909,2.6691,2.6691,2.6736,2.6636,2.6999,2.7457,2.7457,2.7053,2.6591,2.6591,2.7053,2.7305,2.6745,2.7053,2.7305,2.6745,2.6591,2.6591,2.6591,2.6591,2.6591,2.6591,2.6591,2.6591,2.6591,2.7098,2.726,2.6691,2.7269,2.7431,2.6691,2.6736,2.6736,2.6591,2.6408,2.6168,2.5718,2.519,2.4969,2.5023,2.5242,2.5518,2.5917,2.6332,2.6774,2.7109,2.7109,2.7299,2.7631,2.7726,2.7726,1.2351,1.2737,1.4374,1.9491,1.8574,1.7884,2.3412,2.0189,1.7472,0.0,0.0,0.0,0.0,0.0,0.0,0.0,0.0,0.0,0.0,0.0,0.0,0.0,0.0,0.0,0.0,0.0,0.0,0.0,0.0,0.0,0.0,0.0,0.0,0.0,2.6944,2.7107,2.7368,2.7368,2.6723,2.5568,2.6471,2.6399,2.5577,2.6697,2.7269,2.7251,2.6117,2.6261,2.7241,2.6108,2.6279,2.7323,2.7215,2.7431,2.7691,2.7691,2.7584,2.7359,2.7098,2.6836,2.6636,2.6899,2.6791,2.6646,2.6899,2.7565,2.8223,2.8223,2.7824,2.7314,2.7053,2.777,2.8339,2.7206,2.7824,2.8339,2.7323,2.7062,2.7062,2.7062,2.7062,2.7171,2.7323,2.7215,2.7171,2.7323,2.7931,2.8082,2.7476,2.8368,2.8678,2.7682,2.7565,2.7511,2.7314,2.752,2.7395,2.6797,2.5829,2.5601,2.6219,2.6192,2.6508,2.7183,2.7704,2.7846,2.7631,2.7631,2.7489,2.7309,2.7441,2.7536,1.2782,1.3193,1.4429,1.7991,1.6943,1.699,2.4458,2.1127,0.0,2.4718,0.0,0.0,0.0,0.0,0.0,0.0,0.0,0.0,0.0,0.0,0.0,0.0,0.0,0.0,0.0,0.0,0.0,0.0,0.0,0.0,0.0,0.0,0.0,0.0,0.0,2.8595,2.966,2.966,2.8605,2.6491,2.6573,2.6573,2.6491,2.6627,2.6791,2.7034,2.6907,2.6907,2.7034,2.6898,2.6907,2.6989,2.6736,2.7485,2.8591,2.8591,2.8581,2.8422,2.7359,2.6836,2.6745,2.7761,2.7403,2.6791,2.7761,2.8116,2.8223,2.8223,2.8913,2.9398,2.8339,2.8923,2.9493,2.8329,2.8966,2.9555,2.8741,2.8528,2.8528,2.8528,2.8528,2.8794,2.9513,2.9049,2.8784,2.9565,2.9102,2.889,2.9565,2.9964,3.0266,3.0411,2.9734,2.9325,2.9282,3.0193,3.0771,3.0707,2.8248,2.7342,2.8433,2.7966,2.8121,2.9189,2.9704,2.9532,2.8585,2.8585,2.8128,2.7309,2.7309,2.7762,1.2205,1.2993,1.4898,1.9038,1.8245,0.0,0.0,2.2496,2.1172,2.6307,2.4845,0.0,0.0,0.0,0.0,0.0,0.0,0.0,0.0,0.0,0.0,0.0,0.0,0.0,0.0,0.0,0.0,0.0,0.0,0.0,0.0,0.0,0.0,0.0,0.0,2.8754,2.9869,2.9922,2.946,2.8625,2.7931,2.726,2.6591,2.6591,2.6636,2.6736,2.6736,2.7152,2.7761,2.7761,2.7761,2.7761,2.7609,2.7921,2.8445,2.9197,2.8986,2.8349,2.7921,2.7663,2.7663,2.8072,2.8402,2.8721,2.9134,2.9755,3.0317,3.0317,3.1114,3.1597,2.9765,3.012,3.065,2.9545,3.0276,3.1,3.011,2.9807,2.9755,2.9901,2.966,2.9565,2.9869,2.967,2.9565,2.9869,3.0235,3.0338,2.9974,3.1051,3.1553,3.0762,3.0751,3.0741,3.0741,3.1702,3.2359,3.2359,3.0364,2.9586,3.046,3.0055,2.9958,3.0399,3.0583,3.0342,2.9624,2.9624,2.9441,2.9119,2.9119,2.9303,1.2178,1.293,1.4894,1.9041,0.0,0.0,2.423,2.3585,2.3032,2.7477,2.6978,0.0,0.0,0.0,0.0,0.0,0.0,0.0,0.0,0.0,0.0,0.0,0.0,0.0,0.0,0.0,0.0,0.0,0.0,0.0,0.0,0.0,0.0,0.0,0.0,0.0,3.097,3.097,3.0805,3.0442,2.965,2.8711,2.7638,2.7638,2.7476,2.7098,2.7098,2.7511,2.8223,2.8223,2.8382,2.8754,2.9114,2.9272,2.9377,3.0172,2.9964,2.9219,2.886,2.8754,2.8807,2.9167,2.9545,2.9974,3.0338,3.0959,3.1575,3.1575,3.2432,3.2969,3.1392,3.1534,3.1841,3.0701,3.1472,3.2246,3.1502,3.1246,3.1195,3.1542,3.1195,3.0908,3.1154,3.1,3.0897,3.1154,3.1768,3.2022,3.1502,3.2689,3.3139,3.1988,3.2571,3.2871,3.247,3.3392,3.3995,3.3995,3.2909,3.235,3.2603,3.1982,3.1806,3.2155,3.2189,3.1746,3.0899,3.0899,3.0682,3.0215,3.0215,3.0351,1.2949,1.3178,1.4301,1.7502,0.0,0.0,2.5172,2.4175,2.3411,2.8228,0.0,3.191,2.9928,0.0,0.0,0.0,0.0,0.0,0.0,0.0,0.0,0.0,0.0,0.0,0.0,0.0,0.0,0.0,0.0,0.0,0.0,0.0,0.0,0.0,0.0,0.0,3.3281,3.3281,3.2745,3.1626,3.1626,3.1011,2.9922,2.9922,2.9282,2.8223,2.8223,2.8223,2.8223,2.8223,2.8913,3.0026,3.1165,3.1575,3.1575,3.1626,3.1626,3.1421,3.0287,2.9922,3.0078,3.1216,3.0856,3.013,3.1268,3.1626,3.1626,3.1626,3.2432,3.3281,3.3292,3.3331,3.3019,3.1891,3.2482,3.322,3.2873,3.2812,3.2951,3.3499,3.3201,3.3062,3.388,3.3323,3.3062,3.388,3.377,3.3906,3.4726,3.503,3.5005,3.4483,3.5619,3.5858,3.4532,3.5404,3.6015,3.6015,3.6015,3.5625,3.4846,3.372,3.3646,3.4693,3.4726,3.3975,3.2415,3.2415,3.1656,3.0227,3.0227,3.0722,1.5563,1.5691,0.0,1.8882,0.0,0.0,0.0,2.5733,0.0,0.0,0.0,0.0,0.0,0.0,0.0,0.0,0.0,0.0,0.0,0.0,0.0,0.0,0.0,0.0,0.0,0.0,0.0,0.0,0.0,0.0,0.0,0.0,0.0,0.0,0.0,0.0,3.3281,3.3281,3.3119,3.2807,3.2807,3.175,2.9922,2.9922,2.9713,2.9398,2.9398,2.9859,3.0577,3.0577,3.0794,3.1114,3.1472,3.1575,3.1688,3.2482,3.2269,3.1524,3.1216,3.1114,3.1165,3.1472,3.1902,3.2331,3.2695,3.2807,3.2846,3.3174,3.3296,3.3381,3.3706,3.3805,3.3607,3.2946,3.3446,3.4101,3.4176,3.4078,3.4127,3.486,3.4568,3.4176,3.404,3.4127,3.4176,3.404,3.4274,3.4677,3.5271,3.5428,3.556,3.5775,3.6156,3.6263,3.581,3.6121,3.6275,3.6275,3.6275,3.6153,3.5943,3.561,3.535,3.5257,3.5257,3.4832,3.4045,3.4045,3.3625,3.2828,3.2828,3.2764,1.7366,1.7584,0.0,2.18,2.2906,2.3896,2.6591,0.0,0.0,0.0,0.0,0.0,0.0,0.0,0.0,0.0,0.0,0.0,0.0,0.0,0.0,0.0,0.0,0.0,0.0,0.0,0.0,0.0,0.0,0.0,0.0,0.0,0.0,0.0,0.0,0.0,3.3281,3.3281,3.3281,3.3281,3.3281,3.2594,3.1238,3.1238,3.1021,3.0598,3.0598,3.0959,3.1637,3.2106,3.2269,3.2269,3.2269,3.2269,3.237,3.3069,3.2996,3.251,3.2319,3.2409,3.2499,3.2319,3.2745,3.3281,3.3281,3.3431,3.3618,3.3706,3.3656,3.3668,3.3941,3.4139,3.4188,3.3717,3.4101,3.4677,3.503,3.4981,3.5066,3.58,3.5464,3.503,3.4677,3.4872,3.503,3.4677,3.5114,3.5548,3.5895,3.5895,3.6038,3.6358,3.6405,3.6405,3.6405,3.6405,3.6405,3.6405,3.6405,3.6405,3.6405,3.6405,3.6207,3.5868,3.5868,3.5558,3.4882,3.4882,3.4595,3.3923,3.3923,3.3714,1.8643,1.9009,0.0,2.5134,2.5444,0.0,2.8015,2.9041,2.9899,0.0,0.0,0.0,0.0,0.0,0.0,0.0,0.0,0.0,0.0,0.0,0.0,0.0,0.0,0.0,0.0,0.0,0.0,0.0,0.0,0.0,0.0,0.0,0.0,0.0,0.0,0.0,3.3281,3.3281,3.3281,0.0,3.3281,3.3281,3.3281,3.3281,3.2745,3.1739,3.1739,3.1739,3.1841,3.2857,3.3281,3.3281,3.3281,3.3281,3.3281,3.3281,3.3618,3.3941,3.3519,3.3668,3.3941,3.3568,3.3381,3.3381,3.3431,3.3706,3.3991,3.3618,3.3755,3.4089,3.4139,3.4531,3.4726,3.4286,3.4531,3.503,3.5464,3.562,3.5752,3.631,3.5991,3.5668,3.562,3.5668,3.5668,3.5668,3.6086,3.6405,3.6405,3.6405,3.6405,3.6405,3.6405,3.6405,3.6405,3.6405,3.6405,3.6405,3.6405,3.6405,3.6405,3.6405,3.6405,3.6358,3.6358,3.5991,3.5223,3.5223,3.4845,3.4084,3.4084,3.3868,2.0423,2.0758,0.0,0.0,2.5541,2.725,2.9158,3.0435,0.0,0.0,0.0,0.0,0.0,0.0,0.0,0.0,0.0,0.0,0.0,0.0,0.0,0.0,0.0,0.0,0.0,0.0,0.0,0.0,0.0,0.0,0.0,0.0,0.0,0.0,0.0,3.3281,3.3281,3.3281,3.3281,0.0,3.3281,3.3281,3.3281,3.3281,3.3181,3.2908,3.2908,3.2908,3.2958,3.3181,3.3281,3.3281,3.3281,3.3281,3.3281,3.3281,3.3618,3.3991,3.3892,3.3892,3.404,3.4384,3.4188,3.3953,3.4347,3.4543,3.4677,3.503,3.4884,3.4726,3.5126,3.532,3.5416,3.5271,3.532,3.5476,3.5572,3.562,3.5752,3.631,3.631,3.6086,3.5668,3.5943,3.6228,3.6228,3.631,3.6405,3.6405,3.6405,3.6405,3.6405,3.6405,3.6405,3.6405,3.6405,3.6405,3.6405,3.6405,3.6405,3.6405,3.6405,3.6323,3.6098,3.6098,3.5906,3.5496,3.5496,3.5213,3.4637,3.4637,3.4342,1.9788,0.0,0.0,2.5984,0.0,2.8954,2.9743,3.0866,0.0,0.0,0.0,0.0,0.0,0.0,0.0,0.0,0.0,0.0,0.0,0.0,0.0,0.0,0.0,0.0,0.0,0.0,0.0,0.0,0.0,0.0,0.0,0.0,0.0,0.0,3.3281,3.3281,3.3281,3.3281,3.3281,3.3281,3.3281,3.3281,3.3281,3.3281,3.3281,3.3281,3.3281,3.3281,3.3281,3.3281,3.3281,3.3281,3.3281,3.3281,3.3281,3.3281,3.3767,3.4335,3.4089,3.4335,3.4775,3.4775,3.4628,3.4433,3.4726,3.4981,3.5175,3.5223,3.5223,3.5271,3.5524,3.562,3.5656,3.5895,3.5991,3.5991,3.5991,3.5991,3.6086,3.637,3.6405,3.631,3.6038,3.6216,3.6405,3.6405,3.6405,3.6405,3.6405,3.6405,3.6405,3.6405,3.6405,3.6405,3.6405,3.6405,3.6405,3.6405,3.6405,3.6405,3.6405,3.6405,3.6275,3.6015,3.6015,3.5812,3.5416,3.5416,3.5173,3.481,3.481,3.4577,1.7856,0.0,2.3898,2.8712,2.9885,0.0,2.9896,0.0,0.0,0.0,0.0,0.0,0.0,0.0,0.0,0.0,0.0,0.0,0.0,0.0,0.0,0.0,0.0,0.0,0.0,0.0,0.0,0.0,0.0,0.0,0.0,0.0,3.3281,3.3281,3.3281,3.3281,3.3281,3.3281,3.3281,3.3281,3.3281,3.3281,3.3281,3.3281,3.3281,3.3281,3.3281,3.3281,3.3281,3.3281,3.3281,3.3331,3.3381,3.3431,3.3431,3.3431,3.4052,3.4872,3.4335,3.4787,3.5512,3.5163,3.5017,3.4981,3.5066,3.5416,3.5656,3.5211,3.5416,3.5764,3.5764,3.5764,3.5847,3.631,3.6405,3.6405,3.6405,3.6405,3.6405,3.6405,3.6405,3.6405,3.6405,3.6405,3.6405,3.6405,3.6405,3.6405,3.6405,3.6405,3.6405,3.6405,3.6405,3.6405,3.6405,3.6405,3.6405,3.6405,3.6405,3.6405,3.6405,3.6405,3.6275,3.6015,3.5955,3.5668,3.5223,3.5175,3.503,3.4775,3.4775,3.4691,0.0,0.0,2.4102,0.0,2.8545,2.8913,0.0,0.0,0.0,0.0,0.0,0.0,0.0,0.0,0.0,0.0,0.0,0.0,0.0,0.0,0.0,0.0,0.0,0.0,0.0,0.0,0.0,0.0,0.0,0.0,0.0,3.3281,3.3281,3.3281,3.3281,3.3281,3.3281,3.3281,3.3281,3.3281,3.3281,3.3281,3.3281,3.3281,3.3281,3.3281,3.3281,3.3281,3.3281,3.3281,3.3281,3.3331,3.3755,3.3892,3.3892,3.3892,3.458,3.5428,3.4884,3.5078,3.5656,3.6073,3.5895,3.556,3.6038,3.6216,3.6263,3.6216,3.6216,3.631,3.631,3.631,3.631,3.6358,3.6405,3.6405,3.6405,3.6405,3.6405,3.6405,3.6405,3.6405,3.6405,3.6405,3.6405,3.6405,3.6405,3.6405,3.6405,3.6405,3.6405,3.6405,3.6405,3.6405,3.6405,3.6405,3.6405,3.6405,3.6405,3.6405,3.6405,3.6405,3.6275,3.6015,3.5764,3.5512,3.5223,3.4981,3.4823,3.4775,3.4775,3.4787,1.7493,2.0003,2.2967,0.0,2.8568,2.7615,0.0,0.0,0.0,0.0,0.0,0.0,0.0,0.0,0.0,0.0,0.0,0.0,0.0,0.0,0.0,0.0,0.0,0.0,0.0,0.0,0.0,0.0,0.0,0.0,3.3281,3.3281,3.3281,3.3281,3.3281,3.3281,3.3281,3.3281,3.3281,3.3281,3.3281,3.3431,3.3706,3.3706,3.3568,3.3281,3.3281,3.3281,3.3281,3.3281,3.3281,3.3331,3.3805,3.3991,3.404,3.4335,3.4932,3.5572,3.532,3.5608,3.6086,3.631,3.6216,3.6086,3.631,3.6405,3.6405,3.6405,3.6405,3.6405,3.6405,3.6405,3.6405,3.6405,3.6405,3.6405,3.6405,3.6405,3.6405,3.6405,3.6405,3.6405,3.6405,3.6405,3.6405,3.6405,3.6405,3.6405,3.6405,3.6405,3.6405,3.6405,3.6405,3.6405,3.6405,3.6405,3.6405,3.6405,3.6405,3.6405,3.6405,3.6405,3.6323,3.6228,3.58,3.5476,3.5223,3.492,3.4775,3.4775,3.4775,3.4775,0.0,0.0,2.0537,2.7598,2.7162,2.5735,0.0,0.0,0.0,0.0,0.0,0.0,0.0,0.0,0.0,0.0,0.0,0.0,0.0,0.0,0.0,0.0,0.0,0.0,0.0,0.0,0.0,0.0,0.0,0.0,3.3281,3.3281,3.3281,3.3281,3.3281,3.3281,3.3281,3.3281,3.3281,3.3281,3.3431,3.3656,3.3991,3.4139,3.4003,3.3668,3.3519,3.3469,3.3481,3.3331,3.3281,3.3381,3.3953,3.4188,3.4286,3.4835,3.5368,3.58,3.5668,3.5943,3.6405,3.6405,3.6405,3.6405,3.6405,3.6405,3.6405,3.6405,3.6405,3.6405,3.6405,3.6405,3.6405,3.6405,3.637,3.6323,3.6405,3.6405,3.6405,3.6405,3.6405,3.6405,3.6405,3.6405,3.6358,3.6323,3.6358,3.6358,3.6323,3.6358,3.6405,3.6405,3.6323,3.6323,3.6405,3.6323,3.6323,3.6405,3.6405,3.6405,3.6405,3.6323,3.6323,3.6323,3.5752,3.5416,3.532,3.4981,3.4775,3.4775,3.4775,3.4775,0.0,1.5487,0.0,2.1681,0.0,0.0,0.0,0.0,0.0,0.0,0.0,0.0,0.0,0.0,0.0,0.0,0.0,0.0,0.0,0.0,0.0,0.0,0.0,0.0,0.0,0.0,0.0,0.0,0.0,0.0,3.3281,3.3281,3.3281,3.3281,3.3281,3.3281,3.3281,3.3281,3.3281,3.3292,3.3755,3.3991,3.404,3.4531,3.4726,3.4677,3.4188,3.3941,3.3941,3.3469,3.3281,3.3381,3.4396,3.4775,3.4823,3.5368,3.5895,3.6275,3.5764,3.5943,3.6405,3.6405,3.6405,3.6405,3.6405,3.6405,3.6405,3.6405,3.6405,3.6405,3.6405,3.6405,3.6405,3.6405,3.6181,3.6098,3.637,3.6405,3.6405,3.6405,3.6405,3.6405,3.6405,3.6405,3.6323,3.6051,3.6228,3.6323,3.6063,3.6228,3.6405,3.6405,3.6193,3.6098,3.6358,3.6193,3.6146,3.6358,3.6405,3.6405,3.6405,3.6146,3.6015,3.6015,3.5464,3.532,3.5572,3.5078,3.4775,3.4775,3.4775,3.4775,0.0,0.0,0.0,2.0454,2.0888,0.0,0.0,0.0,0.0,0.0,0.0,0.0,0.0,0.0,0.0,0.0,0.0,0.0,0.0,0.0,0.0,0.0,0.0,0.0,0.0,0.0,0.0,0.0,0.0,0.0,3.3247,3.271,3.2615,3.3258,3.3281,3.3281,3.3281,3.3281,3.3281,3.3292,3.3805,3.4188,3.4531,3.5078,3.5416,3.5512,3.4981,3.4677,3.4482,3.4347,3.4249,3.4347,3.503,3.532,3.5368,3.5943,3.6216,3.6358,3.6168,3.6216,3.6405,3.6405,3.6405,3.6405,3.6405,3.6275,3.6146,3.6146,3.6003,3.5895,3.5895,3.5991,3.6146,3.6146,3.5955,3.5764,3.5847,3.6003,3.6193,3.6358,3.6275,3.6146,3.6146,3.5991,3.5847,3.5764,3.5812,3.5847,3.5764,3.5812,3.5895,3.5895,3.5812,3.5764,3.5895,3.5812,3.5764,3.5895,3.5895,3.5943,3.6146,3.5908,3.5812,3.6015,3.5476,3.5271,3.532,3.4981,3.4775,3.4775,3.4775,3.4775,1.3254,0.0,0.0,0.0,0.0,0.0,0.0,0.0,0.0,0.0,0.0,0.0,0.0,0.0,0.0,0.0,0.0,0.0,0.0,0.0,0.0,0.0,0.0,0.0,0.0,0.0,0.0,0.0,0.0,0.0,3.3097,3.254,3.2543,3.3258,3.3281,3.3201,3.3017,3.3201,3.3139,3.2918,3.3674,3.4188,3.4531,3.5175,3.562,3.5872,3.5464,3.5126,3.4775,3.4677,3.4677,3.4726,3.5368,3.5512,3.5524,3.6086,3.6275,3.6275,3.6275,3.6323,3.6405,3.6275,3.6275,3.6228,3.6181,3.6003,3.5872,3.5872,3.5716,3.562,3.562,3.5716,3.5812,3.5764,3.562,3.5476,3.5476,3.5668,3.5908,3.6086,3.6003,3.5872,3.5872,3.5716,3.5572,3.5476,3.5512,3.5572,3.5476,3.5512,3.562,3.562,3.5524,3.5512,3.5572,3.5524,3.5512,3.5572,3.562,3.5668,3.5872,3.562,3.5572,3.5716,3.5271,3.5078,3.5078,3.4872,3.4775,3.4775,3.4775,3.4775,0.0,0.0,0.0,0.0,0.0,0.0,0.0,0.0,0.0,0.0,0.0,0.0,0.0,0.0,0.0,0.0,0.0,0.0,0.0,0.0,0.0,0.0,0.0,0.0,0.0,0.0,0.0,0.0,0.0,3.2538,3.2846,3.2846,3.2996,3.3235,3.3235,3.2982,3.2466,3.2982,3.2822,3.2086,3.3354,3.4005,3.4017,3.4811,3.5307,3.5572,3.5572,3.5271,3.4775,3.4531,3.4433,3.4531,3.5271,3.5416,3.5271,3.5812,3.5968,3.5968,3.5968,3.6146,3.631,3.6051,3.5968,3.592,3.5668,3.5572,3.5572,3.5572,3.5572,3.5572,3.5572,3.5572,3.5524,3.5271,3.5175,3.5175,3.5175,3.5368,3.5572,3.562,3.5572,3.5572,3.5572,3.5572,3.5464,3.5223,3.5416,3.5476,3.5223,3.5428,3.5572,3.5572,3.532,3.5271,3.556,3.532,3.5271,3.5572,3.5572,3.5572,3.5572,3.532,3.5175,3.5223,3.4932,3.4775,3.4775,3.4775,3.4775,3.4775,3.4775,3.4775,1.1664,0.0,0.0,0.0,0.0,0.0,0.0,0.0,0.0,0.0,0.0,0.0,0.0,0.0,0.0,0.0,0.0,0.0,0.0,0.0,0.0,0.0,0.0,0.0,0.0,0.0,0.0,0.0,3.0765,3.0664,3.1491,3.1694,3.1948,3.219,3.2045,3.1831,3.1732,3.2002,3.1846,3.1311,3.2746,3.3458,3.3524,3.4497,3.5049,3.532,3.532,3.5126,3.4823,3.5126,3.5368,3.5572,3.5572,3.556,3.5524,3.5668,3.5716,3.5716,3.5716,3.5764,3.58,3.5716,3.5716,3.5716,3.562,3.5464,3.532,3.532,3.5175,3.5078,3.5271,3.5175,3.5078,3.5175,3.5078,3.4932,3.4932,3.4981,3.5126,3.5524,3.5416,3.532,3.532,3.5126,3.4981,3.4932,3.4981,3.4969,3.4932,3.4981,3.503,3.503,3.4969,3.492,3.503,3.4932,3.492,3.503,3.503,3.5126,3.532,3.5078,3.4981,3.5223,3.4932,3.4775,3.4775,3.4775,3.4775,3.4775,3.4775,3.4775,0.0,0.0,0.0,0.0,0.0,0.0,1.4983,1.7736,0.0,0.0,0.0,0.0,0.0,0.0,0.0,0.0,0.0,0.0,0.0,0.0,0.0,0.0,0.0,0.0,0.0,0.0,0.0,0.0,3.02,3.0086,3.0797,3.1083,3.1324,3.1467,3.1324,3.1137,3.0934,3.1449,3.139,3.0852,3.2254,3.2948,3.2995,3.3898,3.446,3.4703,3.4933,3.503,3.4969,3.5175,3.5416,3.5668,3.562,3.5524,3.5428,3.5428,3.5428,3.5428,3.5428,3.5524,3.5572,3.5476,3.5428,3.5416,3.532,3.5175,3.503,3.503,3.4932,3.4823,3.4981,3.4932,3.4823,3.4981,3.492,3.4775,3.4775,3.4775,3.4872,3.5223,3.5126,3.503,3.503,3.4872,3.4775,3.4775,3.4775,3.4775,3.4775,3.4775,3.4775,3.4775,3.4775,3.4775,3.4775,3.4775,3.4775,3.4775,3.4775,3.4884,3.503,3.4884,3.4872,3.503,3.4884,3.4775,3.4775,3.4775,3.4775,3.4775,3.4775,3.4775,0.0,0.0,0.0,0.0,0.0,0.0,1.581,1.8838,2.1547,0.0,0.0,0.0,0.0,0.0,0.0,0.0,0.0,0.0,0.0,0.0,0.0,0.0,0.0,0.0,0.0,0.0,2.9932,3.0389,3.0191,3.0191,3.053,3.0759,3.0903,3.0999,3.0988,3.0748,3.0321,3.1164,3.1247,3.0568,3.1844,3.2418,3.2465,3.3197,3.372,3.4018,3.4486,3.4872,3.5126,3.4884,3.4981,3.5223,3.5428,3.538,3.5175,3.5175,3.5175,3.5175,3.5175,3.532,3.5476,3.5223,3.5175,3.5126,3.4884,3.4775,3.4775,3.4775,3.4775,3.4775,3.4775,3.4775,3.4775,3.4775,3.4775,3.4775,3.4775,3.4775,3.4775,3.4775,3.4775,3.4775,3.4775,3.4775,3.4775,3.4775,3.4775,3.4775,3.4775,3.4775,3.4775,3.4775,3.4775,3.4775,3.4775,3.4775,3.4775,3.4775,3.4775,3.4775,3.4775,3.4775,3.4775,3.4775,3.4775,3.4775,3.4775,3.4775,3.4775,3.4775,3.4775,3.4775,0.0,0.0,0.0,0.0,0.0,0.0,1.4239,1.5284,1.7057,0.0,0.0,0.0,0.0,0.0,0.0,0.0,0.0,0.0,0.0,0.0,0.0,0.0,0.0,0.0,0.0,0.0,2.9036,2.9124,2.9088,2.938,2.9996,3.0088,3.0411,3.1006,3.08,3.0639,3.0547,3.0879,3.0788,3.0274,3.1331,3.1886,3.1877,3.2468,3.3214,3.4006,3.4102,3.4438,3.4872,3.4823,3.4981,3.5175,3.503,3.4932,3.4884,3.4884,3.4884,3.4884,3.4884,3.4932,3.4932,3.4884,3.4884,3.4884,3.4835,3.4775,3.4775,3.4775,3.4775,3.4775,3.4775,3.4775,3.4775,3.4775,3.4775,3.4775,3.4775,3.4775,3.4775,3.4775,3.4775,3.4775,3.4775,3.4775,3.4775,3.4775,3.4775,3.4775,3.4775,3.4775,3.4775,3.4775,3.4775,3.4775,3.4775,3.4775,3.4775,3.4775,3.4775,3.4775,3.4775,3.4775,3.4775,3.4775,3.4775,3.4775,3.4775,3.4775,3.4775,3.4775,3.4775,3.4775,0.0,0.0,0.0,1.8398,0.0,0.0,0.0,1.6643,1.7887,0.0,0.0,0.0,0.0,0.0,0.0,0.0,0.0,0.0,0.0,0.0,0.0,0.0,0.0,0.0,0.0,0.0,2.9393,2.9163,2.9347,2.9542,2.968,2.992,3.0239,3.0601,3.0487,3.0397,3.0397,3.0713,3.0758,3.0578,3.135,3.1716,3.171,3.228,3.2791,3.3296,3.3766,3.4138,3.4402,3.4667,3.4884,3.4981,3.4823,3.4775,3.4775,3.4775,3.4775,3.4775,3.4775,3.4775,3.4775,3.4775,3.4775,3.4775,3.4775,3.4775,3.4775,3.4775,3.4775,3.4775,3.4775,3.4775,3.4775,3.4775,3.4775,3.4775,3.4775,3.4775,3.4775,3.4775,3.4775,3.4775,3.4775,3.4775,3.4775,3.4775,3.4775,3.4775,3.4775,3.4775,3.4775,3.4775,3.4775,3.4775,3.4775,3.4775,3.4775,3.4775,3.4775,3.4775,3.4775,3.4775,3.4775,3.4775,3.5295,3.5523,3.5523,3.5523,3.5295,3.4823,3.5295,3.5523,0.0,0.0,0.0,0.0,0.0,1.8887,0.0,0.0,0.0,0.0,0.0,0.0,0.0,0.0,0.0,0.0,0.0,0.0,0.0,0.0,0.0,0.0,0.0,0.0,0.0,0.0,2.9726,2.9646,3.008,3.0182,2.9806,3.0217,3.0501,3.0487,3.0487,3.0487,3.0487,3.0847,3.1026,3.1083,3.1484,3.1705,3.1717,3.213,3.2394,3.2551,3.3489,3.3898,3.403,3.4558,3.4775,3.4775,3.4775,3.4775,3.4775,3.4775,3.4775,3.4775,3.4775,3.4775,3.4775,3.4775,3.4775,3.4775,3.4775,3.4775,3.4775,3.4775,3.4775,3.4775,3.4775,3.4775,3.4775,3.4775,3.4775,3.4775,3.4775,3.4775,3.4775,3.4775,3.4775,3.4775,3.4775,3.4775,3.4775,3.4775,3.4775,3.4775,3.4775,3.4775,3.4775,3.4775,3.4775,3.4775,3.4775,3.4775,3.4775,3.4775,3.4775,3.4775,3.4775,3.4775,3.4775,3.4775,3.5619,3.6083,3.632,3.632,3.5893,3.5102,3.5906,3.632,0.0,0.0,0.0,0.0,2.1628,0.0,0.0,0.0,0.0,0.0,0.0,0.0,0.0,0.0,0.0,0.0,0.0,0.0,0.0,0.0,0.0,0.0,0.0,0.0,0.0,0.0,0.0,3.0022,3.0629,3.087,3.0748,3.1235,3.151,3.154,3.1528,3.1528,3.1528,3.1572,3.1617,3.1617,3.1661,3.1705,3.1705,3.1777,3.2034,3.2527,3.3116,3.3633,3.403,3.4558,3.4775,3.4775,3.4775,3.4775,3.4775,3.4775,3.4775,3.4775,3.4775,3.4775,3.4775,3.4775,3.4775,3.4775,3.4775,3.4775,3.4775,3.4775,3.4775,3.4775,3.4775,3.4775,3.4775,3.4775,3.4775,3.4775,3.4775,3.4775,3.4775,3.4775,3.4775,3.4775,3.4775,3.4775,3.4775,3.4775,3.4775,3.4775,3.4775,3.4775,3.4775,3.4775,3.4775,3.4775,3.4775,3.4775,3.4775,3.4775,3.4775,3.4775,3.4775,3.4775,3.4775,3.4775,3.492,3.544,3.632,3.632,3.6225,3.6131,3.6225,3.632,0.0,0.0,0.0,0.0,0.0,0.0,0.0,0.0,1.838,0.0,0.0,0.0,0.0,0.0,0.0,0.0,0.0,0.0,0.0,0.0,0.0,0.0,0.0,0.0,0.0,0.0,0.0,0.0,0.0,2.9631,2.9554,3.1229,3.2144,3.2154,3.1874,3.1705,3.1705,3.1705,3.1705,3.1705,3.1705,3.1705,3.1705,3.1705,3.1837,3.209,3.2587,3.3128,3.3645,3.4114,3.4498,3.4775,3.4775,3.4775,3.4775,3.4775,3.4775,3.4775,3.4775,3.4775,3.4775,3.4775,3.4775,3.4775,3.4775,3.4775,3.4775,3.4775,3.4775,3.4775,3.4775,3.4775,3.4775,3.4775,3.4775,3.4775,3.4775,3.4775,3.4775,3.4775,3.4775,3.4775,3.4775,3.4775,3.4775,3.4775,3.4775,3.4775,3.4775,3.4775,3.4775,3.4775,3.4775,3.4775,3.4775,3.4775,3.4775,3.4775,3.5343,3.544,3.4823,3.5906,3.6273,3.5667,3.6798,3.7573,3.7984,3.7984,3.7984,3.7984,3.7984,3.7984,2.8459,0.0,0.0,0.0,0.0,0.0,0.0,0.0,0.0,0.0,0.0,0.0,0.0,0.0,0.0,0.0,0.0,0.0,0.0,0.0,0.0,0.0,0.0,0.0,0.0,0.0,0.0,0.0,0.0,0.0,2.8834,3.1149,3.2503,3.2503,3.1994,3.1705,3.1705,3.1705,3.1705,3.1705,3.1705,3.1705,3.1705,3.1705,3.1705,3.1741,3.2262,3.2803,3.3332,3.3837,3.4306,3.4775,3.4775,3.4775,3.4775,3.4775,3.4775,3.4775,3.4775,3.4775,3.4775,3.4775,3.4775,3.4775,3.4775,3.4775,3.4775,3.4775,3.4775,3.4775,3.4775,3.4775,3.4775,3.4775,3.4775,3.4775,3.4775,3.4775,3.4775,3.4775,3.4775,3.4775,3.4775,3.4775,3.4775,3.4775,3.4775,3.4775,3.4775,3.4775,3.4775,3.4775,3.4775,3.492,3.5199,3.5199,3.5199,3.5199,3.6131,3.6273,3.5247,3.6883,3.7441,3.6743,3.8088,3.8944,3.921,3.921,3.9343,3.9621,3.9343,3.921,0.0,0.0,0.0,2.664,0.0,0.0,0.0,0.0,2.1477,0.0,0.0,0.0,0.0,0.0,0.0,0.0,0.0,0.0,0.0,0.0,0.0,0.0,0.0,0.0,0.0,0.0,0.0,0.0,0.0,0.0,2.946,3.1412,3.2503,3.2503,3.1994,3.1705,3.1705,3.1705,3.1705,3.1705,3.1705,3.1705,3.1705,3.1705,3.1705,3.1741,3.2262,3.2803,3.3332,3.3837,3.4306,3.4775,3.4775,3.4775,3.4775,3.4775,3.4775,3.4775,3.4775,3.4775,3.4775,3.4775,3.4775,3.4775,3.4775,3.4775,3.4775,3.4775,3.4775,3.4775,3.4775,3.4775,3.4775,3.4775,3.4775,3.4775,3.4775,3.4775,3.4775,3.4775,3.4775,3.4775,3.4775,3.4775,3.4775,3.4775,3.4775,3.4775,3.4775,3.4775,3.4775,3.4775,3.4775,3.5199,3.6178,3.6273,3.6273,3.6273,3.7209,3.7302,3.6273,3.7256,3.7763,3.7763,3.7808,3.8283,3.921,3.921,3.9722,4.0645,3.9664,3.921,0.0,0.0,3.4172,3.237,0.0,0.0,0.0,0.0,0.0,0.0,0.0,0.0,0.0,0.0,0.0,0.0,0.0,0.0,0.0,0.0,0.0,0.0,0.0,0.0,0.0,0.0,0.0,0.0,0.0,0.0,0.0,2.9549,3.1426,3.1076,3.1846,3.2034,3.1705,3.1705,3.1705,3.1705,3.1705,3.1705,3.1705,3.1705,3.1705,3.1717,3.191,3.2262,3.2803,3.332,3.3849,3.4294,3.4643,3.4775,3.4775,3.4775,3.4775,3.4775,3.4775,3.4775,3.4775,3.4775,3.4775,3.4775,3.4775,3.4775,3.4775,3.4775,3.4775,3.4775,3.4775,3.4775,3.4775,3.4775,3.4775,3.4775,3.4775,3.4775,3.4775,3.4775,3.4775,3.4775,3.4775,3.4775,3.4775,3.4775,3.4775,3.4775,3.4775,3.4775,3.4775,3.4775,3.4775,3.492,3.5295,3.5906,3.659,3.7256,3.8192,3.8283,3.7335,3.8836,3.9428,3.872,3.9384,3.9881,4.0185,4.0185,4.0372,4.0702,4.0372,4.0185,3.7326,3.7362,0.0,3.5498,3.269,0.0,2.9081,0.0,0.0,0.0,0.0,0.0,0.0,0.0,0.0,0.0,0.0,0.0,0.0,1.4595,0.0,0.0,0.0,0.0,0.0,0.0,0.0,0.0,0.0,0.0,0.0,0.0,3.0482,3.0283,3.1737,3.2238,3.1717,3.1705,3.1705,3.1705,3.1705,3.1705,3.1705,3.1705,3.1869,3.2164,3.2164,3.2646,3.3435,3.3673,3.4027,3.4504,3.4715,3.4775,3.4775,3.4775,3.4775,3.4775,3.4775,3.4775,3.4775,3.4775,3.4775,3.4775,3.4775,3.4775,3.4775,3.4775,3.4775,3.4775,3.4775,3.4775,3.4775,3.4775,3.4775,3.4775,3.4775,3.4775,3.4775,3.4775,3.4775,3.4775,3.4775,3.4775,3.4775,3.4775,3.4775,3.492,3.5295,3.5343,3.5343,3.5343,3.5343,3.5475,3.5858,3.7091,3.8011,3.8283,3.9179,3.9312,3.8328,3.9823,4.0416,3.9766,4.0372,4.0702,4.0702,4.0702,4.0702,4.0702,4.0702,4.0702]}]]